[[{"header":{"parameterUnit":"m.s-1","parameterCategory":1,"la1":30.6,"la2":28.766,"lo1":-90.7593,"lo2":-88.6598,"dy":0.0162,"dx":0.0183,"nx":116,"ny":114,"refTime":"2023-06-04T12:00:00:Z","depth":0,"parameterNumber":2,"parameterNumberName":"U-component_of_WINDS"},"data":[0.0,0.0,0.0,0.0,0.0,0.0,0.0,0.0,0.0,0.0,0.0,0.0,0.0,0.0,0.0,0.0,0.0,0.0,0.0,0.0,0.0,0.0,0.0,0.0,0.0,0.0,0.0,0.0,0.0,0.0,0.0,0.0,0.0,0.0,0.0,0.0,0.0,0.0,0.0,0.0,0.0,0.0,0.0,0.0,0.0,0.0,0.0,0.0,0.0,0.0,0.0,0.0,0.0,0.0,0.0,0.0,0.0,0.0,0.0,0.0,0.0,0.0,0.0,0.0,0.0,0.0,0.0,0.0,0.0,0.0,0.0,0.0,0.0,0.0,0.0,0.0,0.0,0.0,0.0,0.0,0.0,0.0,0.0,0.0,0.0,0.0,0.0,0.0,0.0,0.0,0.0,0.0,0.0,0.0,0.0,0.0,0.0,0.0,0.0,0.0,0.0,0.0,0.0,0.0,0.0,0.0,0.0,0.0,0.0,0.0,0.0,0.0,0.0,0.0,0.0,0.0,0.0,0.0,0.0,0.0,0.0,0.0,0.0,0.0,0.0,0.0,0.0,0.0,0.0,0.0,0.0,0.0,0.0,0.0,0.0,0.0,0.0,0.0,0.0,0.0,0.0,0.0,0.0,0.0,0.0,0.0,0.0,0.0,0.0,0.0,0.0,0.0,0.0,0.0,0.0,0.0,0.0,0.0,0.0,0.0,0.0,0.0,0.0,0.0,0.0,0.0,0.0,0.0,0.0,0.0,0.0,0.0,0.0,0.0,0.0,0.0,0.0,0.0,0.0,0.0,0.0,0.0,0.0,0.0,0.0,0.0,0.0,0.0,0.0,0.0,0.0,0.0,0.0,0.0,0.0,0.0,0.0,0.0,0.0,0.0,0.0,0.0,0.0,0.0,0.0,0.0,0.0,0.0,0.0,0.0,0.0,0.0,0.0,0.0,0.0,0.0,0.0,0.0,0.0,0.0,0.0,0.0,0.0,0.0,0.0,0.0,0.0,0.0,0.0,0.0,0.0,0.0,0.0,0.0,0.0,0.0,0.0,0.0,0.0,0.0,0.0,0.0,0.0,0.0,0.0,0.0,0.0,0.0,0.0,0.0,0.0,0.0,0.0,0.0,0.0,0.0,0.0,0.0,0.0,0.0,0.0,0.0,0.0,0.0,0.0,0.0,0.0,0.0,0.0,0.0,0.0,0.0,0.0,0.0,0.0,0.0,0.0,0.0,0.0,0.0,0.0,0.0,0.0,0.0,0.0,0.0,0.0,0.0,0.0,0.0,0.0,0.0,0.0,0.0,0.0,0.0,0.0,0.0,0.0,0.0,0.0,0.0,0.0,0.0,0.0,0.0,0.0,0.0,0.0,0.0,0.0,0.0,0.0,0.0,0.0,0.0,0.0,0.0,0.0,0.0,0.0,0.0,0.0,0.0,0.0,0.0,0.0,0.0,0.0,0.0,0.0,0.0,0.0,0.0,0.0,0.0,0.0,0.0,0.0,0.0,0.0,0.0,0.0,0.0,0.0,0.0,0.0,0.0,0.0,0.0,0.0,0.0,0.0,0.0,0.0,0.0,0.0,0.0,0.0,0.0,0.0,0.0,0.0,0.0,0.0,0.0,0.0,0.0,0.0,0.0,0.0,0.0,0.0,0.0,0.0,0.0,0.0,0.0,0.0,0.0,0.0,0.0,0.0,0.0,0.0,0.0,0.0,0.0,0.0,0.0,0.0,0.0,0.0,0.0,0.0,0.0,0.0,0.0,0.0,0.0,0.0,0.0,0.0,0.0,0.0,0.0,0.0,0.0,0.0,0.0,0.0,0.0,0.0,0.0,0.0,0.0,0.0,0.0,0.0,0.0,0.0,0.0,0.0,0.0,0.0,0.0,0.0,0.0,0.0,0.0,0.0,0.0,0.0,0.0,0.0,0.0,0.0,0.0,0.0,0.0,0.0,0.0,0.0,0.0,0.0,0.0,0.0,0.0,0.0,0.0,0.0,0.0,0.0,0.0,0.0,0.0,0.0,0.0,0.0,0.0,0.0,0.0,0.0,0.0,0.0,0.0,0.0,0.0,0.0,0.0,0.0,0.0,0.0,0.0,0.0,0.0,0.0,0.0,0.0,0.0,0.0,0.0,0.0,0.0,0.0,0.0,0.0,0.0,0.0,0.0,0.0,0.0,0.0,0.0,0.0,0.0,0.0,0.0,0.0,0.0,0.0,0.0,0.0,0.0,0.0,0.0,0.0,0.0,0.0,0.0,0.0,0.0,0.0,0.0,0.0,0.0,0.0,0.0,0.0,0.0,0.0,0.0,0.0,0.0,0.0,0.0,0.0,0.0,0.0,0.0,0.0,0.0,0.0,0.0,0.0,0.0,0.0,0.0,0.0,0.0,0.0,0.0,0.0,0.0,0.0,0.0,0.0,0.0,0.0,0.0,0.0,0.0,0.0,0.0,0.0,0.0,0.0,0.0,0.0,0.0,0.0,0.0,0.0,0.0,0.0,0.0,0.0,0.0,0.0,0.0,0.0,0.0,0.0,0.0,0.0,0.0,0.0,0.0,0.0,0.0,0.0,0.0,0.0,0.0,0.0,0.0,0.0,0.0,0.0,0.0,0.0,0.0,0.0,0.0,0.0,0.0,0.0,0.0,0.0,0.0,0.0,0.0,0.0,0.0,0.0,0.0,0.0,0.0,0.0,0.0,0.0,0.0,0.0,0.0,0.0,0.0,0.0,0.0,0.0,0.0,0.0,0.0,0.0,0.0,0.0,0.0,0.0,0.0,0.0,0.0,0.0,0.0,0.0,0.0,0.0,0.0,0.0,0.0,0.0,0.0,0.0,0.0,0.0,0.0,0.0,0.0,0.0,0.0,0.0,0.0,0.0,0.0,0.0,0.0,0.0,0.0,0.0,0.0,0.0,0.0,0.0,0.0,0.0,0.0,0.0,0.0,0.0,0.0,0.0,0.0,0.0,0.0,0.0,0.0,0.0,0.0,0.0,0.0,0.0,0.0,0.0,0.0,0.0,0.0,0.0,0.0,0.0,0.0,0.0,0.0,0.0,0.0,0.0,0.0,0.0,0.0,0.0,0.0,0.0,0.0,0.0,0.0,0.0,0.0,0.0,0.0,0.0,0.0,0.0,0.0,0.0,0.0,0.0,0.0,0.0,0.0,0.0,0.0,0.0,0.0,0.0,0.0,0.0,0.0,0.0,0.0,0.0,0.0,0.0,0.0,0.0,0.0,0.0,0.0,0.0,0.0,0.0,0.0,0.0,0.0,0.0,0.0,0.0,0.0,0.0,0.0,0.0,0.0,0.0,0.0,0.0,0.0,0.0,0.0,0.0,0.0,0.0,0.0,0.0,0.0,0.0,0.0,0.0,0.0,0.0,0.0,0.0,0.0,0.0,0.0,0.0,0.0,0.0,0.0,0.0,0.0,0.0,0.0,0.0,0.0,0.0,0.0,0.0,0.0,0.0,0.0,0.0,0.0,0.0,0.0,0.0,0.0,0.0,0.0,0.0,0.0,0.0,0.0,0.0,0.0,0.0,0.0,0.0,0.0,0.0,0.0,0.0,0.0,0.0,0.0,0.0,0.0,0.0,0.0,0.0,0.0,0.0,0.0,0.0,0.0,0.0,0.0,0.0,0.0,0.0,0.0,0.0,0.0,0.0,0.0,0.0,0.0,0.0,0.0,0.0,0.0,0.0,0.0,0.0,0.0,0.0,0.0,0.0,0.0,0.0,0.0,0.0,0.0,0.0,0.0,0.0,0.0,0.0,0.0,0.0,0.0,0.0,0.0,0.0,0.0,0.0,0.0,0.0,0.0,0.0,0.0,0.0,0.0,0.0,0.0,0.0,0.0,0.0,0.0,0.0,0.0,0.0,0.0,0.0,0.0,0.0,0.0,0.0,0.0,0.0,0.0,0.0,0.0,0.0,0.0,0.0,0.0,0.0,0.0,0.0,0.0,0.0,0.0,0.0,0.0,0.0,0.0,0.0,0.0,0.0,0.0,0.0,0.0,0.0,0.0,0.0,0.0,0.0,0.0,0.0,0.0,0.0,0.0,0.0,0.0,0.0,0.0,0.0,0.0,0.0,0.0,0.0,0.0,0.0,0.0,0.0,0.0,0.0,0.0,0.0,0.0,0.0,0.0,0.0,0.0,0.0,0.0,0.0,0.0,0.0,0.0,0.0,0.0,0.0,0.0,0.0,0.0,0.0,0.0,0.0,0.0,0.0,0.0,0.0,0.0,0.0,0.0,0.0,0.0,0.0,0.0,0.0,0.0,0.0,0.0,0.0,0.0,0.0,0.0,0.0,0.0,0.0,0.0,0.0,0.0,0.0,0.0,0.0,0.0,0.0,0.0,0.0,0.0,0.0,0.0,0.0,0.0,0.0,0.0,0.0,0.0,0.0,0.0,0.0,0.0,0.0,0.0,0.0,0.0,0.0,0.0,0.0,0.0,0.0,0.0,0.0,0.0,0.0,0.0,0.0,0.0,0.0,0.0,0.0,0.0,0.0,0.0,0.0,0.0,0.0,0.0,0.0,0.0,0.0,0.0,0.0,0.0,0.0,0.0,0.0,0.0,0.0,0.0,0.0,0.0,0.0,0.0,0.0,0.0,0.0,0.0,0.0,0.0,0.0,0.0,0.0,0.0,0.0,0.0,0.0,0.0,0.0,0.0,0.0,0.0,0.0,0.0,0.0,0.0,0.0,0.0,0.0,0.0,0.0,0.0,0.0,0.0,0.0,0.0,0.0,0.0,0.0,0.0,0.0,0.0,0.0,0.0,0.0,0.0,0.0,0.0,0.0,0.0,0.0,0.0,0.0,0.0,0.0,0.0,0.0,0.0,0.0,0.0,0.0,0.0,0.0,0.0,0.0,0.0,0.0,0.0,0.0,0.0,0.0,0.0,0.0,0.0,0.0,0.0,0.0,0.0,0.0,0.0,0.0,0.0,0.0,0.0,0.0,0.0,0.0,0.0,0.0,0.0,0.0,0.0,0.0,0.0,0.0,0.0,0.0,0.0,0.0,0.0,0.0,0.0,0.0,0.0,0.0,0.0,0.0,0.0,0.0,0.0,0.0,0.0,0.0,0.0,0.0,0.0,0.0,0.0,0.0,0.0,0.0,0.0,0.0,0.0,0.0,0.0,0.0,0.0,0.0,0.0,0.0,0.0,0.0,0.0,0.0,0.0,0.0,0.0,0.0,0.0,0.0,0.0,0.0,0.0,0.0,0.0,0.0,0.0,0.0,0.0,0.0,0.0,0.0,0.0,0.0,0.0,0.0,0.0,0.0,0.0,0.0,0.0,0.0,0.0,0.0,0.0,0.0,0.0,0.0,0.0,0.0,0.0,0.0,0.0,0.0,0.0,0.0,0.0,0.0,0.0,0.0,0.0,0.0,0.0,0.0,0.0,0.0,0.0,0.0,0.0,0.0,0.0,0.0,0.0,0.0,0.0,0.0,0.0,0.0,0.0,0.0,0.0,0.0,0.0,0.0,0.0,0.0,0.0,0.0,0.0,0.0,0.0,0.0,0.0,0.0,0.0,0.0,0.0,0.0,0.0,0.0,0.0,0.0,0.0,0.0,0.0,0.0,0.0,0.0,0.0,0.0,0.0,0.0,0.0,0.0,0.0,0.0,0.0,0.0,0.0,0.0,0.0,0.0,0.0,0.0,0.0,0.0,0.0,0.0,0.0,0.0,0.0,0.0,0.0,0.0,0.0,0.0,0.0,0.0,0.0,0.0,0.0,0.0,0.0,0.0,0.0,0.0,0.0,0.0,0.0,0.0,0.0,0.0,0.0,0.0,0.0,0.0,0.0,0.0,0.0,0.0,0.0,0.0,0.0,0.0,0.0,0.0,0.0,0.0,0.0,0.0,0.0,0.0,0.0,0.0,0.0,0.0,0.0,0.0,0.0,0.0,0.0,0.0,0.0,0.0,0.0,0.0,0.0,0.0,0.0,0.0,0.0,0.0,0.0,0.0,0.0,0.0,0.0,0.0,0.0,0.0,0.0,0.0,0.0,0.0,0.0,0.0,0.0,0.0,0.0,0.0,0.0,0.0,0.0,0.0,0.0,0.0,0.0,0.0,0.0,0.0,0.0,-3.4728,-3.3681,0.0,0.0,0.0,0.0,0.0,0.0,0.0,0.0,0.0,0.0,0.0,0.0,0.0,0.0,0.0,0.0,0.0,0.0,0.0,0.0,0.0,0.0,0.0,0.0,0.0,0.0,0.0,0.0,0.0,0.0,0.0,0.0,0.0,0.0,0.0,0.0,0.0,-2.2889,-2.2889,-2.3004,-2.3247,-2.3416,-2.312,-2.2434,0.0,0.0,0.0,0.0,0.0,0.0,0.0,0.0,0.0,0.0,0.0,0.0,0.0,0.0,0.0,0.0,0.0,0.0,0.0,0.0,0.0,0.0,0.0,0.0,0.0,0.0,0.0,0.0,0.0,0.0,0.0,0.0,0.0,0.0,0.0,0.0,0.0,0.0,0.0,0.0,0.0,0.0,0.0,0.0,0.0,0.0,0.0,0.0,0.0,0.0,0.0,0.0,0.0,0.0,0.0,0.0,0.0,0.0,0.0,0.0,0.0,0.0,0.0,0.0,0.0,0.0,0.0,0.0,0.0,0.0,-3.7061,-3.5861,0.0,0.0,0.0,0.0,0.0,0.0,0.0,0.0,0.0,0.0,0.0,0.0,0.0,0.0,0.0,0.0,0.0,0.0,0.0,0.0,0.0,0.0,0.0,-2.1712,-2.1841,-2.1841,-2.1902,-2.1996,0.0,0.0,0.0,0.0,0.0,0.0,0.0,-2.2356,-2.2799,-2.3595,-2.3422,-2.4013,-2.5243,-2.55,-2.4985,-2.3753,-2.3166,0.0,0.0,0.0,0.0,0.0,0.0,0.0,0.0,0.0,0.0,0.0,0.0,0.0,0.0,0.0,0.0,0.0,0.0,0.0,0.0,0.0,0.0,0.0,0.0,0.0,0.0,0.0,0.0,0.0,0.0,0.0,0.0,0.0,0.0,0.0,0.0,0.0,0.0,0.0,0.0,0.0,0.0,0.0,0.0,0.0,0.0,0.0,0.0,0.0,0.0,0.0,0.0,0.0,0.0,0.0,0.0,0.0,0.0,0.0,0.0,0.0,0.0,0.0,-4.4817,-4.4384,-4.2919,-4.2801,-4.262,-4.2386,-4.0662,-3.9524,-3.8754,-3.74,0.0,0.0,0.0,0.0,0.0,0.0,0.0,0.0,0.0,0.0,0.0,0.0,0.0,0.0,0.0,0.0,0.0,0.0,0.0,0.0,0.0,-2.1996,-2.2137,-2.2137,-2.237,-2.2324,-2.1888,0.0,0.0,0.0,0.0,0.0,-2.2184,-2.2979,-2.3465,-2.3595,-2.4595,-2.6038,-2.7915,-2.7769,-2.8189,-2.8891,-2.6426,-2.5565,-2.5916,0.0,0.0,0.0,0.0,0.0,0.0,0.0,0.0,0.0,0.0,0.0,0.0,0.0,0.0,0.0,0.0,0.0,0.0,0.0,0.0,0.0,0.0,0.0,0.0,0.0,0.0,0.0,0.0,0.0,0.0,0.0,0.0,0.0,0.0,0.0,0.0,0.0,0.0,0.0,0.0,0.0,-3.7873,-3.7069,0.0,0.0,0.0,0.0,0.0,0.0,0.0,0.0,0.0,0.0,0.0,0.0,0.0,-4.3388,-4.4803,-4.6414,-4.7166,-4.7046,-4.8354,-4.8433,-4.7314,-4.6633,-4.6176,-4.5926,-4.5649,0.0,-4.0155,-3.88,0.0,0.0,0.0,0.0,0.0,0.0,0.0,0.0,0.0,0.0,0.0,0.0,0.0,0.0,0.0,0.0,0.0,0.0,0.0,0.0,0.0,-2.2184,-2.237,-2.2231,-2.2616,-2.2625,-2.2058,-2.2635,0.0,0.0,0.0,-2.3009,-2.2979,-2.3377,-2.4115,-2.515,-2.6332,-2.7826,-2.95,-2.9569,-3.0123,-3.1071,-2.9621,-2.8329,-2.7096,-2.6527,0.0,0.0,0.0,0.0,0.0,0.0,0.0,0.0,0.0,0.0,0.0,0.0,0.0,0.0,0.0,0.0,0.0,0.0,0.0,0.0,0.0,0.0,0.0,0.0,0.0,0.0,0.0,0.0,0.0,0.0,0.0,0.0,0.0,0.0,0.0,0.0,0.0,0.0,0.0,-3.7619,-3.8807,-3.6789,-3.8339,-3.869,0.0,0.0,0.0,0.0,0.0,0.0,0.0,0.0,0.0,-4.4527,-4.5734,-4.7079,-4.8614,-5.0096,-5.0824,-5.0826,-5.1229,-5.0959,-4.9897,-4.9474,-4.9161,-4.8881,-4.8496,-4.7096,-4.488,-4.2386,-4.057,-3.917,0.0,0.0,0.0,0.0,-3.5928,-3.5422,0.0,0.0,0.0,0.0,0.0,0.0,0.0,0.0,0.0,0.0,0.0,0.0,-2.1902,-2.2419,-2.2705,-2.2658,-2.305,-2.3087,-2.2498,-2.3134,-2.323,-2.248,-2.3172,-2.3595,-2.3653,-2.407,-2.506,-2.6641,-2.814,-2.9653,-3.1106,-3.1546,-3.2189,-3.294,-3.2661,-3.1165,-2.8786,-2.8113,-2.6991,-2.5585,0.0,0.0,0.0,0.0,0.0,0.0,0.0,0.0,0.0,0.0,0.0,0.0,0.0,0.0,0.0,0.0,0.0,0.0,0.0,0.0,0.0,0.0,0.0,0.0,0.0,0.0,0.0,0.0,0.0,0.0,0.0,0.0,0.0,0.0,0.0,0.0,0.0,-3.8399,-3.9625,-3.6654,-3.9415,-4.0443,0.0,0.0,0.0,0.0,0.0,0.0,-4.3975,-4.4941,-4.6234,-4.7993,-4.9493,-5.0875,-5.2203,-5.3129,-5.3528,-5.3452,-5.2971,-5.2356,-5.1499,-5.1173,-5.0762,-5.0405,-4.9712,-4.9112,-4.8373,-4.5341,-4.3402,-4.2109,-3.9554,-3.8846,-3.9143,-3.7734,-3.7301,-3.7313,0.0,0.0,0.0,0.0,0.0,0.0,0.0,0.0,0.0,0.0,0.0,-2.1616,-2.2137,-2.2704,-2.3297,-2.3786,-2.3829,-2.3626,-2.3104,-2.3283,-2.3083,-2.2314,-2.345,-2.3994,-2.3782,-2.5345,-2.6535,-2.7349,-2.9843,-3.1763,-3.3077,-3.4046,-3.4889,-3.5492,-3.5344,-3.4173,-3.2108,-2.9609,-2.8487,-2.8188,-2.5644,0.0,0.0,0.0,0.0,0.0,0.0,0.0,0.0,0.0,0.0,0.0,0.0,0.0,0.0,0.0,0.0,0.0,0.0,0.0,0.0,0.0,0.0,0.0,0.0,0.0,0.0,0.0,0.0,0.0,0.0,0.0,0.0,0.0,0.0,0.0,0.0,0.0,0.0,-3.6749,-4.1526,0.0,0.0,0.0,0.0,-4.394,-4.4061,-4.4785,-4.6355,-4.7803,-4.9614,-5.1873,-5.3425,-5.4586,-5.5277,-5.4684,-5.4207,-5.3858,-5.3101,-5.2473,-5.1924,-5.1273,-5.0569,-4.9697,-4.8974,-4.8635,-4.845,-4.6357,-4.5064,-4.4233,-4.2186,-4.1417,-4.1355,-4.0608,-3.9316,-3.8057,0.0,0.0,0.0,0.0,0.0,0.0,0.0,0.0,-1.988,-2.0415,-2.1296,-2.2183,-2.297,-2.3355,-2.3813,-2.4244,-2.4258,-2.3975,-2.343,-2.3754,-2.3718,-2.3157,-2.3909,-2.4476,-2.4777,-2.6213,-2.778,-2.9335,-3.1341,-3.3069,-3.4514,-3.4964,-3.5379,-3.5688,-3.5554,-3.534,-3.4921,-3.2691,-3.0776,-2.9071,-2.726,-2.5869,0.0,0.0,0.0,0.0,0.0,0.0,0.0,0.0,0.0,0.0,0.0,0.0,0.0,0.0,0.0,0.0,0.0,0.0,0.0,0.0,0.0,0.0,0.0,0.0,0.0,0.0,0.0,0.0,0.0,0.0,0.0,0.0,0.0,0.0,0.0,0.0,0.0,-4.1595,-4.5096,0.0,-4.3647,-4.4596,-4.5889,-4.7113,-4.8114,-4.9562,-5.158,-5.2649,-5.3804,-5.5132,-5.615,-5.6575,-5.6237,-5.5479,-5.4689,-5.3954,-5.2944,-5.2145,-5.1351,-5.1395,-5.1046,-5.0297,-4.9605,-4.9297,-4.922,-4.8019,-4.6619,-4.5157,-4.4449,-4.3371,-4.2252,-4.2288,-4.154,-4.0408,0.0,0.0,0.0,0.0,0.0,0.0,0.0,0.0,-1.9925,-2.0505,-2.1435,-2.2507,-2.3726,-2.3985,-2.4341,-2.4876,-2.4718,-2.4215,-2.3367,-2.3628,-2.361,-2.3035,-2.4204,-2.5106,-2.5641,-2.7688,-2.9496,-3.0959,-3.273,-3.4211,-3.5385,-3.5655,-3.5718,-3.5653,-3.5718,-3.5924,-3.6088,-3.4981,-3.3245,-3.1106,-2.9535,-2.8248,-2.7066,0.0,0.0,0.0,0.0,0.0,0.0,0.0,0.0,0.0,0.0,0.0,0.0,0.0,0.0,0.0,0.0,0.0,0.0,0.0,0.0,0.0,0.0,0.0,0.0,0.0,0.0,0.0,0.0,0.0,0.0,0.0,0.0,0.0,0.0,-4.3388,-4.5613,-4.513,-4.8648,-5.0114,-4.7596,-4.851,-4.9786,-5.1011,-5.2063,-5.3408,-5.5184,-5.5995,-5.6633,-5.715,-5.7604,-5.7341,-5.6337,-5.5487,-5.443,-5.3113,-5.2345,-5.1616,-5.0925,-5.0999,-5.0774,-5.0313,-4.962,-4.9328,-4.9281,-4.8804,-4.7696,-4.6249,-4.6018,-4.5126,-4.3927,-4.3775,-4.2936,-4.1699,0.0,0.0,0.0,0.0,0.0,0.0,0.0,-1.8927,-1.9775,-1.9968,-2.1047,-2.2518,-2.4291,-2.4455,-2.4848,-2.5734,-2.5183,-2.4268,-2.3067,-2.2924,-2.2606,-2.2024,-2.4271,-2.579,-2.635,-2.9689,-3.161,-3.2143,-3.4005,-3.5187,-3.567,-3.6153,-3.6054,-3.5504,-3.6085,-3.6037,-3.5579,-3.6237,-3.5774,-3.4427,-3.2422,-3.1195,-3.0283,0.0,0.0,0.0,0.0,0.0,0.0,0.0,0.0,0.0,0.0,0.0,0.0,0.0,0.0,0.0,0.0,0.0,0.0,0.0,0.0,0.0,0.0,0.0,0.0,0.0,0.0,0.0,0.0,0.0,0.0,0.0,0.0,0.0,-4.1043,-4.5579,-4.839,-4.7027,-5.2063,-5.4512,-5.1597,-5.3304,-5.4908,-5.5667,-5.5701,-5.6029,-5.684,-5.7547,-5.7943,-5.7943,-5.7888,-5.7077,-5.5579,-5.4718,-5.3261,-5.1318,-5.1303,-5.1049,-5.0605,-4.9974,-4.9682,-4.962,-4.8912,-4.862,-4.862,-4.862,-4.8204,-4.7542,-4.688,-4.6603,-4.6403,-4.5095,-4.3457,-4.1742,0.0,0.0,0.0,0.0,0.0,0.0,0.0,-1.9414,-1.9775,-1.9968,-2.123,-2.271,-2.434,-2.4055,-2.4247,-2.5422,-2.4482,-2.3587,-2.2947,-2.2869,-2.3117,-2.3748,-2.5315,-2.6826,-2.8308,-3.0234,-3.1741,-3.2762,-3.3636,-3.4348,-3.5003,-3.5014,-3.5202,-3.5504,-3.5683,-3.5954,-3.6267,-3.6881,-3.721,-3.709,-3.4651,-3.2976,-3.1734,0.0,0.0,0.0,0.0,0.0,0.0,0.0,0.0,0.0,0.0,0.0,0.0,0.0,0.0,0.0,0.0,0.0,0.0,0.0,0.0,0.0,0.0,0.0,0.0,0.0,0.0,0.0,0.0,0.0,0.0,0.0,-4.1336,-4.3751,-4.4872,-4.8183,-5.0942,-5.2183,-5.4787,-5.6357,-5.6064,-5.6115,-5.6702,-5.7978,-5.7581,-5.7616,-5.8357,-5.8599,-5.8719,-5.8719,-5.8686,-5.7929,-5.6299,-5.5088,-5.3385,-5.1365,-5.0835,-5.0071,-4.9204,-4.9528,-4.9404,-4.8897,-4.8696,-4.862,-4.862,-4.862,-4.8204,-4.7588,-4.7404,-4.6726,-4.574,-4.4792,-4.2931,-4.0845,0.0,0.0,0.0,0.0,0.0,0.0,0.0,-1.9836,-2.013,-2.034,-2.1338,-2.2662,-2.434,-2.3786,-2.38,-2.4897,-2.3889,-2.2804,-2.2062,-2.2263,-2.3036,-2.4451,-2.5918,-2.7607,-2.951,-3.0845,-3.2104,-3.3315,-3.3576,-3.4152,-3.4968,-3.4848,-3.5049,-3.5437,-3.5736,-3.5943,-3.6118,-3.6746,-3.7389,-3.7868,-3.6611,-3.5654,-3.4681,-3.1869,-3.0885,-3.0743,-2.8951,-2.902,-2.9834,-2.8668,0.0,0.0,0.0,0.0,0.0,0.0,0.0,0.0,0.0,0.0,0.0,0.0,0.0,0.0,0.0,0.0,0.0,0.0,0.0,0.0,0.0,0.0,0.0,0.0,-4.3975,-4.6941,-4.9148,-5.1235,-5.3373,-5.565,-5.7288,-5.8392,-5.8823,-5.8478,-5.8581,-5.9444,-5.8806,-5.8564,-5.8995,-5.9012,-5.9012,-5.9012,-5.8341,-5.7277,-5.5762,-5.4211,-5.2514,-5.0657,-5.0153,-4.9501,-4.8816,-4.9134,-4.9004,-4.862,-4.862,-4.862,-4.8589,-4.8312,-4.7958,0.0,0.0,0.0,0.0,0.0,-4.2446,-4.11,0.0,0.0,0.0,0.0,0.0,0.0,0.0,-2.017,-2.0574,-2.0804,-2.142,-2.2442,-2.4141,-2.342,-2.3231,-2.4198,-2.3079,-2.1869,-2.0852,-2.1554,-2.2768,-2.457,-2.6489,-2.8431,-3.0372,-3.1506,-3.2547,-3.3568,-3.3634,-3.4145,-3.5005,-3.5005,-3.5127,-3.5293,-3.5951,-3.5997,-3.5664,-3.6274,-3.6791,-3.7345,-3.7943,-3.8212,-3.7898,-3.4397,-3.329,-3.329,-3.1035,-3.0371,-3.0472,-3.0169,0.0,0.0,0.0,0.0,0.0,0.0,0.0,0.0,0.0,0.0,0.0,0.0,0.0,0.0,0.0,0.0,0.0,0.0,0.0,0.0,0.0,0.0,0.0,0.0,-4.6837,-5.0269,-5.3356,-5.4425,-5.5667,-5.7771,-5.9306,-6.0271,-6.0444,-6.0289,-6.022,-6.0323,-5.9513,-5.9012,-5.9012,-5.8926,0.0,0.0,0.0,-5.5922,-5.4658,-5.2964,-5.1289,-4.9723,-4.9484,-4.921,-4.8996,-4.8718,-4.862,-4.862,-4.862,-4.8573,-4.845,-4.785,-4.7511,-4.7327,-4.6726,-4.5986,-4.5076,-4.2931,-4.199,-4.1645,0.0,0.0,0.0,0.0,0.0,0.0,0.0,-2.0427,-2.0541,-2.0588,-2.128,-2.2131,-2.3041,-2.206,-2.1791,-2.3027,-2.1537,-2.0583,-2.0795,-2.223,-2.3848,-2.547,-2.8168,-3.0258,-3.1627,-3.2261,-3.2598,-3.2734,-3.2766,-3.287,-3.3033,-3.3325,-3.404,-3.5079,-3.543,-3.5814,-3.635,-3.6572,-3.6737,-3.6857,-3.6709,-3.6999,-3.7524,-3.6746,-3.5549,-3.422,-3.3307,-3.3381,-3.3607,-3.2191,-3.2035,-3.2283,-3.1554,-3.0117,0.0,0.0,0.0,0.0,0.0,0.0,0.0,0.0,0.0,0.0,0.0,0.0,0.0,0.0,0.0,0.0,0.0,0.0,0.0,-4.7027,-4.989,-5.2632,-5.5719,-5.6788,-5.7633,-5.8668,-5.9616,-6.0685,-6.191,-6.0927,-6.0444,-6.1047,-5.9806,-5.9012,-5.9012,-5.8443,-5.8392,-5.8995,-5.6948,-5.562,-5.5314,-5.3221,-5.1626,-5.0476,0.0,0.0,-4.8996,-4.8718,-4.862,-4.862,-4.862,-4.8296,-4.7788,-4.765,-4.6957,-4.5957,-4.5834,-4.4952,-4.3702,-4.325,-4.2111,-4.0859,0.0,0.0,0.0,0.0,0.0,0.0,0.0,-2.0928,-2.0928,-2.0928,-2.1329,-2.1774,-2.2235,-2.1354,-2.1005,-2.1766,-2.0292,-1.9666,-2.05,-2.2424,-2.4393,-2.6385,-2.8746,-3.0576,-3.1868,-3.1682,-3.1732,-3.2018,-3.215,-3.2251,-3.2337,-3.3244,-3.4068,-3.4818,-3.5559,-3.6117,-3.6507,-3.6273,-3.6396,-3.6661,-3.6328,-3.6454,-3.676,-3.6514,-3.6043,-3.5464,-3.5042,-3.5059,-3.5198,-3.4163,-3.3836,-3.371,-3.2943,-3.1701,-3.0352,0.0,0.0,0.0,0.0,0.0,0.0,0.0,0.0,0.0,0.0,0.0,0.0,0.0,0.0,-3.8698,-4.1009,0.0,-4.5975,-4.9407,-5.195,-5.4247,-5.6477,-5.751,-5.8407,-5.9478,-5.9961,-6.0651,-6.1789,-6.0858,-6.034,-6.072,-5.9668,-5.8857,-5.8478,-5.8461,-5.8288,-5.7926,-5.6788,-5.5656,-5.4468,-5.2937,-5.1531,-5.0308,-4.9689,-4.9356,-4.9144,-4.8898,-4.8718,-4.8604,-4.8266,-4.7912,-4.7558,-4.688,-4.6003,-4.508,-4.508,-4.4634,-4.3927,-4.3442,-4.2452,-4.1212,0.0,0.0,0.0,0.0,0.0,0.0,0.0,-2.1277,-2.1375,-2.1375,-2.1375,-2.1471,-2.1712,-2.0893,-2.0329,-2.0309,-1.9361,-1.9228,-2.0226,-2.2559,-2.4846,-2.707,-2.8946,-3.0503,-3.1697,-3.1001,-3.0857,-3.1424,-3.1712,-3.1853,-3.1936,-3.3395,-3.4263,-3.4605,-3.577,-3.6416,-3.6476,-3.5958,-3.6004,-3.6385,-3.6067,-3.5933,-3.5941,-3.5568,-3.5833,-3.6289,-3.6042,-3.573,-3.5398,-3.5309,-3.4829,-3.4214,-3.3906,-3.3191,-3.2238,-3.1061,-3.1166,0.0,0.0,0.0,0.0,0.0,0.0,0.0,0.0,-3.5973,-3.6904,-3.9043,-4.0181,-4.1664,-4.4475,-4.6754,-4.8946,-5.1242,-5.3662,-5.5646,-5.6681,-5.778,-5.8801,-5.9979,-6.0168,-6.0496,-6.1237,-6.0634,-6.0202,-6.0202,-5.9461,-5.8754,-5.815,-5.8426,-5.8167,-5.7253,-5.6667,-5.5468,-5.3606,-5.2638,-5.141,-4.9916,-4.9677,-4.9517,-4.9275,-4.9062,-4.8738,-4.8373,-4.7573,-4.7219,-4.7111,-4.5895,-4.5064,-4.4572,-4.4572,-4.4572,-4.4496,-4.3849,-4.2966,-4.214,0.0,0.0,0.0,0.0,0.0,0.0,0.0,0.0,-2.1229,-2.1229,-2.1326,-2.1423,-2.1423,-2.0446,-1.9361,-1.8317,-1.8936,-1.9674,-2.0253,-2.2967,-2.5367,-2.7273,-2.9319,-3.0749,-3.1495,-3.1218,-3.1058,-3.1132,-3.119,-3.119,-3.1249,-3.2676,-3.3694,-3.4417,-3.5743,-3.6507,-3.6646,-3.6117,-3.5653,-3.5353,-3.4986,-3.4934,-3.5038,-3.5177,-3.5404,-3.5674,-3.5812,-3.4758,-3.3393,-3.4281,-3.4106,-3.3721,-3.4891,-3.4796,-3.3959,-3.2858,-3.1568,-3.0551,-3.0351,-3.1438,-3.2865,-3.3853,-3.459,-3.6128,0.0,-4.0664,-4.0698,-4.2319,-4.3785,-4.5303,-4.7138,-4.8837,-5.0691,-5.2978,-5.5407,-5.7034,-5.6997,-5.8279,-5.9334,-5.9659,-5.9995,-6.0496,-6.1237,-6.0634,-6.0202,-6.0202,-5.9461,-5.8978,-5.8892,-5.7719,-5.7581,-5.8737,-5.6167,-5.4633,-5.4409,-5.2959,-5.141,-4.9916,-4.9677,-4.9517,-4.9275,-4.9062,-4.8573,-4.765,-4.6372,-4.5818,-4.5757,-4.5003,-4.4649,-4.4572,-4.4572,-4.4572,-4.4572,-4.4496,-4.3927,-4.3046,0.0,0.0,0.0,0.0,0.0,0.0,0.0,0.0,0.0,-2.1082,-2.1131,-2.118,-2.118,-2.0442,-1.9535,-1.8296,-1.8866,-1.9655,-2.0523,-2.2877,-2.5246,-2.7428,-2.9226,-3.0524,-3.1219,-3.1132,-3.1087,-3.1087,-3.1234,-3.1368,-3.1527,-3.3254,-3.4278,-3.4805,-3.6354,-3.6883,-3.6646,-3.6117,-3.5383,-3.4634,-3.467,-3.4596,-3.433,-3.414,-3.3958,-3.3847,-3.3608,-3.2561,0.0,-3.1459,-3.1597,-3.1828,-3.2798,-3.2977,-3.2671,-3.1856,-3.1997,-3.2482,-3.2833,-3.3715,-3.4652,-3.5077,-3.7165,-3.9646,-4.1561,-4.244,-4.3473,-4.5529,-4.6357,-4.741,-4.9569,-5.0835,-5.2049,-5.3497,-5.5471,-5.669,-5.653,-5.7468,-5.8072,-5.7654,-5.8133,-5.8782,-5.9408,-5.9115,-5.8857,-5.8857,-5.8961,-5.8633,-5.7771,-5.7961,-5.7564,-5.6426,-5.6029,-5.4974,-5.3191,-5.2506,-5.141,-4.9916,-4.9426,-4.9016,-4.8698,-4.8197,-4.74,-4.6388,-4.5834,-4.5357,-4.4987,-4.4695,-4.4572,-4.4541,-4.4141,-4.3987,-4.4033,-4.4433,-4.402,-4.3205,0.0,0.0,0.0,0.0,0.0,0.0,0.0,0.0,0.0,0.0,-2.0997,-2.093,-2.082,-2.042,-1.9701,-1.8498,-1.879,-1.9449,-2.0447,-2.2379,-2.4527,-2.6903,-2.8559,-2.9868,-3.0702,-3.0895,-3.0955,-3.0955,-3.1161,-3.1368,-3.1616,-3.3367,-3.4258,-3.4553,-3.6199,-3.6631,-3.6117,-3.5785,-3.5145,-3.4257,-3.4493,-3.4369,-3.3952,-3.3158,-3.2348,-3.1546,-3.1218,-3.0243,-2.9149,-2.8962,-2.9231,-2.977,-3.067,-3.1124,-3.1306,-3.0927,-3.2003,-3.3453,-3.4157,-3.5283,-3.6435,-3.6979,-3.9907,-4.2783,-4.3197,-4.4319,-4.5735,-4.7555,-4.7966,-4.8622,-5.0606,-5.1489,-5.2323,-5.3356,-5.4999,-5.6143,-5.615,-5.678,-5.6868,-5.6055,-5.6203,-5.6512,-5.7005,-5.7417,-5.7665,-5.7598,-5.8099,-5.7926,-5.6857,-5.7616,-5.7167,-5.5201,-5.5592,-5.4788,-5.2577,-5.2092,-5.1203,-4.9916,-4.941,-4.8859,-4.8261,-4.72,-4.6361,-4.5572,-4.5387,-4.4926,-4.4295,-4.4295,-4.4202,-4.3987,-4.3494,-4.331,-4.3356,-4.3848,-4.364,-4.2995,0.0,0.0,0.0,0.0,0.0,0.0,0.0,0.0,0.0,0.0,0.0,0.0,0.0,-2.0227,-1.9701,-1.8498,-1.8719,-1.9172,-1.9786,-2.1237,-2.3102,-2.5453,-2.7148,-2.8636,-2.9794,-3.0326,-3.0642,-3.0642,-3.0628,-3.078,-3.1054,-3.2213,-3.2888,-3.3252,-3.4762,-3.519,-3.4662,-3.5088,-3.4905,-3.4385,-3.4414,-3.4222,-3.3829,-3.2562,-3.0713,-2.8839,-2.8949,-2.8187,-2.7222,-2.7473,-2.7582,-2.7829,-2.9306,-3.0226,-3.0756,-3.0923,-3.1484,-3.2245,-3.3168,-3.5565,-3.8359,-4.0383,-4.259,-4.4647,-4.6291,-4.7136,-4.7631,-4.7865,-4.8453,-4.9084,-4.9499,-5.0165,-5.1161,-5.27,-5.439,-5.5746,-5.6283,-5.6423,-5.6221,-5.5571,-5.458,-5.4025,-5.4179,-5.5939,-5.6984,-5.6822,-5.6857,-5.6857,-5.6805,-5.6115,-5.6029,-5.6702,-5.4616,-5.3481,-5.3357,-5.1876,-5.0739,-4.9916,-4.99,-4.9315,-4.8261,-4.6469,-4.5603,-4.5541,-4.4895,-4.4218,-4.3602,-4.3602,-4.3233,-4.2663,-4.2648,-4.2633,-4.2633,-4.2663,-4.2663,-4.2502,0.0,0.0,0.0,0.0,0.0,0.0,0.0,0.0,0.0,0.0,0.0,0.0,0.0,0.0,0.0,0.0,-1.9481,-1.9677,-1.9558,-2.0883,-2.2236,-2.3519,-2.5266,-2.6802,-2.8024,-2.8926,-2.9533,-2.9913,-2.9913,-3.0162,-3.0694,-3.1449,-3.2072,-3.2645,-3.3461,-3.3736,-3.3703,-3.4032,-3.393,-3.3398,-3.3194,-3.2966,-3.2444,-3.0219,-2.8896,-2.7966,0.0,-2.5194,-2.4553,-2.4287,-2.4803,-2.5761,-2.6738,-2.7592,-2.8433,-2.984,-3.083,-3.2128,-3.511,-3.7448,-3.9631,-4.2142,-4.4829,-4.6948,-4.7472,-4.8217,-4.8653,-4.8276,-4.7456,-4.683,-4.6597,-4.7945,-4.9467,-5.0572,-5.2958,-5.4981,-5.5729,-5.5834,-5.5343,-5.4121,-5.4057,-5.3737,-5.27,-5.3905,-5.5178,-5.6154,-5.6094,-5.6012,-5.6012,-5.6253,-5.6064,-5.5305,-5.4977,-5.4412,-5.3396,-5.234,-5.1443,-5.0663,-4.8983,-4.7746,-4.6873,-4.5557,-4.4679,-4.4233,-4.4002,-4.3541,-4.294,-4.294,-4.2802,-4.2571,-4.2109,-4.194,-4.1878,-4.1401,-4.1232,-4.1198,0.0,0.0,0.0,0.0,0.0,0.0,0.0,0.0,0.0,0.0,0.0,0.0,0.0,0.0,0.0,0.0,0.0,-1.9535,-1.923,-2.02,-2.1121,-2.2021,-2.3704,-2.5146,-2.6163,-2.722,-2.7933,-2.8282,-2.8552,-2.8914,-2.938,-3.0128,-3.0793,-3.1353,-3.1976,-3.2306,-3.2393,-3.2609,-3.2407,-3.1854,-3.1618,-3.1141,-3.0352,-2.8311,-2.724,0.0,-2.4422,-2.355,-2.3343,-2.3002,-2.367,-2.4755,-2.5556,-2.6518,-2.7699,-2.9467,-3.0924,-3.269,-3.6252,-3.8983,-4.146,-4.3877,-4.6578,-4.8709,-4.8913,-4.8882,-4.8711,-4.8033,-4.6375,-4.4876,-4.4366,-4.5597,-4.7033,-4.7906,-5.0399,-5.2716,-5.4068,-5.4261,-5.4103,-5.3647,-5.377,-5.3572,-5.2757,-5.284,-5.3549,-5.4953,-5.5127,-5.5219,-5.5219,-5.5701,-5.5529,-5.4546,-5.4686,-5.4359,-5.3382,-5.2366,-5.1312,-5.0278,-4.8322,-4.6981,-4.6171,-4.5184,-4.4278,-4.3571,-4.3571,-4.3063,-4.2248,-4.2248,-4.2094,-4.1817,-4.1386,-4.1217,-4.1155,-4.0693,-4.0524,-4.0578,0.0,0.0,0.0,0.0,0.0,0.0,0.0,0.0,0.0,0.0,0.0,0.0,0.0,0.0,0.0,0.0,0.0,0.0,-1.8796,-1.9189,-1.9822,-2.0908,-2.2502,-2.3636,-2.4231,-2.5315,-2.592,-2.5948,-2.6539,-2.6945,-2.7179,-2.8367,-2.9018,-2.9331,-3.0237,-3.0646,-3.0685,-3.0736,-3.0497,-2.9968,-2.9755,-2.9034,-2.7933,-2.6792,-2.5798,-2.4743,-2.3605,-2.3372,-2.3663,-2.3663,-2.4162,-2.4951,-2.5894,-2.7162,-2.8537,-2.9975,-3.1823,-3.3958,-3.6713,-4.0255,-4.3676,-4.567,-4.7969,-4.9797,-5.0314,-4.9112,-4.7735,-4.7107,-4.5082,-4.3278,-4.2665,-4.3272,-4.4115,-4.4957,-4.7116,-4.9504,-5.1803,-5.2172,-5.2716,-5.4138,-5.3664,-5.3506,-5.4173,-5.2849,-5.2393,-5.3541,-5.4119,-5.4425,-5.4512,-5.4512,-5.4512,-5.4512,-5.3815,-5.3466,-5.3466,-5.1971,-5.0386,-4.8873,-4.7979,-4.7134,-4.6171,-4.5228,-4.4397,-4.3571,-4.3525,-4.2802,-4.1648,-4.1617,-4.1201,-4.0586,-4.0539,-4.0524,-4.0524,-4.0524,-4.0524,-4.0524,0.0,0.0,0.0,0.0,0.0,0.0,0.0,0.0,0.0,0.0,0.0,0.0,0.0,0.0,0.0,0.0,0.0,0.0,-1.8696,-1.9034,-1.9121,-1.879,-2.0552,-2.1745,-2.214,-2.3575,-2.4488,-2.4948,-2.5211,-2.5303,-2.5293,-2.6112,-2.6505,-2.6527,-2.6823,-2.7318,-2.8003,-2.7921,-2.8165,-2.8525,-2.7871,-2.7554,-2.7174,-2.5667,-2.5048,-2.4906,-2.4223,-2.4097,-2.4275,-2.438,-2.5644,-2.7422,-2.8726,-2.9722,-3.078,-3.2692,-3.4349,-3.627,-3.9291,-4.2368,-4.5101,-4.6811,-4.823,-4.9054,-4.8303,-4.6686,-4.5058,-4.4113,-4.2086,-4.021,-3.9445,-4.1376,-4.3518,-4.4887,-4.8486,-5.1733,-5.3471,-5.4244,-5.4542,-5.4331,-5.4138,-5.3875,-5.3506,-5.3514,-5.3561,-5.3748,-5.3273,-5.3445,-5.4443,-5.4512,-5.4512,-5.4512,-5.4303,-5.4222,-5.4222,-5.2717,-5.092,-4.8873,-4.7979,-4.7134,-4.6155,-4.4763,-4.3963,-4.3541,-4.3063,-4.2663,-4.2309,-4.1801,-4.1494,-4.1278,-4.0739,-4.0524,-4.0524,-4.0524,-4.0524,-4.0524,0.0,0.0,0.0,0.0,0.0,0.0,0.0,0.0,0.0,0.0,0.0,0.0,0.0,0.0,0.0,0.0,0.0,0.0,0.0,-1.9,-1.8879,-1.8318,-1.9688,-2.0519,-2.0619,-2.2139,-2.3098,-2.3404,-2.3781,-2.3901,-2.3914,-2.4545,-2.4874,-2.4874,-2.5218,-2.5675,-2.6301,-2.6035,-2.6198,0.0,0.0,-2.5658,-2.5468,-2.4657,-2.4457,-2.4628,-2.4456,-2.487,-2.5659,-2.6381,-2.769,-2.9311,-3.1018,-3.2013,-3.2977,-3.5078,-3.6667,-3.8264,-4.088,-4.337,-4.5656,-4.7292,-4.7995,-4.804,-4.7303,-4.5372,-4.337,-4.2294,-4.0176,-3.8454,-3.8158,-3.9831,-4.178,-4.3307,-4.6888,-5.0259,-5.2488,-5.3787,-5.4577,-5.4805,-5.484,-5.4665,-5.4244,-5.4221,-5.422,-5.4416,-5.3844,-5.38,-5.446,-5.4512,-5.4356,-5.4029,-5.4339,-5.4158,-5.3499,-5.263,-5.0977,-4.8446,-4.8006,-4.7054,-4.5884,-4.4911,-4.4177,-4.3719,0.0,-4.2694,-4.214,-4.1755,-4.1417,-4.1093,-4.0693,-4.0524,-4.0524,-4.0524,-4.0524,-4.0524,0.0,0.0,0.0,0.0,0.0,0.0,0.0,0.0,0.0,0.0,0.0,0.0,0.0,0.0,0.0,0.0,0.0,0.0,0.0,0.0,-1.8827,-1.856,-1.9423,-1.9798,-1.9512,-2.0965,-2.1741,-2.1741,-2.2272,-2.2591,-2.271,-2.3313,-2.3717,-2.3838,-2.4354,-2.4806,-2.5037,-2.4693,-2.4467,-2.4273,-2.4151,-2.3896,-2.3638,0.0,-2.4082,-2.425,-2.4457,-2.5488,-2.7048,-2.8791,-2.988,-3.0844,-3.3024,-3.4178,-3.5142,-3.737,-3.8802,-4.0102,-4.2028,-4.3924,-4.5715,-4.7233,-4.7199,-4.6742,-4.6446,-4.4199,-4.1918,-4.0868,-3.8937,-3.7565,-3.7912,-3.869,-3.9884,-4.1622,-4.4343,-4.738,-5.0715,-5.2348,-5.3752,-5.5332,-5.5507,-5.5507,-5.5507,-5.4875,-5.4677,-5.5147,-5.4905,-5.4614,-5.4557,-5.4425,-5.4011,-5.327,-5.3794,-5.3343,-5.191,-5.1839,-5.0408,-4.7751,-4.7751,-4.6922,-4.5442,-4.5106,-4.4526,-4.3809,-4.3461,-4.2709,-4.1724,-4.1632,-4.1232,-4.0662,-4.057,-4.0524,-4.0524,-4.0524,-4.0524,-4.0524,0.0,0.0,0.0,0.0,0.0,0.0,0.0,0.0,0.0,0.0,-2.0729,-2.014,0.0,0.0,0.0,0.0,0.0,0.0,0.0,0.0,0.0,-1.8193,-1.9016,-1.9384,-1.9093,-2.0284,-2.0906,-2.0906,-2.1125,-2.1242,-2.1292,-2.1907,-2.2228,-2.2374,-2.2485,-2.2802,-2.331,-2.2847,-2.2936,-2.3358,-2.3452,-2.3496,-2.3638,-2.3882,0.0,0.0,-2.462,-2.534,-2.663,-2.9801,-3.1318,-3.2376,-3.5047,-3.6358,-3.7449,-4.0087,-4.107,-4.1693,-4.3783,-4.49,-4.5706,-4.6505,-4.5756,-4.4575,-4.3716,-4.1376,-3.9171,-3.839,-3.7386,-3.68,-3.7141,-3.8357,-4.0235,-4.3044,-4.5027,-4.7766,-5.2172,-5.3015,-5.3752,-5.5332,-5.5507,-5.5507,-5.5507,-5.5385,-5.529,-5.5182,-5.446,-5.4226,-5.4745,-5.3988,-5.3235,-5.2442,-5.1999,-5.1309,-5.0402,-4.9845,-4.8683,-4.6992,-4.6992,-4.6343,-4.5173,-4.405,-4.3625,-4.3584,-4.2417,0.0,-4.2386,-4.1832,-4.1524,-4.1355,-4.0755,-4.0524,-4.0524,-4.0524,-4.0524,-4.0524,0.0,0.0,0.0,0.0,0.0,0.0,0.0,-2.2309,-2.2212,-2.1958,-2.1292,-2.0588,-1.9963,-1.9673,-1.9353,0.0,0.0,0.0,0.0,0.0,0.0,0.0,-1.977,-2.0151,-1.9438,-2.1125,-2.1982,-2.1982,0.0,-2.1837,-2.1889,-2.1947,-2.2032,-2.2193,-2.2671,-2.2923,-2.2994,-2.2994,-2.31,-2.3363,-2.3837,-2.4192,-2.444,0.0,0.0,0.0,-2.5133,-2.5879,-2.6941,-2.9327,-3.0844,-3.2392,-3.6279,-3.7749,-3.8473,-4.0706,-4.1629,-4.2364,-4.4513,-4.5386,-4.6038,-4.7301,-4.5942,-4.4002,-4.2732,-4.0407,-3.8119,-3.6935,-3.644,-3.6284,-3.665,-3.7796,-3.9385,-4.1485,-4.3273,-4.5923,-5.0153,-5.147,-5.2716,-5.4647,-5.5262,-5.5507,-5.5507,-5.5507,-5.5448,-5.5354,-5.4475,-5.3974,-5.4156,-5.29,-5.2218,-5.2218,-5.1174,-5.0404,-5.0021,-4.9344,-4.8232,-4.6803,-4.6803,-4.6292,-4.5336,-4.4231,-4.3733,-4.3689,-4.2628,-4.2109,-4.2048,-4.174,-4.1386,-4.1001,-4.0662,-4.0524,-4.0524,-4.0524,-4.0524,-4.0524,0.0,0.0,0.0,0.0,0.0,0.0,0.0,-2.2197,-2.2197,-2.2197,-2.1764,-2.1033,-2.0013,-1.9853,-1.9564,0.0,0.0,0.0,0.0,0.0,0.0,0.0,0.0,0.0,-1.9968,0.0,0.0,-2.3083,-2.276,0.0,0.0,0.0,0.0,0.0,-2.3372,-2.3599,-2.3434,-2.3808,-2.3929,0.0,0.0,-2.5167,-2.5477,0.0,0.0,0.0,0.0,-2.6551,-2.7406,-2.8883,-3.0133,-3.1763,-3.5982,-3.7694,-3.8515,-4.0206,-4.1564,-4.2977,-4.4999,-4.5807,-4.6417,-4.773,-4.5949,-4.3524,-4.1933,-3.9776,-3.7653,-3.6202,-3.5907,-3.6037,-3.6527,-3.7219,-3.8314,-4.0008,-4.1408,-4.3763,-4.7941,-4.9732,-5.1487,-5.3787,-5.4911,-5.5507,-5.5507,-5.5507,-5.5437,-5.5279,-5.4091,-5.3314,-5.3056,-5.1812,-5.1304,-5.1735,-5.0492,-4.9796,-4.9743,-4.8957,-4.7934,-4.677,-4.6639,-4.6166,-4.5484,-4.4434,-4.3899,-4.365,-4.2597,-4.1863,-4.137,-4.137,-4.1032,-4.0524,-4.0524,-4.0524,-4.0524,-4.0524,-4.0524,-4.0524,0.0,0.0,0.0,0.0,0.0,0.0,0.0,-2.2197,-2.2197,-2.2197,-2.1877,-2.1266,-2.024,-1.9969,-1.9564,0.0,0.0,0.0,0.0,0.0,0.0,0.0,0.0,0.0,0.0,0.0,0.0,-2.2656,-2.2603,0.0,0.0,0.0,0.0,0.0,0.0,-2.3923,-2.4383,-2.4664,0.0,0.0,0.0,0.0,0.0,0.0,0.0,0.0,0.0,-2.7132,-2.7678,-2.9681,-3.0463,-3.0879,-3.2819,-3.5112,-3.7358,-3.8985,-4.1394,-4.3977,-4.5718,-4.6225,-4.6224,-4.6113,-4.4351,-4.2112,-4.0059,-3.8571,-3.7323,-3.6144,-3.5907,-3.6122,-3.6811,-3.68,-3.7728,-4.092,-4.1042,-4.2517,-4.7783,-4.9258,-5.0662,-5.2997,-5.4595,-5.5507,-5.5507,-5.5507,-5.5209,-5.4472,-5.2799,-5.1691,-5.1381,-5.1183,-5.0838,-5.0235,-4.9453,-4.9018,-4.9024,-4.7653,-4.6904,-4.677,-4.6144,-4.5725,-4.5468,-4.3934,-4.3198,-4.2906,-4.1364,-4.0693,0.0,-4.0632,-4.0586,-4.0524,-4.0524,-4.0524,-4.0524,-4.0524,-4.0524,-4.0524,0.0,0.0,0.0,0.0,0.0,0.0,-2.1526,-2.1925,-2.2306,-2.263,-2.2253,-2.1832,-2.1427,-2.072,-1.9857,-1.8845,0.0,0.0,0.0,0.0,0.0,0.0,0.0,0.0,0.0,0.0,-2.3745,-2.3787,-2.3497,0.0,0.0,0.0,0.0,0.0,0.0,-2.5317,-2.5193,-2.5712,0.0,0.0,0.0,0.0,0.0,0.0,0.0,0.0,0.0,0.0,-2.8356,-2.921,-2.9758,-3.0129,-3.0498,-3.2236,-3.4672,-3.6983,-3.9447,-4.1994,-4.4595,-4.6005,-4.6616,-4.6527,-4.4473,-4.2071,-4.0332,-3.8267,-3.6449,-3.5746,-3.5616,-3.5749,-3.6266,-3.6426,-3.7082,-3.8903,-3.9108,-4.0463,-4.4518,-4.573,-4.759,-5.1365,-5.2751,-5.377,-5.47,-5.4788,-5.4221,-5.2901,-5.2044,-5.1275,-5.0616,-5.05,-5.0304,-5.0011,-4.9299,-4.868,-4.824,-4.6881,-4.5969,-4.5565,-4.4846,-4.4678,-4.4809,-4.3372,-4.2771,-4.2813,-4.1334,-4.0593,0.0,-4.0524,-4.0524,-4.0524,-4.0524,-4.0524,-4.0524,-4.0524,-4.0524,-4.0524,0.0,0.0,0.0,0.0,0.0,-2.0869,-2.106,-2.1526,-2.2068,-2.2702,-2.2351,-2.199,-2.1834,-2.1141,-2.027,-1.9168,-1.9107,0.0,0.0,0.0,0.0,0.0,0.0,0.0,0.0,0.0,-2.4677,-2.4778,-2.4417,-2.4422,0.0,0.0,-2.514,-2.5459,0.0,0.0,0.0,0.0,0.0,0.0,0.0,0.0,0.0,0.0,0.0,0.0,0.0,0.0,0.0,0.0,0.0,-2.9811,-2.9321,-3.0363,-3.2266,-3.4726,-3.7469,-4.0285,-4.2989,-4.4953,-4.6195,-4.598,-4.4042,-4.1756,-4.0117,-3.7935,-3.6145,-3.553,-3.5498,-3.5616,-3.5864,-3.6071,-3.6517,-3.7455,-3.7997,-3.9266,-4.2078,-4.35,-4.5554,-4.9082,-5.0399,-5.161,-5.3138,-5.3489,-5.3134,-5.1822,-5.122,-5.0724,-5.0166,-4.9827,-4.9769,-4.9993,-4.9513,-4.8865,-4.8116,-4.6965,-4.6027,-4.5257,-4.4375,-4.4188,-4.4424,-4.2994,-4.2466,-4.2574,-4.1241,-4.0662,0.0,-4.0524,-4.0524,-4.0524,-4.0524,-4.0524,-4.0524,-4.0524,-4.0524,-4.0524,0.0,0.0,0.0,0.0,0.0,0.0,-2.0996,-2.1135,-2.14,-2.2135,-2.1925,-2.1513,-2.0946,-2.0875,-2.0676,-2.024,-1.9722,0.0,0.0,0.0,0.0,0.0,0.0,0.0,0.0,0.0,-2.4778,-2.5174,-2.5174,-2.5439,-2.5879,-2.5893,-2.6096,-2.6496,0.0,0.0,0.0,0.0,0.0,0.0,0.0,0.0,0.0,0.0,0.0,0.0,0.0,0.0,0.0,0.0,0.0,0.0,0.0,-2.9782,-3.0543,-3.2255,-3.5843,-3.9603,-4.1061,-4.3048,-4.4539,-4.3843,-4.2535,-4.0862,-3.8725,-3.7564,-3.6695,-3.5605,-3.5661,-3.5907,-3.5907,-3.5616,-3.587,-3.7353,-3.8278,-3.9469,-4.1349,-4.3623,-4.5378,-4.6186,-4.7678,-4.924,-5.0785,-5.161,-5.1938,-5.1598,-5.0189,-4.9538,-4.9959,-4.9269,-4.92,-4.9976,-5.0011,-4.9614,-4.8781,-4.8116,-4.7352,-4.6574,-4.5321,-4.4657,-4.4641,-4.2863,-4.21,-4.2069,-4.0955,-4.0524,0.0,-4.0524,-4.0524,-4.0524,-4.0524,-4.0524,-4.0524,-4.0524,-4.0524,-4.0524,0.0,0.0,0.0,0.0,0.0,0.0,0.0,-2.0085,-2.0801,-2.1864,-2.1609,-2.1533,-2.2261,-2.1703,-2.1212,-2.1045,-2.0555,0.0,0.0,0.0,0.0,0.0,0.0,0.0,0.0,0.0,-2.5075,-2.5425,-2.5425,-2.5688,-2.619,-2.6244,-2.6472,-2.687,-2.71,-2.7357,0.0,0.0,0.0,0.0,0.0,0.0,-2.9319,0.0,0.0,0.0,0.0,0.0,0.0,0.0,0.0,0.0,0.0,0.0,0.0,-3.1031,-3.3259,-3.6075,-3.8543,-4.0083,-4.1044,-4.1342,-4.0299,-3.8907,-3.7731,-3.6487,-3.5479,-3.5121,-3.5148,-3.527,-3.5543,-3.5453,-3.6039,-3.8079,-3.8642,-3.9486,-4.1349,-4.271,-4.4413,-4.6748,-4.9346,-5.1119,-5.161,-5.1417,-5.1187,-5.0931,-4.9896,-4.9559,-5.0114,-4.8808,-4.8407,-4.9183,-4.92,-4.8579,-4.732,-4.6618,-4.5923,-4.5179,-4.4268,-4.3919,-4.3897,-4.2928,-4.2291,-4.2053,-4.1246,-4.0746,-4.0524,-4.0524,-4.0524,-4.0524,-4.0524,-4.0524,-4.0524,-4.0524,-4.0524,-4.0524,0.0,0.0,0.0,0.0,0.0,0.0,0.0,-1.9375,-2.0129,-2.1419,-2.1319,-2.1516,-2.2579,-2.2101,-2.1704,-2.1704,-2.1404,0.0,0.0,0.0,0.0,0.0,0.0,0.0,-2.3872,-2.4708,-2.5369,-2.5647,-2.6036,-2.6337,-2.6578,-2.6982,-2.7179,-2.7248,-2.7473,-2.7675,0.0,0.0,0.0,0.0,0.0,0.0,-2.9086,0.0,0.0,0.0,0.0,0.0,0.0,0.0,0.0,0.0,0.0,0.0,0.0,0.0,-3.1487,-3.321,-3.6158,-3.7698,-3.8642,-3.9371,-3.8676,-3.7599,-3.6854,-3.5858,-3.5071,-3.4947,-3.4977,-3.5118,-3.5211,-3.5195,-3.5756,-3.7455,-3.8198,-3.9101,-4.0517,-4.2166,-4.415,-4.666,-4.917,-5.0697,-5.0697,-5.0803,-5.0696,-5.02,-4.9375,-4.9003,-4.9305,-4.8014,-4.751,-4.7976,-4.8252,-4.782,-4.6613,-4.6161,-4.5584,-4.4852,-4.4186,-4.3896,-4.3887,-4.3121,-4.2478,-4.2039,-4.1512,-4.1003,0.0,-4.0247,-4.0293,-4.0493,-4.0247,-4.0309,-4.0524,-4.0524,-4.0524,-4.0493,0.0,0.0,0.0,0.0,0.0,0.0,0.0,-1.8911,-1.9431,-2.0805,-2.0996,-2.1325,-2.2061,-2.2185,-2.2197,-2.2197,0.0,0.0,0.0,0.0,0.0,0.0,0.0,0.0,-2.435,-2.5131,-2.5647,-2.5948,-2.6938,-2.7263,-2.7018,-2.78,-2.7966,-2.7625,-2.7625,-2.7875,-2.8235,-2.8636,-2.8858,-2.8904,-2.9075,-2.8878,0.0,0.0,0.0,0.0,0.0,0.0,0.0,0.0,0.0,0.0,0.0,0.0,0.0,0.0,0.0,0.0,0.0,-3.5711,-3.692,-3.7765,-3.7417,-3.6704,-3.6075,-3.5602,0.0,-3.4977,-3.5165,-3.5287,-3.4947,-3.4899,-3.5118,-3.5844,-3.7257,-3.8522,-3.9248,-4.2033,-4.4541,-4.6014,-4.7678,-4.8644,-4.8538,-4.9908,-5.0451,-4.9571,-4.8608,-4.8012,-4.7919,-4.7013,-4.6544,-4.6613,-4.7217,-4.7234,-4.6527,-4.6527,-4.6148,-4.5371,-4.4852,-4.4558,-4.4446,-4.3495,-4.2658,0.0,-4.1559,-4.1028,0.0,-3.9754,-3.9893,-4.0385,-3.9708,-3.9862,-4.0447,-4.0401,-4.0385,-4.0293,0.0,0.0,0.0,0.0,0.0,0.0,0.0,0.0,0.0,0.0,-1.9966,-2.0624,-2.1262,-2.1862,-2.2197,0.0,0.0,0.0,0.0,0.0,0.0,0.0,0.0,0.0,-2.4951,-2.555,-2.5948,-2.619,-2.6547,-2.6842,-2.7003,-2.7484,-2.7673,-2.761,-2.7925,-2.8235,-2.8525,-2.8795,-2.8873,-2.8904,-2.9075,-2.9239,0.0,0.0,0.0,0.0,-3.0179,-3.0319,0.0,0.0,0.0,0.0,0.0,0.0,0.0,0.0,-3.0526,-3.0907,-3.2713,0.0,-3.3359,-3.5214,-3.5114,-3.4667,0.0,-3.5063,-3.4994,-3.4899,-3.493,-3.4977,-3.4883,-3.4899,-3.5349,-3.6621,-3.7369,-3.8278,-3.9569,-4.2901,-4.5469,-4.6137,-4.8661,-4.9855,-4.8626,-4.9398,-4.9854,-4.9518,-4.812,-4.7456,-4.7902,-4.6495,-4.5975,-4.6596,-4.6182,-4.5889,-4.5699,-4.5699,-4.5613,-4.5423,-4.5264,-4.4961,-4.4446,-4.3588,-4.2476,-4.1229,-4.1056,-4.0194,-3.9016,-3.937,-3.9616,-3.9693,-3.9016,-3.9154,-3.9693,-3.917,-3.8985,-3.897,0.0,0.0,0.0,0.0,0.0,0.0,0.0,0.0,0.0,0.0,0.0,0.0,0.0,0.0,0.0,0.0,0.0,0.0,0.0,0.0,0.0,0.0,0.0,-2.4452,-2.509,-2.5811,-2.6258,-2.6404,-2.7079,-2.7504,-2.7728,-2.8038,-2.8228,-2.8329,-2.8373,-2.8493,-2.8684,-2.8826,-2.8967,-2.9013,-2.9198,0.0,0.0,0.0,0.0,0.0,-2.9873,-3.0129,0.0,-3.0526,-3.0526,-3.0526,0.0,0.0,0.0,0.0,-3.0526,-3.0758,-3.1901,-3.2415,-3.2978,-3.4518,-3.4849,-3.4816,-3.4883,-3.4899,-3.4899,-3.4899,-3.4899,-3.4899,-3.4899,-3.4899,-3.5305,-3.6615,-3.7347,-3.8512,-4.0882,-4.3026,-4.4992,-4.6794,-4.819,-4.9047,-4.9065,-4.9118,-4.896,-4.847,-4.7561,-4.6952,-4.6862,-4.5925,-4.563,-4.6061,-4.5303,-4.4906,-4.4906,-4.4906,-4.4734,-4.4389,-4.4734,-4.442,-4.3487,-4.3361,-4.2265,-4.051,-4.0371,0.0,-3.8508,-3.8569,-3.8769,-3.8985,-3.8308,-3.8462,-3.9016,-3.8646,-3.8508,-3.8462,0.0,0.0,0.0,0.0,0.0,0.0,0.0,0.0,0.0,0.0,0.0,0.0,0.0,0.0,0.0,0.0,0.0,0.0,0.0,0.0,0.0,0.0,-2.4002,-2.4637,-2.5286,-2.6236,-2.6722,-2.6761,-2.7963,-2.8621,-2.8764,-2.8936,-2.9082,-2.9265,-2.8835,-2.8684,-2.8826,-2.8889,-2.9013,-2.9121,-2.935,0.0,0.0,0.0,0.0,0.0,0.0,0.0,0.0,-3.0468,-3.0468,-3.0468,-3.0468,0.0,0.0,0.0,0.0,0.0,-3.1378,-3.2762,-3.4087,-3.4601,-3.5197,-3.5528,-3.5015,-3.4899,-3.4899,-3.4899,-3.4899,-3.4899,-3.4899,-3.4899,-3.5257,-3.6337,-3.7343,-3.9091,-4.2262,-4.2894,-4.4111,-4.6999,-4.707,-4.742,-4.8819,-4.854,-4.791,-4.7177,-4.6917,-4.6465,-4.565,-4.5476,-4.5372,-4.5251,-4.463,-4.4165,-4.3923,-4.4044,-4.3802,-4.3232,-4.3802,-4.3546,-4.2445,-4.2787,-4.1856,-3.9911,0.0,0.0,-3.8169,-3.7692,-3.7831,-3.8292,-3.7615,-3.7769,-3.8338,-3.8246,-3.82,-3.8123,0.0,0.0,0.0,0.0,0.0,0.0,0.0,0.0,0.0,0.0,0.0,0.0,0.0,0.0,0.0,0.0,0.0,0.0,0.0,0.0,0.0,-2.3403,-2.4208,-2.5273,-2.6674,-2.7423,-2.7847,-2.7939,-2.8818,-2.9307,-2.943,-2.9682,-2.9693,-2.9515,-2.8995,-2.8811,-2.8873,-2.9029,-2.9075,-2.9121,-2.9121,0.0,0.0,0.0,0.0,0.0,0.0,0.0,0.0,-3.0316,-3.0359,-3.0485,-3.0316,0.0,0.0,0.0,0.0,0.0,-3.1378,-3.3143,-3.4601,-3.4087,-3.4038,-3.427,-3.4783,-3.4899,-3.4899,-3.4899,-3.4899,-3.4899,-3.4899,-3.4899,-3.5257,-3.6337,-3.8152,-4.012,-4.1926,-4.3297,-4.419,-4.4399,-4.6066,-4.6735,-4.5743,-4.6444,-4.6881,-4.6617,-4.6187,-4.584,-4.5632,-4.5476,-4.513,-4.4475,-4.4337,-4.3647,-4.2354,-4.3009,-4.3335,-4.3214,-4.3335,-4.3217,-4.286,-4.2247,-4.1077,-3.9641,0.0,-3.8466,-3.683,-3.7307,-3.7569,-3.7584,-3.6907,-3.7061,-3.7584,-3.7015,-3.6799,-3.6784,0.0,0.0,0.0,0.0,0.0,0.0,0.0,0.0,0.0,0.0,0.0,0.0,0.0,0.0,0.0,0.0,0.0,0.0,0.0,0.0,-2.4038,-2.4845,-2.5594,-2.627,-2.6647,-2.8061,-2.8793,-2.8833,-2.9346,-2.9853,-3.0377,-3.0281,-3.0007,-2.9565,-2.9043,-2.8826,-2.8904,-2.9029,-2.9075,-2.9121,0.0,0.0,0.0,0.0,0.0,0.0,0.0,0.0,0.0,0.0,-3.0316,-3.0468,-3.0401,0.0,0.0,0.0,0.0,0.0,-3.0924,-3.2332,-3.3723,-3.3773,-3.47,-3.5562,-3.5512,-3.5181,-3.4899,-3.4899,-3.4899,-3.4899,-3.4899,-3.523,-3.5909,-3.7219,-3.8937,-4.0354,-4.1076,-4.2078,-4.2931,-4.3457,-4.4393,-4.5014,-4.4944,-4.525,-4.5598,-4.5855,-4.5476,-4.5179,-4.5009,-4.4854,-4.4458,-4.3749,-4.3251,-4.2699,-4.1992,-4.1957,-4.1988,-4.1988,-4.2337,-4.2154,-4.1342,-4.1017,-4.0055,-3.8592,0.0,-3.7406,-3.6507,-3.683,-3.6953,-3.6923,-3.6615,-3.6676,-3.6923,-3.6599,-3.6492,-3.6492,0.0,0.0,0.0,0.0,0.0,0.0,0.0,0.0,0.0,0.0,0.0,0.0,0.0,0.0,0.0,0.0,0.0,0.0,0.0,-2.407,-2.4949,-2.5964,-2.6945,-2.7381,-2.7103,-2.8759,-2.9625,-2.968,-3.0063,-3.0613,-3.1262,-3.0707,-3.0238,-2.9847,-2.9153,-2.8858,-2.8967,-2.9075,-2.9075,-2.9121,0.0,0.0,0.0,0.0,0.0,0.0,0.0,0.0,0.0,0.0,0.0,0.0,0.0,0.0,0.0,-3.0384,-3.0443,-3.0443,-3.0485,-3.1702,-3.3077,-3.3657,-3.5197,-3.6539,-3.6307,-3.5694,-3.5214,-3.5379,-3.5413,-3.5363,-3.5181,-3.576,-3.6638,-3.7765,-3.9322,-4.0382,-4.0382,-4.0978,-4.1737,-4.2769,-4.2819,-4.3132,-4.4075,-4.399,-4.4044,-4.454,-4.4439,-4.4262,-4.4094,-4.4043,-4.3715,-4.2973,-4.2302,-4.1905,-4.1733,-4.1164,-4.0888,-4.0888,-4.1457,-4.1212,-4.0137,-4.0074,-3.9286,-3.7937,-3.7207,-3.6769,-3.6492,-3.6492,-3.6492,-3.6492,-3.6492,-3.6492,-3.6492,-3.6492,-3.6492,-3.6476,0.0,0.0,0.0,0.0,0.0,0.0,0.0,0.0,0.0,0.0,0.0,0.0,0.0,0.0,0.0,0.0,0.0,0.0,0.0,-2.4943,-2.5401,-2.5608,-2.7343,-2.8579,-2.9148,-2.9855,-3.0294,-3.0432,-3.1261,-3.1819,-3.2099,-3.1065,-3.0639,-3.0663,-2.9437,-2.8967,-2.9075,-2.9075,-2.9075,-2.9075,-2.9121,0.0,0.0,0.0,0.0,0.0,0.0,0.0,0.0,0.0,0.0,0.0,0.0,0.0,-2.9897,-3.0146,-3.0231,-3.0274,-3.0443,-3.2083,-3.3723,-3.3773,-3.4419,-3.5396,-3.6721,-3.6456,-3.6125,-3.6804,-3.6953,-3.6738,-3.6059,-3.6522,-3.7069,-3.7168,-3.899,-4.0382,-4.0382,-4.0978,-4.1425,-4.1548,-4.1548,-4.1564,-4.167,-4.2009,-4.221,-4.2186,-4.2791,-4.3114,-4.286,-4.3182,-4.297,-4.2095,-4.2026,-4.1647,-4.0974,-4.0905,-4.0888,-4.0888,-4.094,-4.0875,-4.0648,-4.0087,-3.9329,-3.839,-3.7822,-3.7147,-3.6492,-3.6492,-3.6492,-3.6492,-3.6492,-3.6492,-3.6492,-3.6492,-3.6492,-3.6399,0.0,0.0,0.0,0.0,0.0,0.0,0.0,0.0,0.0,0.0,0.0,0.0,0.0,0.0,0.0,0.0,0.0,0.0,0.0,-2.5478,-2.6215,-2.6714,-2.8274,-2.9406,-3.0037,-3.0693,-3.115,-3.1336,-3.1804,-3.215,-3.2327,-3.1133,-3.0887,-3.1368,-2.9624,-2.9218,-2.9753,-2.9311,-2.9075,-2.9075,-2.9075,-2.9075,0.0,0.0,0.0,0.0,0.0,0.0,0.0,0.0,-2.9633,-2.981,-2.9722,-2.9766,-2.9853,-3.0146,-3.0189,-3.0231,-3.0443,-3.2116,-3.3789,-3.3789,-3.47,-3.5843,-3.687,-3.6539,-3.6075,-3.6357,-3.6787,-3.7019,-3.6738,-3.7301,-3.7798,-3.7798,-3.9255,-4.0382,-4.0382,-4.0978,-4.1259,-4.0829,-4.116,-4.1243,-4.0812,-4.1113,-4.1567,-4.1984,-4.2056,-4.209,-4.214,-4.2207,-4.1963,-4.1319,-4.1302,-4.1164,-4.0888,-4.0888,-4.0629,-4.0146,-4.0146,-4.0146,-4.0053,-3.9343,-3.8581,-3.7872,-3.7572,-3.7118,-3.6492,-3.6492,-3.6492,-3.6492,-3.6492,-3.6492,-3.6445,-3.6014,-3.5861,-3.583,0.0,0.0,0.0,0.0,0.0,0.0,0.0,0.0,0.0,0.0,0.0,0.0,0.0,0.0,0.0,0.0,0.0,0.0,-2.4903,-2.6104,-2.7064,-2.7746,-2.91,-3.0089,-3.058,-3.1228,-3.167,-3.1799,-3.2038,-3.2247,-3.2367,-3.1402,-3.1228,-3.1743,-3.0203,-2.9816,-3.0148,-2.9659,-2.9327,-2.9075,-2.9075,-2.9075,0.0,0.0,0.0,0.0,0.0,0.0,0.0,0.0,-2.947,-2.9589,-2.9589,-2.9589,-2.9633,-2.9913,-2.9973,-3.006,-3.0316,-3.1863,-3.3367,-3.3442,-3.4733,-3.6191,-3.6936,-3.6721,-3.6489,-3.6936,-3.7069,-3.7185,-3.7417,-3.7682,-3.7947,-3.8179,-3.9239,-4.0034,-4.0034,-4.0448,-4.0564,-4.0083,-4.0448,-4.0547,-4.0083,-4.0054,-4.0364,-4.1154,-4.0796,-4.068,-4.0968,-4.0985,-4.0812,-4.0271,-4.0477,-4.0487,-4.0164,-4.0388,-4.0112,-3.9353,-3.9112,-3.9129,-3.9353,-3.8565,-3.7936,-3.7423,-3.7166,-3.6821,-3.6443,-3.6226,-3.6028,-3.5876,-3.6091,-3.6045,-3.5799,-3.5337,-3.5168,-3.5168,0.0,0.0,0.0,0.0,0.0,0.0,0.0,0.0,0.0,0.0,0.0,0.0,0.0,0.0,0.0,0.0,0.0,0.0,-2.5785,-2.6996,-2.794,-2.8478,-2.9768,-3.058,-3.0822,-3.1467,-3.1784,-3.1784,-3.2094,-3.2247,-3.2382,-3.1828,-3.1678,-3.1805,-3.1221,-3.0696,-3.0196,-3.018,-2.9769,-2.9091,-2.9075,-2.9075,-2.9091,0.0,0.0,0.0,0.0,0.0,0.0,0.0,-2.9075,-2.9075,-2.9075,-2.9075,-2.9167,-2.9441,-2.9531,-2.9621,-3.0076,-3.1286,-3.2475,-3.2668,-3.4369,-3.6191,-3.6936,-3.7102,-3.7516,-3.8974,-3.8129,-3.7334,-3.8079,-3.7615,-3.7367,-3.8096,-3.8808,-3.9272,-3.9272,-3.9272,-3.9272,-3.9309,-3.9309,-3.9309,-3.9255,-3.8626,-3.8493,-3.9206,-3.8974,-3.8908,-3.9139,-3.9577,-3.948,-3.8937,-3.9614,-3.9538,-3.8594,-3.9319,-3.9319,-3.8577,-3.7836,-3.787,-3.8577,-3.7899,-3.7481,-3.7235,-3.6612,-3.6307,-3.6253,-3.5559,-3.5008,-3.4537,-3.5214,-3.506,-3.4475,-3.446,-3.446,-3.446,0.0,0.0,0.0,0.0,0.0,0.0,0.0,0.0,0.0,0.0,0.0,0.0,0.0,0.0,0.0,0.0,0.0,0.0,-2.7082,-2.7407,-2.8026,-2.9128,-2.9597,-3.0089,-3.0821,-3.1626,-3.2094,-3.2094,-3.2247,-3.2342,-3.2382,-3.1828,-3.1942,-3.2538,-3.1455,-3.1231,-3.1636,-3.0591,-3.0054,-2.9817,-2.9327,-2.9422,-2.9817,0.0,0.0,0.0,0.0,0.0,0.0,0.0,0.0,0.0,-2.9075,-2.9075,-2.9278,-2.9986,-3.0206,-3.041,-3.1414,-3.2384,-3.3151,-3.3412,-3.475,-3.6191,-3.6936,-3.7102,-3.7384,-3.8328,-3.8179,-3.7947,-3.8179,-3.8444,-3.8543,-3.8261,-3.8808,-3.9272,-3.9272,-3.9272,-3.909,-3.8593,-3.8526,-3.8328,-3.7798,-3.7549,-3.7533,-3.7731,-3.7651,-3.7703,-3.8003,-3.7953,-3.7887,-3.7917,-3.828,-3.8306,-3.8052,-3.8648,-3.8543,-3.7801,-3.7594,-3.7594,-3.7818,-3.7535,-3.7072,-3.6517,-3.6738,-3.6881,-3.691,-3.6308,-3.5446,-3.4491,-3.4691,-3.466,-3.4414,-3.3906,-3.3721,-3.3798,0.0,0.0,0.0,0.0,0.0,0.0,0.0,0.0,0.0,0.0,-2.4809,0.0,0.0,0.0,0.0,0.0,0.0,0.0,0.0,-2.7799,-2.8539,-2.9574,-3.0172,-3.0734,-3.1319,-3.1977,-3.2302,-3.2302,-3.2342,-3.2398,-3.2382,-3.2037,-3.2261,-3.2742,-3.1955,-3.171,-3.1757,-3.0905,-3.0385,-3.0148,-2.9722,-2.9801,-3.0133,0.0,0.0,0.0,0.0,0.0,0.0,0.0,0.0,0.0,-2.9075,-2.9075,-2.9216,-2.9767,-2.9925,-3.0161,-3.1286,-3.2138,-3.2932,-3.3837,-3.5201,-3.6488,-3.7316,-3.7765,-3.8096,-3.8543,-3.8411,-3.8295,-3.8576,-3.8758,-3.8808,-3.8659,-3.899,-3.9172,-3.8891,-3.8858,-3.8576,-3.7864,-3.7765,-3.7599,-3.7152,-3.6837,-3.6787,-3.7085,-3.6837,-3.6787,-3.7153,-3.7002,-3.6853,-3.6705,-3.7135,-3.7028,-3.648,-3.7382,-3.7312,-3.6268,-3.6767,-3.6922,-3.6747,-3.6808,-3.6597,-3.6127,-3.6502,-3.6454,-3.6222,-3.6047,-3.5153,-3.3985,-3.4052,-3.3875,-3.3598,-3.3167,-3.2998,-3.3106,0.0,0.0,0.0,0.0,0.0,0.0,0.0,0.0,0.0,0.0,-2.5737,-2.636,0.0,0.0,0.0,0.0,0.0,0.0,0.0,-2.8078,-2.911,-2.986,-3.1248,-3.2038,-3.2135,-3.2287,-3.2398,-3.2398,-3.2398,-3.2382,-3.2342,-3.2459,-3.2514,-3.2523,-3.2655,-3.2089,-3.1068,-3.1005,-3.0665,-3.018,-3.018,-3.018,-3.0196,-3.0243,0.0,0.0,0.0,0.0,0.0,0.0,0.0,0.0,-2.9216,-2.9216,-2.9232,-2.9249,-2.9264,-2.9516,-3.0433,-3.1134,-3.2112,-3.4088,-3.5759,-3.7075,-3.8093,-3.8808,-3.9255,-3.9189,-3.8709,-3.851,-3.9156,-3.8742,-3.8493,-3.9073,-3.9172,-3.8924,-3.8212,-3.8112,-3.7847,-3.7102,-3.7003,-3.6986,-3.692,-3.629,-3.6158,-3.6754,-3.6174,-3.5976,-3.635,-3.6315,-3.5969,-3.5298,-3.5955,-3.5629,-3.4206,-3.5673,-3.5673,-3.432,-3.5591,-3.5985,-3.5576,-3.5985,-3.6122,-3.6027,-3.5933,-3.5448,-3.474,-3.5086,-3.4376,-3.3156,-3.3268,-3.2936,-3.2398,-3.2398,-3.2398,-3.249,0.0,0.0,0.0,0.0,0.0,0.0,0.0,0.0,0.0,0.0,0.0,0.0,0.0,0.0,0.0,0.0,0.0,0.0,0.0,0.0,-2.8829,-3.0644,-3.1667,-3.1894,-3.1407,-3.2048,-3.2398,-3.2398,-3.2398,-3.2176,-3.1724,-3.271,-3.2721,-3.1951,-3.2967,-3.2843,-3.1762,-3.1193,-3.0665,-3.018,-3.018,-3.018,-3.0243,-3.078,-3.0907,0.0,0.0,0.0,0.0,0.0,0.0,0.0,-2.9959,-2.9959,-3.0069,-3.0607,-3.0765,-3.0972,-3.1965,-3.1987,-3.2349,-3.4772,-3.6617,-3.811,-3.8874,-3.9172,-3.9123,-3.856,-3.8758,-3.909,-3.9239,-3.9156,-3.8924,-3.851,-3.8444,-3.8179,-3.745,-3.735,-3.7069,-3.6324,-3.6241,-3.6009,-3.5429,-3.523,-3.4965,-3.4535,-3.4352,-3.4336,-3.4391,-3.4184,-3.3925,-3.3649,-3.3941,-3.3563,-3.2548,-3.3567,-3.3956,0.0,-3.4837,-3.538,-3.5314,-3.6,-3.6191,-3.601,-3.5964,-3.5284,-3.4201,-3.4436,-3.3771,-3.2547,-3.2607,-3.2521,-3.2398,-3.2398,-3.2398,-3.249,0.0,0.0,0.0,0.0,0.0,0.0,0.0,0.0,0.0,0.0,0.0,0.0,0.0,0.0,0.0,0.0,0.0,0.0,0.0,0.0,-2.9345,-3.1131,-3.1364,-3.1522,-3.1751,-3.158,-3.1637,-3.1992,-3.1953,-3.1779,-3.1495,-3.2138,-3.2317,-3.2075,-3.2464,-3.2292,-3.1721,-3.0763,-3.0235,-3.0084,-3.0084,-3.0132,-3.0259,-3.0954,-3.0796,-3.0306,-3.097,0.0,0.0,0.0,0.0,0.0,0.0,0.0,-3.0749,-3.1112,-3.1042,-3.1005,-3.1517,-3.154,-3.2073,-3.4872,-3.6848,-3.8182,-3.8707,-3.8827,-3.8728,-3.8313,-3.883,-3.9272,-3.9272,-3.899,-3.8642,-3.8278,-3.7914,-3.7433,-3.6688,-3.6572,-3.6307,-3.5562,-3.5462,-3.5313,-3.4932,-3.4584,-3.4203,-3.3822,-3.3458,-3.3259,-3.3259,-3.3452,-3.3268,-3.2594,-3.3046,-3.2688,-3.1445,-3.2302,-3.2525,-3.2177,-3.3618,-3.4614,-3.5214,-3.5847,-3.5958,-3.5605,-3.5485,-3.489,-3.4018,-3.3857,-3.337,-3.2734,-3.2492,-3.2398,-3.2398,-3.2398,-3.2398,-3.2444,0.0,0.0,0.0,0.0,0.0,0.0,0.0,0.0,0.0,0.0,0.0,0.0,0.0,0.0,0.0,0.0,0.0,0.0,0.0,0.0,0.0,-3.1043,-3.0924,-3.1205,-3.2031,-3.1279,-3.1043,-3.147,-3.1329,-3.1311,-3.1471,-3.162,-3.193,-3.2256,-3.1813,-3.1516,-3.1351,-3.0098,-2.9684,-2.9798,-3.0033,-3.0146,-3.0243,-3.1173,-3.0732,-2.9785,-3.1112,-3.1207,-3.078,-3.1239,0.0,0.0,0.0,0.0,-3.1397,-3.1397,-3.1115,-3.0794,-3.0794,-3.1067,-3.1971,-3.4643,-3.6419,-3.7652,-3.8035,-3.8108,-3.8076,-3.8004,-3.869,-3.9239,-3.9106,-3.8609,-3.8129,-3.7864,-3.7317,-3.6655,-3.5909,-3.581,-3.5578,-3.4965,-3.4899,-3.4849,-3.4717,-3.4154,-3.369,-3.3442,-3.2845,-3.2497,-3.2497,-3.3077,-3.2961,-3.1927,-3.2416,-3.2028,-3.061,-3.1283,-3.1283,-3.0639,-3.2376,-3.3785,-3.4885,-3.5292,-3.5423,-3.5328,-3.488,-3.4431,-3.3986,-3.3407,-3.3145,-3.3039,-3.2586,-3.2398,-3.2398,-3.2398,-3.2398,-3.2398,0.0,0.0,0.0,0.0,0.0,0.0,0.0,0.0,0.0,0.0,-2.6347,-2.6658,0.0,0.0,0.0,0.0,0.0,0.0,0.0,0.0,0.0,-2.9504,-3.1275,-3.1764,-3.0714,-3.1703,-3.196,-3.1398,-3.0799,-3.0827,-3.1344,-3.2479,-3.2493,-3.1457,-3.204,-3.1691,-3.0584,-2.9922,-2.9373,-2.9076,-3.0248,-3.0373,-3.006,-3.2107,-3.2311,-3.1766,-3.2672,-3.2961,-3.2803,-3.2297,-3.2124,0.0,0.0,0.0,-3.2124,-3.2124,-3.2124,-3.1954,-3.1591,-3.2276,-3.3233,-3.3829,-3.5084,-3.6362,-3.7093,-3.7235,-3.7121,-3.6769,-3.8072,-3.9073,-3.846,-3.8278,-3.7798,-3.6506,-3.6208,-3.5893,-3.5148,-3.5048,-3.5015,-3.4916,-3.4899,-3.4651,-3.4005,-3.3856,-3.3276,-3.2,-3.1775,-3.1769,-3.1769,-3.1868,-3.1737,-3.1389,-3.1274,-3.069,-2.9659,-2.9964,-3.0036,-2.9939,-3.1625,-3.2855,-3.3634,-3.349,-3.432,-3.5827,-3.4802,-3.4218,-3.3986,-3.3407,-3.2949,-3.2492,-3.2453,-3.2398,-3.2398,-3.2398,-3.2398,-3.2398,0.0,0.0,0.0,0.0,0.0,0.0,0.0,0.0,0.0,0.0,0.0,-2.74,0.0,0.0,0.0,0.0,0.0,0.0,0.0,0.0,0.0,-2.9366,-3.0277,-3.0685,-3.0454,-3.0671,-3.0657,-3.0363,-3.0411,-3.0512,-3.0787,-3.2069,-3.2387,-3.1921,-3.1436,-3.1204,-3.0881,-2.9217,-2.8754,-2.9287,-2.9536,-2.9662,-3.0011,-3.1717,-3.1721,-3.0986,-3.2525,-3.2792,-3.2463,-3.2625,-3.2398,-3.2152,-3.2625,0.0,0.0,0.0,-3.2275,-3.1859,-3.0779,-3.1095,-3.1894,-3.2473,-3.3604,-3.4804,-3.5645,-3.6168,-3.6369,-3.6137,-3.7148,-3.7858,-3.7192,-3.7049,-3.679,-3.6125,-3.5644,-3.5263,-3.4949,-3.4899,-3.4899,-3.4899,-3.4535,-3.4154,-3.3822,-3.3061,-3.2315,-3.1626,-3.1196,-3.0964,-3.0964,-3.1361,-3.1308,-3.068,-3.0819,-3.0448,-2.9531,-2.9425,-2.9544,-2.981,-3.0948,-3.195,-3.2763,-3.2727,-3.3156,-3.3829,-3.2934,-3.2551,-3.2525,-3.2279,-3.2245,-3.2398,-3.2398,-3.2398,-3.2398,-3.2398,-3.2398,-3.2398,0.0,0.0,0.0,0.0,0.0,0.0,0.0,0.0,0.0,0.0,0.0,0.0,0.0,0.0,0.0,0.0,0.0,0.0,0.0,0.0,0.0,-2.9743,-2.9785,-2.9956,-3.0221,-2.9928,-2.9683,-2.9505,-3.0131,-3.0486,-3.0649,-3.1694,-3.2283,-3.2291,-3.1007,-3.0696,-3.0979,-2.8753,-2.8383,-2.9297,-2.9009,-2.9207,-2.9843,-3.0876,-3.0698,-2.9986,-3.1597,-3.1813,-3.1459,-3.2167,-3.2089,-3.1762,-3.2367,-3.217,0.0,0.0,0.0,-3.1459,-3.0017,-3.0074,-3.0594,-3.1106,-3.2139,-3.3198,-3.3968,-3.4736,-3.5247,-3.4979,-3.5661,-3.6082,-3.5291,-3.5685,-3.6003,-3.5597,-3.515,-3.4899,-3.4899,-3.4899,-3.4899,-3.4899,-3.4402,-3.3922,-3.3557,-3.2531,-3.1735,-3.1328,-3.0782,-3.0526,-3.0526,-3.104,-3.1004,-3.029,-3.0565,-3.036,-2.9605,-2.9259,-2.9289,-2.9633,-3.0283,-3.097,-3.1658,-3.1737,-3.1684,-3.1515,-3.1454,-3.1394,-3.1331,-3.1331,-3.1681,-3.2136,-3.2136,-3.2244,-3.2398,-3.2398,-3.2398,-3.2398,0.0,0.0,0.0,0.0,0.0,0.0,0.0,0.0,0.0,0.0,0.0,0.0,-2.8587,-2.8587,-2.8587,-2.8587,-2.8587,0.0,0.0,0.0,0.0,-3.0325,-3.0459,0.0,-2.9561,-3.0216,-3.0216,-2.9494,-3.0079,-3.069,-3.126,-3.1884,-3.2228,-3.2146,-3.092,-3.0376,-3.0247,-2.896,-2.8507,-2.861,-2.9247,-2.9464,-2.9522,-2.9811,-2.9839,-2.9851,-3.0054,-3.011,-3.0184,-3.082,-3.0984,-3.0984,-3.0984,-3.0984,-3.1042,0.0,0.0,0.0,-3.006,-3.0163,-3.0453,-2.9871,-3.0686,-3.1646,-3.1936,-3.2903,-3.351,-3.2399,-3.3262,-3.3779,-3.2547,-3.4383,-3.5683,-3.4426,-3.4562,-3.4899,-3.4899,-3.4899,-3.4899,-3.4899,-3.4866,-3.4286,-3.2878,-3.268,-3.205,-3.0675,-3.0543,-3.0526,-3.0526,-3.0559,-3.0518,-3.0485,-3.0307,-3.0092,-2.981,-2.9335,-2.9121,-2.9121,-2.9637,-2.9902,-2.9946,-2.9819,-2.9685,-2.9627,-3.1299,-3.1742,-3.1223,-3.1223,-3.133,-3.1428,-3.1428,-3.1828,-3.2398,-3.2398,-3.2398,-3.2398,0.0,0.0,0.0,0.0,0.0,0.0,0.0,0.0,0.0,0.0,0.0,0.0,0.0,-2.8471,-2.8522,-2.843,-2.8522,0.0,0.0,0.0,0.0,-2.921,-2.9646,-2.9608,-2.8912,-2.9528,-2.9594,-2.8912,-2.9509,-2.9916,-3.0133,-3.0758,-3.1246,-3.1585,-3.0771,-3.0419,-3.028,-2.8661,-2.8413,-2.9146,-2.9049,-2.917,-2.9508,-2.9653,-2.9653,-2.961,-2.9696,-2.9959,-3.0367,-3.0586,-3.036,-3.0104,-3.0585,-3.048,-3.0254,-3.0615,-3.0464,-3.0061,-2.9534,-2.9475,-2.9664,-2.9624,-3.0277,-3.0916,-3.1037,-3.2043,-3.2713,-3.1871,-3.2489,-3.2956,-3.2094,-3.3496,-3.4467,-3.3686,-3.4018,-3.4234,-3.3885,-3.3834,-3.3834,-3.3834,-3.3382,-3.303,-3.2914,-3.2017,-3.1401,-3.1229,-3.0791,-3.0526,-3.0526,-3.0526,-3.0526,-3.0526,-3.013,-2.9722,-2.9335,-2.9167,-2.9075,-2.9075,-2.9243,-2.9499,-2.9793,-2.9633,-2.9483,-2.9438,-2.995,-3.0133,-3.0052,-3.0052,-3.0603,-3.1382,-3.1382,-3.1797,-3.2398,-3.2398,-3.2398,-3.2398,0.0,0.0,0.0,0.0,0.0,0.0,0.0,0.0,-2.7229,-2.7709,0.0,0.0,0.0,0.0,-2.8608,-2.8314,-2.8509,-2.8716,-2.8881,-2.8624,-2.8573,-2.883,-2.8967,-2.8862,-2.8406,-2.8849,-2.8862,-2.8406,-2.9052,-2.9349,-2.9416,-3.0038,-3.0539,-3.0975,-3.0364,-3.0215,-3.0296,-2.8682,-2.8461,-2.9192,-2.8802,-2.8895,-2.9157,-2.9049,-2.8905,-2.8933,-2.8964,-2.9234,-2.9572,-2.9785,-2.9546,-2.9282,-2.9827,-2.9794,-2.9574,-2.967,-2.9699,-2.9518,-2.9205,-2.9153,-2.9291,-2.9242,-2.9865,-3.0346,-2.9912,-3.1029,-3.1946,-3.1061,-3.1646,-3.2178,-3.1582,-3.24,-3.3137,-3.2834,-3.3371,-3.3646,-3.3198,-3.3182,-3.3182,-3.3182,-3.2787,-3.2542,-3.2656,-3.1614,-3.1013,-3.1314,-3.0668,0.0,-3.0468,-3.0526,-3.0526,-3.0526,-3.0027,-2.9633,-2.9335,-2.9167,-2.9075,-2.9075,-2.9075,-2.9243,-2.9544,-2.9425,-2.9289,-2.9182,-2.9059,-2.9013,-2.9073,-2.9073,-2.9858,-3.1059,-3.1059,-3.1613,-3.2398,-3.2398,-3.2398,-3.2398,0.0,0.0,0.0,0.0,0.0,0.0,0.0,0.0,-2.7776,-2.7776,0.0,0.0,0.0,0.0,0.0,-2.8368,-2.8457,-2.8817,-2.9442,-2.8712,-2.861,-2.9247,0.0,0.0,-2.8106,-2.8106,-2.8106,-2.8106,-2.8652,-2.9053,-2.9201,-2.9779,-3.0131,-3.0351,-2.9726,-2.9794,-3.031,-2.9102,-2.8587,-2.8587,-2.8587,-2.8587,-2.8519,-2.7936,-2.7718,-2.7732,-2.7718,-2.7718,-2.7827,-2.8397,-2.8587,-2.8587,-2.8587,-2.8844,-2.9035,-2.8716,-2.9035,-2.9477,0.0,0.0,0.0,-2.8769,-2.9383,-2.9783,-2.8511,-2.9894,-3.1072,-2.9798,-3.0582,-3.1279,-3.082,-3.1188,-3.1675,-3.1773,-3.2563,-3.3093,-3.2933,-3.3039,-3.313,-3.313,-3.313,-3.2877,-3.2183,-3.1473,-3.0974,-3.0806,-3.017,-2.9984,-3.0501,-3.0501,-3.0501,-3.0468,-3.0027,-2.9793,-2.9793,-2.9335,-2.9075,-2.9075,-2.9075,-2.9075,-2.9075,-2.9075,-2.9014,-2.8794,-2.8794,-2.8652,-2.8411,-2.8411,-2.9196,-3.0397,-3.0397,-3.1197,-3.2367,-3.2367,-3.2382,-3.2398,0.0,0.0,0.0,0.0,0.0,-2.485,-2.5931,-2.6483,-2.6973,0.0,0.0,0.0,-2.8523,-2.8673,-2.8824,-2.8906,-2.8517,-2.8327,-2.8509,-2.8249,-2.8262,-2.8457,-2.8612,-2.8718,-2.8718,-2.8718,-2.8718,-2.8718,-2.8452,-2.8385,-2.8398,-2.8559,-2.8986,-2.9511,-2.8878,-2.9025,-2.9686,-2.8912,-2.8587,-2.8587,-2.8587,-2.8587,-2.8519,-2.7936,-2.7976,-2.8288,-2.7868,-2.7976,-2.837,-2.8532,-2.8587,-2.8587,-2.8587,-2.8651,-2.8716,-2.8651,-2.8716,-2.8908,-2.9035,0.0,0.0,0.0,0.0,0.0,-2.8697,-2.9519,-3.0133,-2.8842,-2.9406,-2.9958,-2.9377,-2.9516,-2.967,-2.9572,-3.1102,-3.2114,-3.1667,-3.1667,-3.1709,-3.1807,-3.1823,-3.1957,-3.2269,-3.1238,-3.0651,0.0,-3.0248,-3.008,-3.0733,-3.109,-3.0886,-3.0044,-2.9897,-2.9633,-2.9289,-2.9167,-2.9075,-2.9075,-2.9075,-2.9075,-2.9075,-2.9013,-2.8889,-2.8794,-2.8684,-2.8541,-2.8411,-2.8411,-2.8904,-2.9689,-2.9689,-3.0505,-3.1659,-3.1659,-3.1967,-3.2398,0.0,0.0,0.0,0.0,0.0,-2.549,-2.6135,-2.6823,-2.7477,0.0,0.0,0.0,-2.9091,-2.9048,-2.9111,-2.9318,-2.8559,-2.8292,-2.8785,-2.8279,-2.812,-2.8372,-2.8331,-2.8422,-2.866,-2.8673,-2.8673,-2.8673,-2.8397,-2.8106,-2.8,-2.8,-2.8252,-2.8705,-2.8462,-2.8554,-2.8996,-2.8736,-2.8587,-2.8587,-2.8587,-2.8587,-2.8546,-2.8207,-2.8288,-2.8546,-2.8193,-2.8302,-2.8587,-2.8587,-2.8587,-2.8627,-2.8885,-2.879,-2.8641,-2.8885,-2.879,-2.8651,-2.8844,-2.8908,-2.8908,-2.9099,0.0,0.0,-2.8223,-2.8806,-2.916,-2.8083,-2.8369,-2.8814,-2.8739,-2.8666,-2.8652,-2.8681,-2.9773,-3.0488,-3.0247,-3.0734,-3.0925,-3.0421,-3.0641,-3.0976,-3.1414,-3.0516,-3.0265,-3.1016,-3.0398,-3.0354,-3.1114,-3.1417,-3.1205,-3.0279,-2.9972,-2.9633,-2.9259,-2.9167,-2.9075,-2.9075,-2.9075,-2.9075,-2.9075,-2.9013,-2.8905,-2.8794,-2.8732,-2.8589,-2.8411,-2.8411,-2.8812,-2.9443,-2.9735,-3.0474,-3.1413,-3.1705,-3.2044,-3.2398,0.0,0.0,-2.3667,-2.3799,-2.5431,-2.6548,-2.6275,-2.7359,-2.8512,0.0,-2.9327,-2.9588,-3.0163,-2.9849,-2.9579,-2.9579,-2.8783,-2.8651,-2.9688,-2.8635,-2.8198,-2.8673,-2.8035,-2.7928,-2.8373,-2.8451,-2.8451,-2.8386,-2.8386,-2.8153,-2.7776,-2.7855,-2.7921,-2.8079,-2.825,-2.8354,-2.8287,-2.8509,-2.8587,-2.8587,-2.8587,-2.8587,-2.8587,-2.8587,-2.8587,-2.8587,-2.8587,-2.8587,-2.8587,-2.8587,-2.8587,-2.8682,-2.9211,-2.9021,-2.8695,-2.9224,-2.9007,-2.8587,-2.8587,-2.8587,-2.8587,-2.8587,-2.8844,0.0,-2.7583,-2.8052,-2.8482,-2.7613,-2.7683,-2.8052,-2.8511,-2.8326,-2.8269,-2.8568,-2.8624,-2.8722,-2.8876,-3.0,-3.0424,-2.9245,-2.9672,-3.0041,-2.9967,-2.9692,-2.9864,-3.0697,-3.054,-3.0685,-3.1421,-3.1531,-3.1352,-3.0881,-3.0154,-2.9677,-2.947,-2.9213,-2.9075,-2.9075,-2.9075,-2.9075,-2.9075,-2.9075,-2.8998,-2.8794,-2.8794,-2.8652,-2.8411,-2.8411,-2.8765,-2.9366,-3.0043,-3.0705,-3.1366,-3.2028,-3.2336,-3.2398,0.0,-2.3416,-2.3488,-2.448,-2.4992,-2.5686,-2.6875,-2.7218,-2.7857,-2.9125,-2.968,-3.0262,-3.0961,-3.0453,-3.004,-3.0243,-2.9482,-2.918,-2.9403,-2.9123,-2.8834,-2.8468,-2.8739,-2.8765,-2.8386,-2.8856,-2.8869,-2.8386,-2.8386,-2.8085,-2.7603,-2.8061,-2.8103,-2.7868,-2.8358,-2.8505,-2.8287,-2.8352,-2.8444,-2.8587,-2.8587,-2.8587,-2.8587,-2.8587,-2.8587,-2.8587,-2.8587,-2.8587,-2.8587,-2.8587,-2.8587,-2.8614,-2.8736,-2.8682,-2.8614,-2.8736,-2.8682,-2.8587,-2.8587,-2.8587,-2.8587,-2.8587,-2.8651,0.0,-2.8352,-2.8711,-2.8823,-2.8074,-2.82,-2.8324,-2.7977,-2.782,-2.782,-2.7879,-2.8096,-2.8383,-2.8722,-2.9012,-2.9126,-2.8961,-2.9518,-2.9765,-2.9348,-2.9672,-2.9802,-2.947,-3.0277,-3.0942,-3.1258,-3.1294,-3.1134,-3.0589,-2.9929,-2.9425,-2.9167,-2.9121,-2.9075,-2.9075,-2.9075,-2.9075,-2.9075,-2.9075,-2.8998,-2.8794,-2.8794,-2.8652,-2.8411,-2.8411,-2.8488,-2.8673,-2.935,-3.0027,-3.0689,-3.1351,-3.1921,-3.2342,-2.3962,-2.37,-2.3743,-2.4848,-2.5349,-2.5861,-2.6428,-2.7336,-2.8208,-2.9036,-2.9969,-3.0673,-3.1097,-3.0551,-3.0241,-3.0677,-2.9568,-2.9196,-3.0072,-2.9314,-2.8961,-2.9248,-2.8987,-2.883,-2.883,-2.883,-2.8686,-2.8386,-2.8386,-2.8085,-2.7536,-2.7824,-2.7865,-2.7669,-2.8106,-2.8199,-2.8039,-2.8222,-2.8365,-2.8444,-2.8587,-2.8587,-2.8587,-2.8587,-2.8587,-2.8587,-2.8587,-2.8587,-2.8587,-2.8587,-2.8587,-2.8641,-2.894,-2.8831,-2.8655,-2.894,-2.8831,-2.8587,-2.8587,-2.8587,-2.8587,-2.8587,-2.8587,0.0,0.0,-2.828,-2.8195,-2.7382,-2.7451,-2.7598,-2.7295,-2.7363,-2.7527,-2.7659,-2.7611,-2.7684,-2.8125,-2.8511,-2.849,-2.7904,-2.84,-2.8677,-2.8451,-2.8785,-2.9086,-2.9112,-3.0213,-3.1022,-3.1208,-3.1284,-3.1197,-3.0879,-3.0273,-2.9701,-2.9091,-2.9075,-2.9075,-2.9075,-2.9075,-2.9075,-2.9075,-2.9029,-2.8951,-2.8794,-2.8747,-2.8589,-2.8411,-2.8411,-2.8411,-2.8473,-2.915,-2.9827,-3.0505,-3.1151,-3.1813,-3.2296,-2.4312,-2.4082,-2.4039,-2.5,-2.5541,-2.5846,-2.5716,-2.7191,-2.8375,-2.8857,-2.999,-3.083,-3.083,-3.0411,-3.0359,-3.0934,-2.9497,-2.9196,-3.0725,-2.9392,-2.8922,-2.9758,-2.8882,-2.8556,-2.8935,-2.8569,-2.832,-2.8216,-2.832,-2.8085,-2.7523,-2.7641,-2.7628,-2.7536,-2.7761,-2.7881,-2.7842,-2.8105,-2.8235,-2.83,-2.8457,-2.8522,-2.8587,-2.8587,-2.8587,-2.8587,-2.8587,-2.8587,-2.8587,-2.8587,-2.8587,-2.8682,-2.9157,-2.898,-2.8695,-2.9157,-2.8967,-2.8587,-2.8587,-2.8587,-2.8587,-2.8587,-2.8587,-2.8465,0.0,0.0,0.0,-2.6905,-2.693,-2.7135,-2.7148,-2.7335,-2.752,-2.7662,-2.7335,-2.7183,-2.753,-2.8111,-2.8136,-2.7111,-2.7382,-2.7614,-2.7614,-2.7963,-2.8404,-2.8958,-3.0048,-3.0739,-3.1028,-3.1052,-3.1173,-3.1247,-3.0736,-3.0068,-2.9343,-2.9154,-2.9075,-2.9075,-2.9075,-2.9075,-2.9075,-2.8967,-2.8842,-2.8794,-2.8684,-2.8541,-2.8411,-2.8411,-2.8411,-2.8473,-2.915,-2.975,-3.0304,-3.0966,-3.1536,-3.1881,-2.4377,-2.4082,-2.4039,-2.5,-2.4533,-2.4393,-2.5535,-2.6056,-2.682,-2.8278,-2.9464,-3.0228,-3.0228,-3.0176,-3.0359,-3.0934,-2.9876,-2.947,-3.0189,-2.9575,-2.9,-2.8595,-2.8451,-2.8177,-2.7732,-2.8164,-2.8137,-2.7628,-2.8137,-2.8085,-2.7536,-2.8046,-2.8007,-2.7549,-2.8059,-2.8129,-2.7776,-2.7842,-2.7987,-2.8145,-2.8145,-2.8341,-2.8587,-2.8587,-2.8587,-2.8587,-2.8587,-2.8587,-2.8587,-2.8587,-2.8587,-2.86,-2.8668,-2.8655,-2.86,-2.8668,-2.8641,-2.8587,-2.8587,-2.8587,-2.8587,-2.8587,-2.8587,-2.8573,-2.8505,0.0,-2.8451,-2.8379,0.0,-2.837,-2.8429,0.0,0.0,-2.7754,-2.7824,-2.7787,-2.7317,-2.7572,-2.7778,-2.7637,-2.747,-2.7324,-2.7269,-2.8064,-2.8664,-2.8722,-2.9376,-2.9941,-3.0365,-3.0213,-3.0508,-3.1539,-3.0712,-3.018,-3.0069,-2.9437,-2.9075,-2.9075,-2.9075,-2.9075,-2.9075,-2.8967,-2.8842,-2.8794,-2.8684,-2.8541,-2.8411,-2.8411,-2.8411,-2.8473,-2.915,-2.9458,-2.9612,-3.0289,-3.0462,-3.0402,-2.4388,-2.4323,-2.4377,-2.5054,-2.4618,-2.4215,-2.4492,-2.5291,-2.6229,-2.7418,-2.8606,-2.941,-2.9423,-2.9818,-3.0359,-3.0934,-2.9941,-2.9523,-3.0025,-2.9274,-2.8948,-2.9379,-2.8739,-2.8438,-2.8543,-2.8111,-2.7771,-2.7523,-2.7771,-2.7771,-2.7536,-2.7771,-2.7758,-2.7536,-2.7771,-2.7745,-2.7656,-2.7789,-2.7855,-2.7934,-2.8079,-2.821,-2.8341,-2.8379,-2.8509,-2.8587,-2.8587,-2.8587,-2.8587,-2.8587,-2.8587,-2.8587,-2.8587,-2.8587,-2.8587,-2.8587,-2.8587,-2.8587,-2.8587,-2.8509,-2.8444,-2.8587,-2.8509,-2.8444,-2.8587,-2.8587,-2.8492,-2.8153,0.0,0.0,0.0,0.0,0.0,0.0,-2.8048,-2.7906,-2.8001,-2.755,-2.7304,-2.7659,-2.7595,0.0,-2.7242,-2.8121,-2.8376,-2.7636,-2.8507,-2.9285,-2.9733,-2.9684,-3.0197,-3.1557,-3.1223,-3.0738,-3.0196,-2.988,-2.9532,-2.9075,-2.9075,-2.9075,-2.8967,-2.8905,-2.8763,-2.8684,-2.8541,-2.8444,-2.8411,-2.8411,-2.8411,-2.8427,-2.8719,-2.9073,-2.9392,-2.9618,-2.9904,-3.0127,-2.4181,-2.4279,-2.4465,-2.5065,-2.4563,-2.4029,-2.3873,-2.4751,-2.571,-2.6466,-2.7397,-2.8238,-2.8698,-2.9407,-3.0125,-3.0934,-3.0085,-2.9627,-2.9889,-2.8948,-2.8686,-2.9392,-2.8595,-2.8347,-2.8791,-2.7968,-2.7523,-2.7523,-2.7523,-2.7523,-2.7523,-2.7523,-2.7523,-2.7523,-2.7523,-2.7523,-2.7523,-2.7656,-2.7723,-2.7723,-2.7868,-2.7947,-2.8066,-2.8235,-2.843,-2.8587,-2.8587,-2.8587,-2.8587,-2.8587,-2.8587,0.0,-2.8509,-2.8522,-2.8471,-2.8471,-2.8471,-2.8471,-2.8522,-2.8379,-2.8314,-2.8522,-2.8444,-2.83,-2.8444,-2.8457,-2.8349,-2.7967,-2.816,0.0,0.0,0.0,-2.8468,-2.8255,0.0,-2.7981,-2.8187,-2.762,-2.7359,-2.7848,-2.7875,-2.7703,0.0,-2.8154,-2.8166,-2.6913,-2.7876,-2.865,-2.8807,-2.9282,-3.0159,-3.1382,-3.1678,-3.1377,-3.048,-3.0275,-2.9817,-2.9075,-2.9075,-2.8967,-2.8904,-2.8763,-2.8684,-2.8573,-2.8444,-2.8411,-2.8411,-2.8411,-2.8411,-2.8411,-2.8411,-2.8655,-2.9085,-2.897,-2.9175,-2.9459,-2.3656,-2.3755,-2.405,-2.5011,-2.3995,-2.3246,-2.4009,-2.459,-2.5059,-2.529,-2.5865,-2.6663,-2.8021,-2.8697,-2.9565,-3.0859,-3.0451,-2.9876,-2.934,-2.8726,-2.815,-2.7641,-2.7575,-2.7562,-2.7589,-2.7549,-2.7523,-2.7523,-2.7523,-2.7523,-2.7523,-2.7523,-2.7523,-2.7523,-2.7523,-2.7523,-2.7523,-2.7523,-2.7523,-2.7523,-2.7536,-2.7656,-2.7855,-2.8157,-2.843,-2.8587,-2.8587,-2.8587,0.0,-2.8587,-2.8444,0.0,0.0,0.0,-2.8145,-2.8145,-2.8145,-2.8131,-2.83,-2.8183,-2.821,-2.8522,-2.8341,-2.8131,-2.83,-2.8183,-2.8131,-2.8274,-2.817,-2.8131,-2.8274,-2.8274,-2.8061,-2.7333,-2.7795,0.0,0.0,-2.7693,-2.8222,-2.8532,-2.8304,-2.7958,-2.7687,-2.8268,-2.8099,-2.6877,-2.7669,-2.7997,-2.7396,-2.9039,-3.0289,-3.0989,-3.1836,-3.1918,-3.1191,-3.0512,-2.9817,-2.9075,-2.8967,-2.8904,-2.8904,-2.87,-2.8573,-2.8573,-2.8444,-2.8411,-2.8411,-2.8411,-2.8411,-2.8411,-2.8411,-2.8314,-2.8217,-2.8217,-2.8084,-2.7851,-2.322,-2.3252,-2.3449,-2.4104,-2.3809,-2.3558,-2.3762,-2.3993,-2.447,-2.5599,-2.629,-2.7102,-2.828,-2.9088,-2.9675,-3.0207,-2.9406,-2.8802,-2.8617,-2.8285,-2.8219,-2.8384,-2.8575,-2.8686,-2.8686,-2.8294,-2.7902,-2.7523,-2.7523,-2.7523,-2.7523,-2.7523,-2.7523,-2.7523,-2.7523,-2.7523,-2.7523,-2.7523,-2.7523,-2.7523,-2.7523,-2.759,-2.7855,-2.8066,-2.8197,-2.8276,-2.8276,-2.8276,0.0,-2.8276,-2.8197,-2.8197,-2.8197,-2.8145,-2.8079,-2.8079,-2.8079,0.0,0.0,0.0,-2.7987,-2.821,0.0,-2.7921,-2.8131,-2.8131,-2.8079,-2.8131,-2.8131,-2.8079,-2.8131,-2.8197,-2.8065,-2.7826,-2.8011,-2.8065,0.0,-2.7959,-2.7998,-2.7712,-2.7912,-2.8063,-2.7944,-2.7977,-2.7692,-2.6877,-2.7117,-2.7258,-2.7283,-2.8289,-2.9474,-3.0919,-3.1649,-3.1787,-3.1239,-3.0986,-3.0227,-2.8967,-2.8904,-2.8826,-2.87,-2.8621,-2.8525,-2.8444,-2.8396,-2.8411,-2.8411,-2.8411,-2.8411,-2.8411,-2.8411,-2.825,-2.8054,-2.8054,-2.7955,-2.7851,-2.2777,-2.2852,-2.3079,-2.3646,-2.4017,-2.4126,-2.3787,-2.417,-2.477,-2.5546,-2.6179,-2.7081,-2.8236,-2.8966,-2.9484,-2.9846,-2.9474,-2.9039,-2.8791,-2.8341,-2.8238,-2.8487,-2.8394,-2.8274,-2.8155,-2.819,-2.788,-2.7108,-2.7598,-2.7732,-2.7456,-2.7255,-2.7108,-2.7108,-2.7108,-2.7108,-2.7121,-2.739,-2.7523,-2.7523,-2.7523,-2.759,-2.7723,-2.7868,-2.8013,-2.8079,0.0,-2.8079,-2.8079,-2.8079,-2.8079,-2.8,-2.8,-2.7934,-2.7881,-2.7881,-2.7881,-2.7868,-2.8,-2.7868,0.0,-2.8013,-2.7868,0.0,-2.7934,-2.7947,-2.7881,-2.8,-2.7947,-2.7815,-2.7734,-2.7867,-2.7934,-2.7669,-2.7802,-2.7947,0.0,-2.7947,-2.7854,-2.7455,-2.785,-2.807,-2.7865,-2.7933,-2.7589,-2.6549,-2.6775,-2.6833,-2.6693,0.0,-2.8853,-3.0048,-3.1268,-3.1488,-3.0725,-3.0942,-3.0317,-2.8842,-2.8842,-2.8748,-2.8573,-2.8525,-2.8493,-2.8411,-2.8411,-2.8411,-2.8411,-2.8411,-2.8411,-2.8411,-2.8348,-2.8201,-2.802,-2.802,-2.8057,-2.8081,-2.2402,-2.2574,-2.2886,-2.3569,-2.4476,-2.4781,-2.3929,-2.4956,-2.571,-2.536,-2.5721,-2.6528,-2.7866,-2.8408,-2.9005,-2.9713,-3.0226,-3.0194,-2.9465,-2.8688,-2.8149,-2.7964,-2.7235,-2.6533,-2.6068,-2.7286,-2.746,-2.6383,-2.7662,-2.7923,-2.739,-2.6701,-2.6346,-2.6346,-2.6346,-2.6358,-2.6414,-2.7188,-2.7469,-2.7523,-2.7523,-2.7523,-2.7523,-2.7523,-2.7736,-2.8079,-2.8079,-2.8079,-2.8079,-2.8079,-2.7934,-2.7776,-2.7776,-2.7656,-2.7523,-2.7523,-2.7523,-2.7523,-2.7723,-2.7656,-2.759,-2.7947,0.0,0.0,0.0,0.0,-2.7523,-2.7789,-2.7656,-2.7366,-2.6999,-2.7419,-2.7538,-2.6869,-2.7367,-2.7709,-2.7484,-2.763,-2.7776,-2.7749,-2.8051,-2.8032,-2.7507,-2.8066,-2.7786,-2.6063,-2.664,-2.661,-2.5564,-2.7315,-2.8396,-2.8452,-3.0645,-3.1207,-2.9849,-3.0474,-3.0089,-2.8794,-2.8684,-2.8589,-2.8589,-2.8444,-2.8411,-2.8411,-2.8411,-2.8411,-2.8411,-2.8411,-2.8411,-2.8411,-2.8235,-2.8088,-2.8005,-2.7955,-2.8212,-2.8457,-2.2477,-2.269,-2.3043,-2.3249,-2.3405,-2.3842,-2.4672,-2.4653,-2.5261,-2.6998,-2.7236,-2.7717,-2.8925,-2.9205,-2.9076,-2.8522,-2.832,-2.7948,-2.7386,-2.7462,-2.7463,-2.7434,-2.7794,-2.7699,-2.716,-2.7158,-2.6846,-2.6081,-2.6122,-2.5996,-2.5861,-2.5652,-2.5581,-2.5581,-2.5581,-2.5861,-2.6414,-2.662,-2.6973,-2.7523,-2.7523,-2.7523,-2.7523,0.0,-2.7536,-2.7669,-2.7669,-2.7669,-2.7669,-2.7669,-2.759,-2.759,-2.759,-2.7523,-2.7523,-2.7523,-2.7523,-2.7523,-2.759,-2.7523,-2.7523,-2.7603,-2.7603,-2.7523,0.0,0.0,0.0,0.0,0.0,0.0,0.0,-2.7498,-2.755,-2.7327,-2.7432,-2.7446,-2.6948,-2.7328,-2.7433,-2.7,-2.7142,-2.7442,-2.7878,-2.7377,-2.687,-2.6412,-2.5873,-2.5572,-2.5508,0.0,0.0,-2.9108,-3.0116,-3.0603,-3.0521,-3.0226,-2.9557,-2.8636,-2.8636,-2.8541,-2.8444,-2.8411,-2.8411,-2.8411,-2.8411,-2.8411,-2.8411,-2.8411,-2.8411,-2.8411,-2.8235,-2.8039,-2.784,-2.774,-2.7795,-2.7814,-2.2468,-2.2861,-2.3329,-2.37,-2.3667,-2.3985,-2.507,-2.5107,-2.5635,-2.7355,-2.7644,-2.7893,-2.8321,-2.8527,-2.8261,-2.7605,-2.729,-2.7195,-2.7153,-2.7021,-2.6918,-2.701,-2.7162,-2.6818,-2.6083,-2.6314,-2.603,-2.5203,-2.5433,-2.5445,-2.5312,-2.4933,-2.4791,-2.4791,-2.4791,-2.4992,-2.5405,-2.6126,-2.6837,-2.7523,-2.7523,-2.7523,0.0,-2.7523,-2.7523,-2.7523,-2.7523,-2.7523,-2.7523,-2.7523,-2.7523,-2.7523,-2.7523,-2.7523,-2.7523,-2.7523,-2.7523,-2.7523,-2.7523,-2.7523,-2.7523,-2.7523,-2.7523,-2.7523,-2.7523,-2.7523,-2.7523,0.0,-2.7523,-2.7458,0.0,0.0,-2.7523,-2.7523,-2.7523,-2.7419,-2.7092,-2.7105,-2.7131,-2.7053,-2.6882,-2.6999,-2.7458,-2.6916,-2.6553,-2.6478,-2.6053,-2.5741,0.0,0.0,0.0,-2.824,-2.9305,-2.9853,-2.9826,-2.9709,-2.9254,-2.8493,-2.8493,-2.8493,-2.8411,-2.8411,-2.8411,-2.8411,-2.8411,-2.8411,-2.8411,-2.8411,-2.8348,-2.8299,-2.8088,-2.789,-2.7675,-2.7625,-2.7769,-2.7979,-2.2594,-2.3116,-2.3727,-2.4302,-2.4554,-2.4787,-2.5232,-2.584,-2.6464,-2.6947,-2.7398,-2.7495,-2.7101,-2.7233,-2.7163,-2.6907,-2.6864,-2.7009,-2.7538,-2.6849,-2.648,-2.6599,-2.5957,-2.5139,-2.4175,-2.5143,-2.5127,-2.4004,-2.5016,-2.5347,-2.4945,-2.4276,-2.3975,-2.3975,-2.3975,-2.4047,-2.4181,-2.5627,-2.6633,-2.7255,-2.7323,-2.739,-2.739,-2.7456,-2.7523,-2.7523,-2.7523,-2.7523,-2.7523,-2.7523,-2.7523,-2.7523,-2.7523,-2.7523,-2.7523,-2.7523,-2.7523,-2.7523,-2.7523,-2.7523,-2.7523,-2.7523,-2.7523,-2.7523,-2.7523,-2.7523,-2.7523,-2.7523,-2.7523,-2.7379,0.0,0.0,-2.7445,-2.7523,-2.7471,-2.7419,-2.7419,-2.6987,-2.6831,-2.7249,-2.687,0.0,-2.6556,-2.6631,-2.6585,-2.6417,-2.6627,-2.6492,0.0,0.0,0.0,-2.6958,-2.8358,-2.8958,-2.864,0.0,-2.8921,-2.8422,-2.8394,-2.8411,-2.8411,-2.8411,-2.8411,-2.8411,-2.8411,-2.8411,-2.8411,-2.8396,-2.8299,-2.8137,-2.789,-2.774,-2.7625,-2.7625,-2.7949,-2.8382,-2.3143,-2.3514,-2.3867,-2.394,-2.4584,-2.5228,-2.5753,-2.5999,-2.6499,-2.7147,-2.7418,-2.7514,-2.7302,-2.7232,-2.6945,-2.6192,-2.6117,-2.6001,-2.5689,-2.5498,-2.5455,-2.5443,-2.5369,-2.5029,-2.4463,-2.463,-2.433,-2.3504,-2.3744,-2.3687,-2.3434,-2.3287,-2.3213,-2.3213,-2.3213,-2.3559,-2.4192,-2.5075,-2.5581,-2.5721,-2.6346,-2.6552,-2.6633,-2.7255,-2.7523,-2.7523,-2.7523,-2.7523,-2.7523,-2.7523,-2.7523,-2.7523,-2.7523,-2.7523,-2.7523,-2.7523,-2.7523,-2.7523,-2.7523,-2.7523,-2.7523,-2.7523,-2.7523,-2.7523,-2.7523,-2.7523,-2.7523,-2.7523,-2.7523,-2.7497,-2.7406,0.0,0.0,-2.7458,-2.7131,-2.6831,-2.6831,-2.6739,-2.6543,-2.6164,-2.6033,-2.5968,-2.5968,-2.6498,-2.6638,-2.6162,-2.6356,-2.6284,0.0,0.0,0.0,0.0,-2.7353,0.0,0.0,0.0,-2.8008,-2.8426,-2.8396,-2.8411,-2.8411,-2.8411,-2.8411,-2.8411,-2.8411,-2.8411,-2.8411,-2.8299,-2.8088,-2.789,-2.784,-2.774,-2.7625,-2.7625,-2.7649,-2.779,-2.3588,-2.3908,-2.4302,-2.454,-2.513,-2.572,-2.6165,-2.6339,-2.6606,-2.701,-2.6928,-2.6728,-2.6446,-2.6304,-2.5941,-2.5432,-2.5369,-2.5359,-2.5211,-2.52,-2.5115,-2.5031,-2.4809,-2.4471,-2.3995,-2.3671,-2.3298,-2.3048,-2.2895,-2.2929,-2.3001,-2.3001,-2.3001,-2.3001,-2.3001,-2.3412,-2.412,-2.448,0.0,-2.53,-2.5721,-2.5791,-2.5931,-2.6633,-2.6905,-2.6973,-2.739,-2.7523,-2.7523,-2.7523,-2.7523,-2.7523,-2.7523,-2.7523,-2.7523,-2.7523,-2.7523,-2.7523,-2.7523,-2.7523,-2.7523,-2.7523,-2.7523,-2.7523,-2.7523,-2.7523,-2.7523,-2.7523,-2.7523,-2.7523,-2.7523,-2.7301,0.0,0.0,0.0,-2.7118,-2.6986,-2.6544,-2.6179,-2.6141,-2.5683,-2.538,-2.538,-2.5952,-2.6238,-2.6087,-2.6294,-2.6163,-2.5692,0.0,0.0,0.0,0.0,0.0,0.0,0.0,0.0,-2.7927,-2.8225,-2.8411,-2.8411,-2.8411,-2.8411,-2.8411,-2.8411,-2.8411,-2.8396,-2.8201,-2.7989,-2.779,-2.774,-2.7675,-2.7625,-2.7625,-2.7408,-2.7152,-2.4146,-2.4447,-2.483,-2.5295,-2.573,-2.6113,-2.6382,-2.6506,-2.6661,-2.6846,-2.6438,-2.5978,-2.5528,-2.5321,-2.5134,-2.4817,-2.4775,-2.4861,-2.5031,-2.5031,-2.4904,-2.4724,-2.4305,-2.3855,-2.329,-2.286,-2.26,-2.2553,-2.2509,-2.2649,-2.2927,-2.2927,-2.2872,-2.2859,-2.2957,0.0,0.0,0.0,-2.4204,-2.4802,-2.5016,-2.5004,-2.5158,-2.5861,-2.6277,-2.6496,-2.704,-2.739,-2.7523,-2.7523,-2.7523,-2.7523,-2.7523,-2.7523,-2.7523,-2.7523,-2.7523,-2.7523,-2.7523,-2.7523,-2.7523,-2.7523,-2.7523,-2.7523,-2.7523,-2.7523,-2.7523,-2.7523,-2.7523,-2.7523,-2.7523,-2.7432,0.0,0.0,0.0,-2.7181,-2.6998,-2.6375,-2.592,-2.5884,-2.5543,-2.5184,-2.4818,-2.5524,-2.5965,-2.5889,-2.6118,-2.6094,-2.5748,-2.6666,-2.7023,0.0,0.0,-2.6909,-2.7593,0.0,-2.7273,-2.7351,-2.792,-2.8186,-2.8186,-2.8348,-2.8411,-2.8411,-2.8411,-2.8363,-2.8314,-2.794,-2.774,-2.774,-2.7524,-2.7473,-2.7625,-2.7625,-2.7203,-2.6654,-2.5016,-2.514,-2.5306,-2.574,-2.6196,-2.6372,-2.5999,-2.6299,-2.6568,-2.6661,-2.6256,-2.5709,-2.5285,-2.5233,-2.5047,-2.4581,-2.454,-2.454,-2.454,-2.454,-2.4353,-2.4033,-2.3981,-2.3545,-2.2573,-2.2925,-2.2845,-2.2176,-2.2531,-2.2751,-2.2703,-2.2703,-2.2635,-2.24,0.0,0.0,0.0,-2.2889,-2.315,-2.3287,-2.3913,-2.4192,-2.4264,-2.5075,-2.5791,-2.6414,-2.6496,-2.6905,-2.7523,-2.7523,-2.7523,-2.7523,-2.7523,-2.7523,-2.7523,-2.7523,-2.7523,-2.7523,-2.7523,-2.7523,-2.7523,-2.7523,-2.7523,-2.7523,-2.7523,-2.7523,-2.7523,-2.7523,-2.7523,-2.7523,-2.7523,-2.7105,-2.6922,0.0,0.0,-2.6324,-2.5806,-2.6091,-2.5793,-2.4305,-2.5579,-2.5903,-2.4347,-2.5654,-2.6227,-2.5179,-2.5709,-2.6096,-2.5981,-2.6259,-2.6497,-2.658,0.0,-2.6331,-2.7672,-2.6621,-2.6313,-2.6778,-2.7321,-2.7565,-2.7615,-2.8137,-2.8411,-2.8411,-2.8411,-2.825,-2.7955,-2.7291,-2.724,-2.756,-2.6982,-2.71,-2.7625,-2.7625,-2.7203,-2.6529,-2.5192,-2.5233,-2.5368,-2.5802,-2.5813,-2.5792,-2.5865,-2.5813,-2.5771,-2.5771,-2.5606,-2.543,-2.5254,-2.4985,-2.4736,-2.456,-2.454,-2.454,-2.454,-2.4291,-2.4064,-2.3888,-2.335,-2.2873,-2.2501,-2.2408,-2.2247,-2.2101,-2.23,-2.2442,-2.2542,-2.2264,-2.2028,0.0,0.0,-2.2531,-2.237,-2.2553,-2.2628,-2.2703,-2.3128,-2.3265,-2.3338,-2.4276,-2.4767,-2.5052,-2.5581,-2.5931,-2.6208,-2.6208,-2.6483,-2.6837,-2.6837,-2.6837,-2.6837,-2.6837,-2.7175,-2.7523,-2.7523,-2.7523,-2.7523,-2.7523,-2.7523,-2.7523,-2.7523,-2.7523,-2.7523,-2.7523,-2.7469,-2.7403,-2.7456,-2.7287,-2.7129,0.0,0.0,0.0,-2.6,-2.5562,-2.5022,-2.4278,-2.4693,-2.4749,-2.4178,-2.5053,-2.5602,-2.5484,-2.607,-2.6146,-2.5572,-2.5876,0.0,-2.6444,0.0,-2.5587,-2.684,-2.61,-2.5813,-2.6036,-2.6688,-2.7041,-2.7041,-2.7261,-2.7342,-2.724,-2.7108,-2.699,-2.6782,-2.6453,-2.6414,-2.6453,-2.5921,-2.6007,-2.6491,-2.6168,-2.5781,-2.5315,-2.5202,-2.5233,-2.5368,-2.5802,-2.5627,-2.5482,-2.5658,-2.543,-2.5181,-2.5047,-2.5026,-2.5026,-2.5026,-2.4736,-2.454,-2.454,-2.454,-2.454,-2.454,-2.4126,-2.3815,-2.3681,-2.2915,-2.2439,-2.2294,-2.1973,-2.1883,-2.2025,-2.2025,-2.2101,0.0,0.0,0.0,0.0,-2.219,-2.2328,-2.22,-2.2349,-2.2402,-2.2402,-2.2553,-2.2628,-2.2767,-2.3412,-2.3829,-2.412,-2.4636,-2.5004,-2.5217,-2.5217,-2.5417,-2.5697,-2.6277,-2.6414,-2.6414,-2.6633,-2.7108,-2.7523,-2.7523,-2.7523,-2.7523,-2.7523,-2.7523,-2.7523,-2.7523,-2.7523,-2.7456,-2.7469,-2.7403,-2.7403,-2.7403,-2.7335,-2.7335,-2.7403,0.0,0.0,-2.5948,-2.5154,-2.4579,-2.4364,-2.4545,-2.4559,-2.4281,-2.504,-2.5497,-2.5563,-2.6099,-2.6136,-2.5445,0.0,0.0,0.0,0.0,0.0,0.0,-2.5809,-2.5479,-2.53,-2.5986,-2.6308,-2.6308,-2.6467,-2.652,-2.639,-2.624,-2.6065,-2.5957,-2.5769,-2.5714,-2.5741,-2.5213,-2.531,-2.5713,-2.5216,-2.483,-2.4363,-2.514,-2.5233,-2.5368,-2.5802,-2.5875,-2.573,-2.5306,-2.5233,-2.5068,-2.4612,-2.455,-2.455,-2.455,-2.4464,-2.454,-2.454,-2.454,-2.454,-2.454,-2.4126,-2.367,-2.3215,-2.2749,-2.2283,-2.1828,-2.1807,-2.1807,-2.1807,-2.1807,0.0,-2.2101,0.0,-2.2147,-2.1711,-2.219,-2.2147,-2.1732,-2.22,-2.2402,-2.2402,-2.2402,-2.2553,-2.2703,-2.2703,-2.3191,-2.3818,-2.3818,-2.4313,-2.5028,-2.5028,-2.4457,-2.4108,-2.5849,-2.6414,-2.6552,-2.7255,-2.7456,-2.7523,-2.7523,-2.7523,-2.7523,-2.7523,-2.7523,-2.7523,-2.7523,-2.7523,-2.7469,-2.7335,-2.7403,-2.7469,-2.7335,-2.7268,-2.7268,-2.7268,0.0,0.0,0.0,-2.5116,-2.4836,-2.4291,-2.5499,-2.5922,-2.4774,-2.5931,-2.619,-2.5066,0.0,0.0,0.0,0.0,0.0,-2.6096,-2.6047,0.0,-2.6294,-2.5708,-2.5135,-2.462,-2.5133,-2.5398,-2.5453,-2.5972,-2.6187,-2.6187,-2.6065,-2.6011,-2.5957,-2.5314,-2.5314,-2.5742,-2.5203,-2.5314,-2.5713,-2.5216,-2.4607,-2.3906,-2.5202,-2.5233,-2.5275,-2.5409,-2.5171,-2.4923,-2.4778,-2.4757,-2.4705,-2.456,-2.454,-2.454,-2.454,-2.454,-2.454,-2.454,-2.454,-2.4416,0.0,-2.366,-2.3194,-2.2739,-2.2273,-2.1952,-2.1807,-2.1807,-2.1807,-2.1807,0.0,0.0,0.0,-2.1803,-2.1709,-2.1272,-2.1741,-2.1952,-2.1741,-2.1962,-2.1949,-2.2025,-2.2101,-2.2252,-2.2327,-2.2478,-2.2617,-2.283,-2.283,-2.3043,-2.3254,-2.3254,-2.3043,-2.3043,-2.4253,-2.4612,-2.4826,-2.5709,-2.6,-2.6139,-2.6633,-2.6769,-2.6837,-2.7268,-2.717,-2.6948,-2.6752,-2.6466,-2.6401,-2.6992,-2.6758,-2.6537,-2.7002,-2.6998,-2.693,-2.7079,-2.6138,0.0,-2.5141,-2.433,-2.3725,-2.3682,-2.4096,-2.4234,0.0,-2.4809,0.0,0.0,0.0,0.0,0.0,0.0,0.0,0.0,-2.5887,0.0,-2.5936,-2.5493,-2.4958,-2.4421,-2.4708,-2.4878,-2.4878,-2.4908,-2.4881,-2.4881,-2.4738,-2.4694,-2.4694,-2.4492,-2.4505,-2.4526,-2.3572,-2.3548,-2.3914,-2.2871,-2.2551,-2.2492,-2.4974,-2.4974,-2.4974,-2.4974,-2.465,-2.454,-2.454,-2.454,-2.454,-2.454,-2.454,-2.454,-2.454,-2.454,0.0,-2.454,-2.454,-2.4416,-2.4146,-2.3536,-2.306,-2.277,-2.2149,-2.1807,-2.1807,-2.1807,0.0,-2.1807,-2.1807,-2.1652,-2.1383,-2.1662,-2.1652,-2.1383,-2.1673,-2.1807,-2.1807,-2.1807,-2.1807,-2.1807,-2.1959,-2.2025,-2.2101,-2.2252,-2.2252,-2.2252,-2.2252,-2.2252,-2.2252,-2.2252,-2.2252,-2.2467,-2.339,-2.3463,-2.339,-2.4779,-2.5229,-2.5441,-2.6139,-2.6277,-2.6433,-2.6917,-2.6973,-2.6804,-2.6466,-2.591,-2.5653,-2.6164,-2.6136,-2.6136,-2.6493,-2.6655,-2.6726,-2.6875,-2.58,-2.5,-2.5,-2.3903,-2.3213,-2.3573,0.0,0.0,0.0,-2.4317,-2.4542,0.0,0.0,0.0,0.0,0.0,0.0,-2.5824,-2.6033,0.0,-2.5824,-2.552,-2.5004,-2.4261,-2.4332,-2.439,-2.439,-2.4261,-2.4189,-2.4203,-2.4171,-2.4112,-2.4112,-2.4112,-2.3981,-2.3707,-2.2932,-2.2812,-2.2994,-2.1908,-2.1671,-2.1822,-2.454,-2.454,-2.454,0.0,-2.454,0.0,-2.454,-2.454,-2.454,-2.454,-2.454,-2.454,-2.454,-2.454,-2.454,-2.454,0.0,0.0,0.0,-2.366,-2.3153,-2.3091,-2.2263,-2.1807,-2.1807,-2.1807,-2.1807,-2.1807,-2.1776,-2.1776,-2.1807,-2.1807,-2.1807,-2.1807,-2.1807,-2.1807,-2.1807,-2.1807,-2.1807,-2.1807,-2.1807,-2.1883,-2.2101,-2.2101,-2.2101,-2.2101,-2.2101,-2.2101,-2.2101,-2.2101,-2.208,-2.2199,-2.304,-2.2765,-2.2424,-2.4374,-2.5063,-2.53,-2.5849,-2.5951,-2.6021,-2.6438,-2.6736,-2.685,-2.6258,-2.5563,-2.5078,-2.5027,-2.5575,-2.601,-2.5876,-2.6308,-2.6582,-2.6582,-2.5577,-2.4808,-2.477,-2.3828,-2.3351,0.0,0.0,0.0,0.0,-2.4338,-2.4218,0.0,0.0,0.0,0.0,0.0,-2.5863,-2.5824,-2.6412,-2.6438,-2.5837,-2.5824,-2.5249,-2.4112,-2.4112,-2.4112,-2.4112,-2.4112,-2.4112,-2.4112,-2.4073,-2.406,-2.4047,-2.4008,-2.3668,-2.3102,-2.3002,-2.2946,-2.2825,-2.2159,-2.1898,-2.178,0.0,0.0,-2.454,-2.454,-2.454,-2.454,-2.454,-2.454,-2.454,-2.454,-2.454,-2.454,-2.454,-2.454,-2.454,-2.454,-2.454,-2.425,-2.3546,-2.3308,-2.2873,-2.2159,-2.1921,-2.1807,-2.1807,-2.1807,-2.1807,-2.1807,-2.1455,-2.1455,-2.1807,-2.1807,-2.1807,-2.1807,-2.1807,-2.1807,-2.1807,-2.1807,-2.1807,-2.1807,-2.1807,-2.1807,-2.1883,-2.1883,-2.1883,-2.1883,-2.1883,-2.1883,-2.1883,-2.1883,-2.1645,-2.1417,-2.1776,-2.1702,-2.1997,-2.4149,-2.4432,-2.4166,-2.485,-2.4765,-2.4596,-2.4859,-2.4429,-2.3783,-2.3311,-2.3113,-2.3306,-2.3949,-2.4313,-2.4772,-2.5514,-2.5778,-2.5866,-2.5866,-2.5247,-2.4669,-2.4255,-2.3577,-2.3351,0.0,-2.4054,-2.4054,-2.4054,-2.4178,-2.406,0.0,0.0,0.0,0.0,-2.5615,-2.6282,-2.5837,-2.6804,-2.6844,-2.5837,-2.5824,-2.5249,-2.4112,-2.4112,-2.4112,-2.4112,-2.4112,-2.4112,-2.4086,-2.3629,-2.3433,-2.3393,-2.2949,-2.2646,-2.2405,-2.2363,-2.224,-2.2146,-2.1852,-2.1746,-2.167,-2.454,-2.454,-2.454,-2.454,-2.454,-2.454,-2.454,-2.454,-2.454,-2.454,-2.454,-2.454,-2.454,-2.4364,-2.424,-2.424,-2.424,-2.4033,-2.3536,-2.3111,-2.2646,-2.2149,-2.1714,-2.1487,-2.1487,-2.128,-2.128,-2.1487,-2.1238,-2.1352,-2.1807,-2.1807,-2.1807,-2.1807,-2.1807,-2.1807,-2.1807,-2.1807,-2.1807,-2.1807,-2.1807,-2.1807,-2.1807,-2.1807,-2.1807,-2.1776,-2.1569,-2.1487,-2.1455,-2.1248,-2.101,-2.0834,-2.1188,-2.1115,-2.1311,-2.3077,-2.3162,-2.2882,-2.3572,-2.342,-2.3167,-2.3642,-2.3107,-2.2511,-2.2633,-2.2423,-2.2468,-2.3327,-2.3753,-2.4255,-2.5084,-2.5247,-2.5322,-2.5561,-2.4946,-2.4343,-2.4042,-2.3502,0.0,-2.3565,-2.3602,-2.3602,-2.3602,-2.3664,-2.3586,-2.3403,-2.3837,0.0,-2.3891,-2.5114,-2.5801,-2.5824,-2.6674,-2.6713,-2.5837,-2.5301,-2.4726,-2.4112,-2.4112,-2.4112,-2.4112,-2.4112,-2.4112,-2.4099,-2.3772,-2.3415,-2.3085,-2.2773,-2.2289,-2.1701,-2.1594,-2.1498,-2.1444,-2.1268,-2.1268,-2.1214,-2.454,-2.454,-2.454,-2.454,-2.454,-2.454,-2.454,-2.4488,-2.4467,-2.4444,-2.4478,-2.4467,-2.4444,-2.4209,-2.3981,-2.3981,-2.3857,-2.3743,-2.3681,-2.2936,-2.2439,-2.2294,-2.16,-2.1155,-2.101,-2.0555,-2.0555,-2.101,-2.0938,-2.1145,-2.16,-2.1662,-2.1694,-2.1704,-2.1776,-2.1807,-2.1797,-2.1725,-2.1694,-2.1694,-2.1694,-2.1694,-2.1714,-2.1776,-2.1807,-2.1756,-2.1362,-2.1217,-2.1145,-2.0679,-2.0483,-2.0483,-2.0814,-2.0638,-2.0552,-2.1661,-2.1757,-2.1581,-2.2347,-2.2165,-2.1871,-2.2297,-2.2033,-2.1812,-2.2467,-2.2175,-2.199,-2.2689,-2.3344,-2.4029,-2.4655,-2.482,-2.4996,-2.5511,-2.4695,-2.4004,-2.4004,0.0,-2.3103,-2.3263,-2.3263,-2.3263,-2.3263,-2.3263,-2.3226,-2.315,-2.333,-2.3463,-2.3569,-2.4262,-2.4987,-2.5556,-2.6255,-2.6269,-2.5707,-2.4648,-2.4112,-2.4112,-2.4112,-2.4112,-2.4112,-2.4112,-2.4112,-2.4112,-2.3962,-2.3527,-2.2868,-2.2778,-2.2008,-2.095,-2.0894,-2.0891,-2.0863,-2.0819,-2.0844,-2.084,-2.454,-2.454,-2.454,-2.454,-2.454,-2.454,-2.454,-2.4219,-2.4115,-2.4498,-2.4219,-2.4126,-2.4498,-2.4478,-2.4436,-2.4436,-2.3732,-2.3132,-2.2739,-2.2573,-2.2149,-2.1362,-2.1569,-2.1331,-2.0555,-2.0089,-2.0079,-2.0534,-2.0162,-2.0203,-2.0648,-2.1041,-2.1217,-2.1238,-2.1631,-2.1807,-2.1776,-2.1393,-2.1217,-2.1217,-2.1217,-2.1217,-2.1269,-2.1652,-2.1807,-2.1797,-2.1725,-2.1694,-2.1631,-2.1166,-2.0752,-2.0369,-2.0069,-1.9924,-2.0024,-2.0542,-2.0407,-2.0411,-2.1908,-2.1782,-2.1009,-1.9959,-1.9906,-2.0043,-1.9775,-2.0085,-2.0602,-2.125,-2.2369,-2.3497,-2.4591,-2.482,-2.4996,-2.5511,-2.4695,-2.4004,-2.4004,0.0,-2.3314,-2.3803,-2.3866,-2.3866,-2.3866,-2.3866,-2.3727,-2.3368,-2.3403,-2.3463,-2.3569,-2.4214,-2.4561,-2.4713,-2.553,-2.568,-2.5105,-2.4439,-2.4112,-2.4112,-2.4112,-2.4112,-2.4112,-2.4112,-2.4112,-2.4086,-2.3475,-2.2873,-2.2302,-2.1673,-2.0923,-2.0219,-2.0714,-2.0851,-2.0781,-2.1247,-2.1355,-2.1305,-2.4136,-2.3981,-2.3888,-2.4136,-2.3981,-2.3815,-2.3815,-2.3639,-2.3577,-2.3784,-2.3846,-2.396,-2.4167,-2.4188,-2.4084,-2.3836,-2.3205,-2.2615,-2.2159,-2.2128,-2.1828,-2.1145,-2.1083,-2.0627,-1.9717,-1.9489,-1.9613,-2.0069,-1.9862,-1.9986,-2.0431,-2.0638,-2.0741,-2.0752,-2.0969,-2.1062,-2.1041,-2.0834,-2.0886,-2.1114,-2.1114,-2.1269,-2.1487,-2.1445,-2.1435,-2.1373,-2.0876,-2.07,-2.0638,-2.0172,-1.9872,-1.9696,-1.9748,-1.9661,-1.9479,-1.9934,-2.0089,-2.017,-2.0514,-2.0474,-2.0172,-1.9292,-1.9484,-1.9771,-1.9624,-2.0161,-2.0805,-2.1491,-2.2621,-2.3827,-2.4655,-2.4569,-2.4556,-2.5096,-2.4255,0.0,0.0,-2.3314,-2.3226,-2.3502,-2.354,-2.354,-2.354,-2.354,-2.3427,-2.3223,-2.3271,-2.333,-2.3509,-2.3752,-2.3952,-2.4013,-2.4796,-2.4957,-2.4517,-2.4197,-2.4008,-2.4112,-2.4008,-2.4008,-2.4008,-2.4008,-2.3936,-2.378,-2.3141,-2.2519,-2.1886,-2.1268,-2.0726,-2.0381,-2.0343,-2.0454,-2.0706,-2.0602,-2.0778,-2.1054,-2.3567,-2.335,-2.3227,-2.366,-2.3422,-2.3184,-2.3184,-2.3091,-2.307,-2.3174,-2.3401,-2.3598,-2.3712,-2.3712,-2.3577,-2.3215,-2.277,-2.2346,-2.1994,-2.1766,-2.1445,-2.0979,-2.041,-1.9831,-1.9241,-1.9127,-1.9251,-1.9671,-1.9671,-1.9779,-2.011,-2.0213,-2.0265,-2.0276,-2.0379,-2.042,-2.042,-2.0317,-2.0472,-2.0803,-2.0803,-2.1073,-2.1445,-2.1093,-2.1021,-2.101,-2.0203,-1.9913,-1.9841,-1.9453,-1.923,-1.9339,-1.9588,-1.9354,-1.9158,-1.9692,-2.0006,-2.012,-1.9417,-1.9557,-1.9713,-1.9256,-1.9344,-1.9703,-1.9856,-2.0355,-2.0996,-2.1542,-2.2706,-2.3772,-2.4189,-2.3931,-2.3833,-2.4439,0.0,0.0,0.0,-2.2702,-2.2689,-2.2884,-2.2884,-2.2944,-2.3065,-2.3078,-2.3078,-2.3078,-2.3078,-2.3138,-2.333,-2.333,-2.339,-2.3569,-2.4159,-2.4305,-2.3995,-2.3891,-2.3878,-2.3995,-2.3748,-2.3625,-2.3625,-2.3496,-2.336,-2.3205,-2.2713,-2.2145,-2.1475,-2.1044,-2.0683,-2.0426,-1.9974,-2.0075,-2.0426,-2.0112,-2.0288,-2.0806,-2.291,-2.2971,-2.2961,-2.3236,-2.3215,-2.3184,-2.3184,-2.2822,-2.2708,-2.3132,-2.2842,-2.276,-2.3194,-2.3236,-2.3225,-2.3184,-2.277,-2.248,-2.2449,-2.1642,-2.0959,-2.0493,-1.9634,-1.9344,-1.9775,-1.9292,-1.9085,-1.9116,-1.9116,-1.9137,-1.9178,-1.9613,-1.981,-1.9831,-2.0245,-2.042,-2.04,-1.9986,-1.9831,-1.9931,-1.9931,-2.0131,-2.0524,-2.0483,-2.0741,-2.1052,-2.0555,-2.0379,-2.0307,-1.9862,-1.9775,-1.9713,-1.9251,-1.9162,-1.9158,-1.9692,-1.9858,-1.9799,-1.9796,-1.9806,-1.9713,-1.9256,-1.9162,-1.9183,-1.9142,-1.9715,-2.0161,-2.0226,-2.1551,-2.2694,-2.2728,-2.2705,-2.2923,-2.3526,0.0,0.0,-2.1916,-2.1527,-2.1502,-2.2113,-2.2175,-2.2433,-2.3065,-2.3078,-2.3078,-2.3078,-2.3078,-2.3138,-2.3138,-2.3138,-2.3198,-2.3403,-2.3607,-2.3667,-2.3628,-2.3628,-2.3628,-2.3616,-2.3103,-2.2904,-2.2834,-2.2364,-2.2133,-2.212,-2.1903,-2.1492,-2.0929,-2.0784,-2.0404,-1.9861,-1.9823,-1.9823,-1.9924,-2.0426,-2.068,-2.0806,-2.224,-2.2068,-2.2048,-2.2676,-2.2544,-2.2351,-2.251,-2.2603,-2.2713,-2.277,-2.2853,-2.2987,-2.3163,-2.3184,-2.307,-2.278,-2.2594,-2.2377,-2.2087,-2.1476,-2.0783,-2.0048,-1.9406,-1.9147,-1.9323,-1.9158,-1.9075,-1.9075,-1.9075,-1.9075,-1.9075,-1.9251,-1.9401,-1.9344,-1.951,-1.9582,-1.9572,-1.9406,-1.9499,-1.9827,-1.9827,-2.0027,-2.0389,-2.012,-2.012,-2.0213,-1.9748,-1.9582,-1.9561,-1.9385,-1.9401,-1.9303,-1.9127,-1.9075,-1.9106,-1.9282,-1.9401,-1.9401,-1.9401,-1.9401,-1.9292,-1.9116,-1.9075,-1.9075,-1.9075,-1.9649,-2.0096,-2.0096,-2.1194,-2.2189,-2.2189,-2.2189,-2.2258,-2.2453,0.0,-2.1192,-2.1376,-2.1238,-2.1187,-2.1428,-2.1865,-2.2175,-2.2433,-2.2884,-2.3078,-2.3078,-2.3078,-2.3078,-2.3078,-2.3078,-2.3138,-2.321,-2.3258,-2.3378,-2.3628,-2.3509,-2.3509,-2.3616,-2.2936,-2.2859,-2.3165,-2.2235,-2.214,-2.2635,-2.1529,-2.1163,-2.1226,-2.0467,-2.0213,-2.03,-1.9936,-2.0024,-2.0363,-2.0643,-2.0932,-2.1255,-2.1729,-2.1439,-2.1318,-2.201,-2.197,-2.1849,-2.2007,-2.2271,-2.2442,-2.2295,-2.2487,-2.2549,-2.2405,-2.2395,-2.2261,-2.1953,-2.1922,-2.185,-2.1589,-2.109,-2.0483,-1.9799,-1.938,-1.9075,-1.9075,-1.9075,-1.9075,-1.9075,-1.9075,-1.9075,-1.9075,-1.9075,-1.9075,-1.9075,-1.9075,-1.9075,-1.9075,-1.9075,-1.9318,-1.9609,-1.9609,-1.981,-2.0162,-1.9717,-1.9702,-1.9765,-1.9297,-1.9075,-1.9075,-1.9075,-1.9075,-1.9075,-1.9075,-1.9075,-1.9075,-1.9075,-1.9075,-1.9075,-1.9075,-1.9075,-1.9075,-1.9075,-1.9075,-1.9075,-1.9075,-1.9649,-2.0031,-1.9846,-2.0731,-2.1517,-2.1252,-2.1252,-2.1252,-2.1252,-2.0796,-2.0484,-2.0484,-2.0677,-2.0869,-2.106,-2.1678,-2.2175,-2.2359,-2.2811,-2.3078,-2.3078,-2.3078,-2.3078,-2.3078,-2.3078,-2.3078,-2.3078,-2.3078,-2.3198,-2.3437,-2.333,-2.333,-2.3437,-2.2832,-2.2698,-2.3039,-2.2078,-2.2009,-2.256,-2.1418,-2.1041,-2.1167,-2.0388,-2.02,-2.0351,-1.9962,-2.0162,-2.0743,-2.092,-2.1167,-2.1568,-2.1471,-2.1204,-2.0994,-2.1138,-2.1577,-2.1779,-2.1769,-2.1779,-2.1779,-2.1769,-2.1477,-2.1044,-2.0612,-2.0561,-2.0561,-2.0551,-2.0636,-2.0742,-2.1165,-2.0498,-2.0012,-1.9779,-1.938,-1.9075,-1.9075,-1.9075,-1.9075,-1.9075,-1.9075,-1.9075,-1.9075,-1.9075,-1.9075,-1.9075,-1.9075,-1.9075,-1.9075,-1.9075,-1.9075,-1.9075,-1.9075,-1.9344,-1.9775,-1.9251,-1.9422,-1.9696,-1.9297,-1.9075,-1.9075,-1.9075,-1.9075,-1.9075,-1.9075,-1.9075,-1.9075,-1.9075,-1.9075,-1.9075,-1.9075,-1.9075,-1.9075,-1.9075,-1.9075,-1.9075,-1.9075,-1.9584,-1.9911,-1.9264,-2.0023,-2.0557,-1.9896,-1.9827,-1.9827,-1.9827,-1.9375,-1.9075,-1.9075,-1.9649,-2.0355,-2.1008,-2.1678,-2.2372,-2.3005,-2.3078,-2.3078,-2.3078,-2.3078,-2.3078,-2.3078,-2.3078,-2.3078,-2.3078,-2.3078,-2.3078,-2.3078,-2.3078,-2.3078,-2.3065,-2.2573,-2.2309,-2.2297,-2.1744,-2.1493,-2.1506,-2.1493,-2.1179,-2.0731,-2.0731,-2.0326,-1.9811,-1.9811,-2.0162,-2.0781,-2.128,-2.1493,-2.1556,-2.1369,-2.1458,-2.1585,-2.1656,-2.1765,-2.1826,-2.159,-2.1889,-2.2059,-2.1909,-2.1758,-2.1497,-2.1034,-2.0807,-2.0505,-2.0161,-2.0224,-2.042,-2.0616,-2.0144,-1.9833,-1.9768,-1.938,-1.9075,-1.9075,-1.9075,-1.9075,-1.9075,-1.9075,-1.9075,-1.9075,-1.9075,-1.9075,-1.9075,-1.9075,-1.9075,-1.9075,-1.9075,-1.9075,-1.9075,-1.9075,-1.9147,-1.9261,-1.9116,-1.9158,-1.9261,-1.9116,-1.9075,-1.9075,-1.9075,-1.9075,-1.9075,-1.9075,-1.9075,-1.9075,-1.9075,-1.9075,-1.9075,-1.9075,-1.9075,-1.9075,-1.9075,-1.9075,-1.9075,-1.9075,-1.9264,-1.933,-1.9131,-1.9368,-1.954,-1.9339,-1.9282,-1.9282,-1.9282,-1.9158,-1.9075,-1.9075,-1.9264,-1.9452,-1.9649,-2.0291,-2.0794,-2.0985,-2.1865,-2.2433,-2.2433,-2.2811,-2.3078,-2.3078,-2.3078,-2.3078,-2.3078,-2.3078,-2.3078,-2.3078,-2.3078,-2.3078,-2.3065,-2.2573,-2.2523,-2.2862,-2.192,-2.1907,-2.2598,-2.1832,-2.1606,-2.1794,-2.1405,-2.0916,-2.0451,-2.084,-2.0602,-2.0175,-2.1142,-2.1242,-2.1046,-2.1514,-2.1426,-2.1416,-2.1602,-2.1484,-2.135,-2.1164,-2.1204,-2.1243,-2.1143,-2.0954,-2.0675,-2.0217,-1.9949,-1.969,-1.9402,-1.9695,-1.9869,-1.9809,-1.9554,-1.94,-1.9295,-1.9085,-1.9008,-1.9075,-1.9075,-1.9075,-1.9075,-1.9075,-1.9075,-1.9075,-1.9075,-1.9075,-1.9075,-1.9075,-1.9075,-1.9075,-1.9075,-1.9075,-1.9075,-1.9075,-1.9075,-1.9075,-1.9075,-1.9075,-1.9075,-1.9075,-1.9075,-1.9075,-1.9075,-1.9075,-1.9075,-1.9075,-1.9075,-1.9075,-1.9075,-1.9075,-1.9075,-1.9075,-1.9075,-1.9075,-1.9075,-1.9075,-1.9075,-1.9075,-1.9075,-1.9075,-1.9075,-1.9075,-1.9075,-1.9075,-1.9075,-1.9075,-1.9075,-1.9075,-1.9075,-1.9075,-1.933,-1.9518,-1.9518,-2.0107,-2.0484,-2.0484,-2.1479,-2.2237,-2.2494,-2.2884,-2.3078,-2.3078,-2.3078,-2.3078,-2.3078,-2.3078,-2.3078,-2.3078,-2.3078,-2.3078,-2.3078,-2.2799,-2.2811,-2.3053,-2.2447,-2.2498,-2.3027,-2.2196,-2.1882,-2.1945,-2.1393,-2.0828,-2.0351,-2.069,-2.0539,-2.0225,-2.0916,-2.0953,-2.0715,-2.165,-2.1094,-2.0684,-2.1055,-2.0781,-2.0498,-2.0459,-2.0146,-1.9902,-1.9863,-1.9561,-1.916,-1.8691,-1.8562,-1.8623,-1.8584,-1.8936,-1.9147,-1.8884,-1.8844,-1.8755,-1.8502,-1.8674,-1.8875,-1.9075,-1.9065,-1.9075,-1.9075,-1.9075,-1.9075,-1.9075,-1.9075,-1.9075,-1.9075,-1.9075,-1.9075,-1.9075,-1.9075,-1.9075,-1.9075,-1.9075,-1.9075,-1.9075,-1.9075,-1.9075,-1.9075,-1.9075,-1.9075,-1.9075,-1.9075,-1.9075,-1.9075,-1.9075,-1.9075,-1.9075,-1.9075,-1.9075,-1.9075,-1.9075,-1.9075,-1.9054,-1.9023,-1.9044,-1.9075,-1.9075,-1.9075,-1.9075,-1.9075,-1.9075,-1.9075,-1.9075,-1.9075,-1.9075,-1.9075,-1.9075,-1.9075,-1.9075,-1.9649,-2.0042,-2.0096,-2.0613,-2.0996,-2.106,-2.1741,-2.2372,-2.3078,-2.3078,-2.3078,-2.3078,-2.3078,-2.3078,-2.3078,-2.3078,-2.3078,-2.3078,-2.3078,-2.3078,-2.3078,-2.3078,-2.3078,-2.3078,-2.3078,-2.3053,-2.2977,-2.2535,-2.202,-2.1518,-2.0966,-2.0426,-1.9949,-1.9949,-2.0213,-2.0589,-2.0652,-2.0639,-2.0589,-2.0459,-2.0459,-2.0488,-2.0244,-2.0117,-1.9941,-1.9619,-1.9766,-1.9795,-1.9463,-1.9629,-1.9482,-1.8721,-1.8562,-1.8506,-1.8174,-1.837,-1.8517,-1.8554,-1.8622,-1.8572,-1.8482,-1.8549,-1.8617,-1.8607,-1.8942,-1.9075,-1.9075,-1.9075,-1.9075,-1.9075,-1.9075,-1.9075,-1.9075,-1.9075,-1.9075,-1.9075,-1.9075,-1.9075,-1.9075,-1.9075,-1.9075,-1.9075,-1.9075,-1.9075,-1.9075,-1.9075,-1.9075,-1.9075,-1.9075,-1.9075,-1.9075,-1.9075,-1.9075,-1.9075,-1.9075,-1.9075,-1.9075,-1.9075,-1.9075,-1.8982,-1.862,-1.8806,-1.9075,-1.9075,-1.9075,-1.9075,-1.9075,-1.9075,-1.9075,-1.9075,-1.9075,-1.9075,-1.9075,-1.9075,-1.9075,-1.9075,-1.9198,-1.9518,-2.0031,-2.0226,-2.0549,-2.1071,-2.1741,-2.2372,-2.3078,-2.3078,-2.3078,-2.3078,-2.3078,-2.3078,-2.3078,-2.3078,-2.3078,-2.3078,-2.3078,-2.3078,-2.3078,-2.3078,-2.3078,-2.3078,-2.3078,-2.2899,-2.2485,-2.2359,-2.2246,-2.2083,-2.1543,-2.1242,-2.1129,-2.1129,-2.0665,-2.0049,-2.0395,-2.0229,-1.9843,-1.9961,-1.9941,-1.9941,-1.9922,-1.958,-1.9228,-1.9014,-1.8994,-1.8926,-1.8711,-1.8867,-1.8838,-1.8389,-1.834,-1.8252,-1.8027,-1.8076,-1.8212,-1.8279,-1.8279,-1.8279,-1.8279,-1.8347,-1.8414,-1.8414,-1.8674,-1.8808,-1.8808,-1.8808,-1.8808,-1.8808,-1.8808,-1.8808,-1.8808,-1.8808,-1.8808,-1.8808,-1.8942,-1.8875,-1.8808,-1.9008,-1.9075,-1.8942,-1.9065,-1.9075,-1.9075,-1.9075,-1.9075,-1.9075,-1.9075,-1.9075,-1.9075,-1.9075,-1.9075,-1.9075,-1.9075,-1.9075,-1.9075,-1.9075,-1.9075,-1.9013,-1.8775,-1.8889,-1.9013,-1.8796,-1.8909,-1.9075,-1.9075,-1.9075,-1.9075,-1.9075,-1.9075,-1.9075,-1.9075,-1.9075,-1.9075,-1.9075,-1.9075,-1.9198,-1.9584,-1.9649,-1.9911,-2.0549,-2.1239,-2.1928,-2.2555,-2.2944,-2.3078,-2.3078,-2.3078,-2.3078,-2.3078,-2.3078,-2.3078,-2.3078,-2.3078,-2.3078,-2.3078,-2.3078,-2.3078,-2.3078,-2.3078,-2.2975,-2.2686,-2.2422,-2.2309,-2.2246,-2.1387,-2.0994,-2.0969,-2.064,-2.0126,-1.9641,-1.9899,-1.9731,-1.942,-1.9531,-1.9307,-1.918,-1.9531,-1.9004,-1.8525,-1.8525,-1.8291,-1.8086,-1.8018,-1.8076,-1.8086,-1.8018,-1.8008,-1.8008,-1.8008,-1.8008,-1.8008,-1.8008,-1.8008,-1.8008,-1.8008,-1.8134,-1.8269,-1.8269,-1.8347,-1.8414,-1.8482,-1.8482,-1.8482,-1.8482,-1.8482,-1.8482,-1.8482,-1.8482,-1.8482,-1.8482,-1.8674,-1.8684,-1.8549,-1.8875,-1.8875,-1.8741,-1.8942,-1.9008,-1.9008,-1.9008,-1.9008,-1.9008,-1.9008,-1.9008,-1.9008,-1.9008,-1.9008,-1.9065,-1.9065,-1.9075,-1.9075,-1.9075,-1.9075,-1.9054,-1.8971,-1.9013,-1.8951,-1.8485,-1.8733,-1.9075,-1.9075,-1.9075,-1.9075,-1.9075,-1.9075,-1.9075,-1.9075,-1.9075,-1.9162,-1.9178,-1.9116,-1.9162,-1.9368,-1.9449,-1.9715,-2.0355,-2.0921,-2.1565,-2.2237,-2.2811,-2.3078,-2.3078,-2.3078,-2.3078,-2.3078,-2.3078,-2.3078,-2.3078,-2.3078,-2.3078,-2.3078,-2.3078,-2.3078,-2.3078,-2.3078,-2.3027,-2.2915,-2.2451,-2.2201,-2.1981,-2.0926,-2.0461,-2.0358,-1.9695,-1.942,-1.942,-1.9368,-1.9275,-1.917,-1.833,-1.8223,-1.8203,-1.8262,-1.8174,-1.8096,-1.8096,-1.8359,-1.8418,-1.8057,-1.833,-1.8418,-1.8047,-1.8008,-1.8008,-1.8008,-1.8008,-1.8008,-1.8008,-1.8008,-1.8008,-1.8008,-1.8008,-1.8008,-1.8008,-1.8076,-1.8212,-1.8482,-1.8482,-1.8482,-1.8482,-1.8482,-1.8482,-1.8482,-1.8482,-1.8482,-1.8482,-1.8549,-1.8549,-1.8482,-1.8549,-1.8549,-1.8549,-1.8549,-1.8549,-1.8549,-1.8549,-1.8549,-1.8549,-1.8549,-1.8549,-1.8549,-1.8549,-1.8684,-1.8808,-1.8808,-1.8942,-1.9075,-1.9075,-1.9075,-1.8971,-1.8578,-1.8775,-1.8951,-1.8485,-1.8733,-1.9075,-1.9075,-1.9075,-1.9075,-1.9075,-1.9075,-1.9075,-1.9075,-1.9075,-1.921,-1.9682,-1.9391,-1.9488,-2.0485,-2.074,-2.1112,-2.1791,-2.1928,-2.2237,-2.2944,-2.3078,-2.3078,-2.3078,-2.3078,-2.3078,-2.3078,-2.3078,-2.3078,-2.3078,-2.3078,-2.3078,-2.3078,-2.3078,-2.3078,-2.3078,-2.3078,-2.2755,-2.2259,-2.2185,-2.1758,-2.1149,-2.0477,-2.0232,-2.017,-1.9629,-1.942,-1.9368,-1.9275,-1.917,-1.9052,-1.7401,-1.7725,-1.8008,-1.8008,-1.8008,-1.8008,-1.8008,-1.8164,-1.8223,-1.8037,-1.8164,-1.8213,-1.8037,-1.8008,-1.8008,-1.8008,-1.8008,-1.8008,-1.8008,-1.8008,-1.8008,-1.8008,-1.8008,-1.8008,-1.8008,-1.8008,-1.8076,-1.8212,-1.8212,-1.8212,-1.8212,-1.8212,-1.8212,-1.8212,-1.8212,-1.8212,-1.8212,-1.8347,-1.8347,-1.8212,-1.8414,-1.8482,-1.8414,-1.8482,-1.8482,-1.8482,-1.8482,-1.8482,-1.8482,-1.8482,-1.8482,-1.8482,-1.8482,-1.8549,-1.8607,-1.8607,-1.8684,-1.8741,-1.8741,-1.8875,-1.889,-1.8695,-1.8854,-1.9079,-1.8816,-1.892,-1.9075,-1.9075,-1.9075,-1.9075,-1.9075,-1.9075,-1.9075,-1.9075,-1.9292,-1.9505,-1.9453,-1.9495,-1.9697,-2.0368,-2.0488,-2.0677,-2.0974,-2.1302,-2.1491,-2.129,-2.1592,-2.1978,-2.2249,-2.2384,-2.258,-2.2969,-2.3078,-2.3078,-2.3078,-2.3078,-2.3078,-2.3078,-2.3017,-2.3017,-2.3078,-2.3017,-2.2832,-2.2548,-2.2501,-2.2246,-2.1891,-2.0929,-2.0519,-2.0433,-1.9539,-1.9158,-1.9146,-1.9105,-1.9052,-1.8987]},{"header":{"parameterUnit":"m.s-1","parameterCategory":1,"la1":30.6,"la2":28.766,"lo1":-90.7593,"lo2":-88.6598,"dy":0.0162,"dx":0.0183,"nx":116,"ny":114,"refTime":"2023-06-04T12:00:00:Z","depth":0,"parameterNumber":3,"parameterNumberName":"V-component_of_WINDS"},"data":[0.0,0.0,0.0,0.0,0.0,0.0,0.0,0.0,0.0,0.0,0.0,0.0,0.0,0.0,0.0,0.0,0.0,0.0,0.0,0.0,0.0,0.0,0.0,0.0,0.0,0.0,0.0,0.0,0.0,0.0,0.0,0.0,0.0,0.0,0.0,0.0,0.0,0.0,0.0,0.0,0.0,0.0,0.0,0.0,0.0,0.0,0.0,0.0,0.0,0.0,0.0,0.0,0.0,0.0,0.0,0.0,0.0,0.0,0.0,0.0,0.0,0.0,0.0,0.0,0.0,0.0,0.0,0.0,0.0,0.0,0.0,0.0,0.0,0.0,0.0,0.0,0.0,0.0,0.0,0.0,0.0,0.0,0.0,0.0,0.0,0.0,0.0,0.0,0.0,0.0,0.0,0.0,0.0,0.0,0.0,0.0,0.0,0.0,0.0,0.0,0.0,0.0,0.0,0.0,0.0,0.0,0.0,0.0,0.0,0.0,0.0,0.0,0.0,0.0,0.0,0.0,0.0,0.0,0.0,0.0,0.0,0.0,0.0,0.0,0.0,0.0,0.0,0.0,0.0,0.0,0.0,0.0,0.0,0.0,0.0,0.0,0.0,0.0,0.0,0.0,0.0,0.0,0.0,0.0,0.0,0.0,0.0,0.0,0.0,0.0,0.0,0.0,0.0,0.0,0.0,0.0,0.0,0.0,0.0,0.0,0.0,0.0,0.0,0.0,0.0,0.0,0.0,0.0,0.0,0.0,0.0,0.0,0.0,0.0,0.0,0.0,0.0,0.0,0.0,0.0,0.0,0.0,0.0,0.0,0.0,0.0,0.0,0.0,0.0,0.0,0.0,0.0,0.0,0.0,0.0,0.0,0.0,0.0,0.0,0.0,0.0,0.0,0.0,0.0,0.0,0.0,0.0,0.0,0.0,0.0,0.0,0.0,0.0,0.0,0.0,0.0,0.0,0.0,0.0,0.0,0.0,0.0,0.0,0.0,0.0,0.0,0.0,0.0,0.0,0.0,0.0,0.0,0.0,0.0,0.0,0.0,0.0,0.0,0.0,0.0,0.0,0.0,0.0,0.0,0.0,0.0,0.0,0.0,0.0,0.0,0.0,0.0,0.0,0.0,0.0,0.0,0.0,0.0,0.0,0.0,0.0,0.0,0.0,0.0,0.0,0.0,0.0,0.0,0.0,0.0,0.0,0.0,0.0,0.0,0.0,0.0,0.0,0.0,0.0,0.0,0.0,0.0,0.0,0.0,0.0,0.0,0.0,0.0,0.0,0.0,0.0,0.0,0.0,0.0,0.0,0.0,0.0,0.0,0.0,0.0,0.0,0.0,0.0,0.0,0.0,0.0,0.0,0.0,0.0,0.0,0.0,0.0,0.0,0.0,0.0,0.0,0.0,0.0,0.0,0.0,0.0,0.0,0.0,0.0,0.0,0.0,0.0,0.0,0.0,0.0,0.0,0.0,0.0,0.0,0.0,0.0,0.0,0.0,0.0,0.0,0.0,0.0,0.0,0.0,0.0,0.0,0.0,0.0,0.0,0.0,0.0,0.0,0.0,0.0,0.0,0.0,0.0,0.0,0.0,0.0,0.0,0.0,0.0,0.0,0.0,0.0,0.0,0.0,0.0,0.0,0.0,0.0,0.0,0.0,0.0,0.0,0.0,0.0,0.0,0.0,0.0,0.0,0.0,0.0,0.0,0.0,0.0,0.0,0.0,0.0,0.0,0.0,0.0,0.0,0.0,0.0,0.0,0.0,0.0,0.0,0.0,0.0,0.0,0.0,0.0,0.0,0.0,0.0,0.0,0.0,0.0,0.0,0.0,0.0,0.0,0.0,0.0,0.0,0.0,0.0,0.0,0.0,0.0,0.0,0.0,0.0,0.0,0.0,0.0,0.0,0.0,0.0,0.0,0.0,0.0,0.0,0.0,0.0,0.0,0.0,0.0,0.0,0.0,0.0,0.0,0.0,0.0,0.0,0.0,0.0,0.0,0.0,0.0,0.0,0.0,0.0,0.0,0.0,0.0,0.0,0.0,0.0,0.0,0.0,0.0,0.0,0.0,0.0,0.0,0.0,0.0,0.0,0.0,0.0,0.0,0.0,0.0,0.0,0.0,0.0,0.0,0.0,0.0,0.0,0.0,0.0,0.0,0.0,0.0,0.0,0.0,0.0,0.0,0.0,0.0,0.0,0.0,0.0,0.0,0.0,0.0,0.0,0.0,0.0,0.0,0.0,0.0,0.0,0.0,0.0,0.0,0.0,0.0,0.0,0.0,0.0,0.0,0.0,0.0,0.0,0.0,0.0,0.0,0.0,0.0,0.0,0.0,0.0,0.0,0.0,0.0,0.0,0.0,0.0,0.0,0.0,0.0,0.0,0.0,0.0,0.0,0.0,0.0,0.0,0.0,0.0,0.0,0.0,0.0,0.0,0.0,0.0,0.0,0.0,0.0,0.0,0.0,0.0,0.0,0.0,0.0,0.0,0.0,0.0,0.0,0.0,0.0,0.0,0.0,0.0,0.0,0.0,0.0,0.0,0.0,0.0,0.0,0.0,0.0,0.0,0.0,0.0,0.0,0.0,0.0,0.0,0.0,0.0,0.0,0.0,0.0,0.0,0.0,0.0,0.0,0.0,0.0,0.0,0.0,0.0,0.0,0.0,0.0,0.0,0.0,0.0,0.0,0.0,0.0,0.0,0.0,0.0,0.0,0.0,0.0,0.0,0.0,0.0,0.0,0.0,0.0,0.0,0.0,0.0,0.0,0.0,0.0,0.0,0.0,0.0,0.0,0.0,0.0,0.0,0.0,0.0,0.0,0.0,0.0,0.0,0.0,0.0,0.0,0.0,0.0,0.0,0.0,0.0,0.0,0.0,0.0,0.0,0.0,0.0,0.0,0.0,0.0,0.0,0.0,0.0,0.0,0.0,0.0,0.0,0.0,0.0,0.0,0.0,0.0,0.0,0.0,0.0,0.0,0.0,0.0,0.0,0.0,0.0,0.0,0.0,0.0,0.0,0.0,0.0,0.0,0.0,0.0,0.0,0.0,0.0,0.0,0.0,0.0,0.0,0.0,0.0,0.0,0.0,0.0,0.0,0.0,0.0,0.0,0.0,0.0,0.0,0.0,0.0,0.0,0.0,0.0,0.0,0.0,0.0,0.0,0.0,0.0,0.0,0.0,0.0,0.0,0.0,0.0,0.0,0.0,0.0,0.0,0.0,0.0,0.0,0.0,0.0,0.0,0.0,0.0,0.0,0.0,0.0,0.0,0.0,0.0,0.0,0.0,0.0,0.0,0.0,0.0,0.0,0.0,0.0,0.0,0.0,0.0,0.0,0.0,0.0,0.0,0.0,0.0,0.0,0.0,0.0,0.0,0.0,0.0,0.0,0.0,0.0,0.0,0.0,0.0,0.0,0.0,0.0,0.0,0.0,0.0,0.0,0.0,0.0,0.0,0.0,0.0,0.0,0.0,0.0,0.0,0.0,0.0,0.0,0.0,0.0,0.0,0.0,0.0,0.0,0.0,0.0,0.0,0.0,0.0,0.0,0.0,0.0,0.0,0.0,0.0,0.0,0.0,0.0,0.0,0.0,0.0,0.0,0.0,0.0,0.0,0.0,0.0,0.0,0.0,0.0,0.0,0.0,0.0,0.0,0.0,0.0,0.0,0.0,0.0,0.0,0.0,0.0,0.0,0.0,0.0,0.0,0.0,0.0,0.0,0.0,0.0,0.0,0.0,0.0,0.0,0.0,0.0,0.0,0.0,0.0,0.0,0.0,0.0,0.0,0.0,0.0,0.0,0.0,0.0,0.0,0.0,0.0,0.0,0.0,0.0,0.0,0.0,0.0,0.0,0.0,0.0,0.0,0.0,0.0,0.0,0.0,0.0,0.0,0.0,0.0,0.0,0.0,0.0,0.0,0.0,0.0,0.0,0.0,0.0,0.0,0.0,0.0,0.0,0.0,0.0,0.0,0.0,0.0,0.0,0.0,0.0,0.0,0.0,0.0,0.0,0.0,0.0,0.0,0.0,0.0,0.0,0.0,0.0,0.0,0.0,0.0,0.0,0.0,0.0,0.0,0.0,0.0,0.0,0.0,0.0,0.0,0.0,0.0,0.0,0.0,0.0,0.0,0.0,0.0,0.0,0.0,0.0,0.0,0.0,0.0,0.0,0.0,0.0,0.0,0.0,0.0,0.0,0.0,0.0,0.0,0.0,0.0,0.0,0.0,0.0,0.0,0.0,0.0,0.0,0.0,0.0,0.0,0.0,0.0,0.0,0.0,0.0,0.0,0.0,0.0,0.0,0.0,0.0,0.0,0.0,0.0,0.0,0.0,0.0,0.0,0.0,0.0,0.0,0.0,0.0,0.0,0.0,0.0,0.0,0.0,0.0,0.0,0.0,0.0,0.0,0.0,0.0,0.0,0.0,0.0,0.0,0.0,0.0,0.0,0.0,0.0,0.0,0.0,0.0,0.0,0.0,0.0,0.0,0.0,0.0,0.0,0.0,0.0,0.0,0.0,0.0,0.0,0.0,0.0,0.0,0.0,0.0,0.0,0.0,0.0,0.0,0.0,0.0,0.0,0.0,0.0,0.0,0.0,0.0,0.0,0.0,0.0,0.0,0.0,0.0,0.0,0.0,0.0,0.0,0.0,0.0,0.0,0.0,0.0,0.0,0.0,0.0,0.0,0.0,0.0,0.0,0.0,0.0,0.0,0.0,0.0,0.0,0.0,0.0,0.0,0.0,0.0,0.0,0.0,0.0,0.0,0.0,0.0,0.0,0.0,0.0,0.0,0.0,0.0,0.0,0.0,0.0,0.0,0.0,0.0,0.0,0.0,0.0,0.0,0.0,0.0,0.0,0.0,0.0,0.0,0.0,0.0,0.0,0.0,0.0,0.0,0.0,0.0,0.0,0.0,0.0,0.0,0.0,0.0,0.0,0.0,0.0,0.0,0.0,0.0,0.0,0.0,0.0,0.0,0.0,0.0,0.0,0.0,0.0,0.0,0.0,0.0,0.0,0.0,0.0,0.0,0.0,0.0,0.0,0.0,0.0,0.0,0.0,0.0,0.0,0.0,0.0,0.0,0.0,0.0,0.0,0.0,0.0,0.0,0.0,0.0,0.0,0.0,0.0,0.0,0.0,0.0,0.0,0.0,0.0,0.0,0.0,0.0,0.0,0.0,0.0,0.0,0.0,0.0,0.0,0.0,0.0,0.0,0.0,0.0,0.0,0.0,0.0,0.0,0.0,0.0,0.0,0.0,0.0,0.0,0.0,0.0,0.0,0.0,0.0,0.0,0.0,0.0,0.0,0.0,0.0,0.0,0.0,0.0,0.0,0.0,0.0,0.0,0.0,0.0,0.0,0.0,0.0,0.0,0.0,0.0,0.0,0.0,0.0,0.0,0.0,0.0,0.0,0.0,0.0,0.0,0.0,0.0,0.0,0.0,0.0,0.0,0.0,0.0,0.0,0.0,0.0,0.0,0.0,0.0,0.0,0.0,0.0,0.0,0.0,0.0,0.0,0.0,0.0,0.0,0.0,0.0,0.0,0.0,0.0,0.0,0.0,0.0,0.0,0.0,0.0,0.0,0.0,0.0,0.0,0.0,0.0,0.0,0.0,0.0,0.0,0.0,0.0,0.0,0.0,0.0,0.0,0.0,0.0,0.0,0.0,0.0,0.0,0.0,0.0,0.0,0.0,0.0,0.0,0.0,0.0,0.0,0.0,0.0,0.0,0.0,0.0,0.0,0.0,0.0,0.0,0.0,0.0,0.0,0.0,0.0,0.0,0.0,0.0,0.0,0.0,0.0,0.0,0.0,0.0,0.0,0.0,0.0,0.0,0.0,0.0,0.0,0.0,0.0,0.0,0.0,0.0,0.0,0.0,0.0,0.0,0.0,0.0,0.0,0.0,0.0,0.0,0.0,0.0,0.0,0.0,0.0,0.0,0.0,0.0,0.0,0.0,0.0,0.0,0.0,0.0,0.0,0.0,0.0,0.0,0.0,0.0,0.0,0.0,0.0,0.0,0.0,0.0,0.0,0.0,0.0,0.0,0.0,0.0,0.0,0.0,0.0,0.0,0.0,0.0,0.0,0.0,0.0,-2.6769,-2.6079,0.0,0.0,0.0,0.0,0.0,0.0,0.0,0.0,0.0,0.0,0.0,0.0,0.0,0.0,0.0,0.0,0.0,0.0,0.0,0.0,0.0,0.0,0.0,0.0,0.0,0.0,0.0,0.0,0.0,0.0,0.0,0.0,0.0,0.0,0.0,0.0,0.0,-2.061,-2.061,-2.0804,-2.1116,-2.09,-2.0908,-2.1104,0.0,0.0,0.0,0.0,0.0,0.0,0.0,0.0,0.0,0.0,0.0,0.0,0.0,0.0,0.0,0.0,0.0,0.0,0.0,0.0,0.0,0.0,0.0,0.0,0.0,0.0,0.0,0.0,0.0,0.0,0.0,0.0,0.0,0.0,0.0,0.0,0.0,0.0,0.0,0.0,0.0,0.0,0.0,0.0,0.0,0.0,0.0,0.0,0.0,0.0,0.0,0.0,0.0,0.0,0.0,0.0,0.0,0.0,0.0,0.0,0.0,0.0,0.0,0.0,0.0,0.0,0.0,0.0,0.0,0.0,-2.8955,-2.8017,0.0,0.0,0.0,0.0,0.0,0.0,0.0,0.0,0.0,0.0,0.0,0.0,0.0,0.0,0.0,0.0,0.0,0.0,0.0,0.0,0.0,0.0,0.0,-2.1902,-2.1746,-2.1746,-2.1712,-2.1616,0.0,0.0,0.0,0.0,0.0,0.0,0.0,-2.1215,-2.0709,-1.9798,-2.045,-2.0783,-2.0902,-2.0835,-2.1058,-2.1576,-2.1321,0.0,0.0,0.0,0.0,0.0,0.0,0.0,0.0,0.0,0.0,0.0,0.0,0.0,0.0,0.0,0.0,0.0,0.0,0.0,0.0,0.0,0.0,0.0,0.0,0.0,0.0,0.0,0.0,0.0,0.0,0.0,0.0,0.0,0.0,0.0,0.0,0.0,0.0,0.0,0.0,0.0,0.0,0.0,0.0,0.0,0.0,0.0,0.0,0.0,0.0,0.0,0.0,0.0,0.0,0.0,0.0,0.0,0.0,0.0,0.0,0.0,0.0,0.0,-2.6929,-2.8549,-3.0473,-3.0671,-3.1681,-3.3116,-3.1769,-3.0879,-3.0278,-2.922,0.0,0.0,0.0,0.0,0.0,0.0,0.0,0.0,0.0,0.0,0.0,0.0,0.0,0.0,0.0,0.0,0.0,0.0,0.0,0.0,0.0,-2.1616,-2.1471,-2.1471,-2.1229,-2.1277,-2.1698,0.0,0.0,0.0,0.0,0.0,-2.1423,-2.051,-1.9952,-1.9798,-2.0914,-2.1656,-2.2007,-2.3301,-2.3864,-2.3816,-2.2076,-2.1643,-2.2134,0.0,0.0,0.0,0.0,0.0,0.0,0.0,0.0,0.0,0.0,0.0,0.0,0.0,0.0,0.0,0.0,0.0,0.0,0.0,0.0,0.0,0.0,0.0,0.0,0.0,0.0,0.0,0.0,0.0,0.0,0.0,0.0,0.0,0.0,0.0,0.0,0.0,0.0,0.0,0.0,0.0,-1.726,-1.7781,0.0,0.0,0.0,0.0,0.0,0.0,0.0,0.0,0.0,0.0,0.0,0.0,0.0,-2.307,-2.3822,-2.6126,-2.7369,-2.7574,-3.1402,-3.3287,-3.3593,-3.4664,-3.5432,-3.5881,-3.5665,0.0,-3.1372,-3.0314,0.0,0.0,0.0,0.0,0.0,0.0,0.0,0.0,0.0,0.0,0.0,0.0,0.0,0.0,0.0,0.0,0.0,0.0,0.0,0.0,0.0,-2.1423,-2.1229,-2.1375,-2.165,-2.1754,-2.1582,-2.1574,0.0,0.0,0.0,-2.0446,-2.051,-2.0055,-1.9967,-2.0275,-2.1514,-2.2433,-2.3152,-2.4375,-2.5053,-2.516,-2.4526,-2.3666,-2.2736,-2.2259,0.0,0.0,0.0,0.0,0.0,0.0,0.0,0.0,0.0,0.0,0.0,0.0,0.0,0.0,0.0,0.0,0.0,0.0,0.0,0.0,0.0,0.0,0.0,0.0,0.0,0.0,0.0,0.0,0.0,0.0,0.0,0.0,0.0,0.0,0.0,0.0,0.0,0.0,0.0,-1.8348,-1.8718,-1.8745,-1.8699,-1.887,0.0,0.0,0.0,0.0,0.0,0.0,0.0,0.0,0.0,-2.3675,-2.4317,-2.5032,-2.5848,-2.8343,-3.0087,-3.0994,-3.4069,-3.5848,-3.6754,-3.7451,-3.7893,-3.819,-3.789,-3.6795,-3.5064,-3.3116,-3.1697,-3.0603,0.0,0.0,0.0,0.0,-3.1369,-3.2317,0.0,0.0,0.0,0.0,0.0,0.0,0.0,0.0,0.0,0.0,0.0,0.0,-2.1712,-2.1461,-2.1358,-2.1408,-2.1874,-2.2005,-2.1632,-2.1385,-2.1193,-2.1055,-2.0232,-1.9798,-1.9759,-1.993,-2.0293,-2.0815,-2.2384,-2.3587,-2.4522,-2.566,-2.6416,-2.6793,-2.7164,-2.6151,-2.4155,-2.359,-2.2648,-2.1468,0.0,0.0,0.0,0.0,0.0,0.0,0.0,0.0,0.0,0.0,0.0,0.0,0.0,0.0,0.0,0.0,0.0,0.0,0.0,0.0,0.0,0.0,0.0,0.0,0.0,0.0,0.0,0.0,0.0,0.0,0.0,0.0,0.0,0.0,0.0,0.0,0.0,-1.9671,-2.019,-1.9387,-2.03,-2.0607,0.0,0.0,0.0,0.0,0.0,0.0,-2.3382,-2.3895,-2.4583,-2.5518,-2.6316,-2.7336,-2.8492,-3.0674,-3.2641,-3.4381,-3.6236,-3.7691,-3.8983,-3.9089,-3.9304,-3.9381,-3.8839,-3.8371,-3.7793,-3.5425,-3.3909,-3.2899,-3.0903,-3.035,-3.0858,-3.2086,-3.3002,-3.4041,0.0,0.0,0.0,0.0,0.0,0.0,0.0,0.0,0.0,0.0,0.0,-2.1996,-2.1471,-2.1925,-2.2011,-2.1511,-2.155,-2.1744,-2.2214,-2.0873,-2.0422,-2.1175,-1.994,-1.9344,-1.9604,-2.0251,-2.0824,-2.1368,-2.3632,-2.5265,-2.6311,-2.7817,-2.876,-2.9257,-2.9526,-2.8674,-2.6942,-2.4845,-2.3904,-2.3653,-2.1518,0.0,0.0,0.0,0.0,0.0,0.0,0.0,0.0,0.0,0.0,0.0,0.0,0.0,0.0,0.0,0.0,0.0,0.0,0.0,0.0,0.0,0.0,0.0,0.0,0.0,0.0,0.0,0.0,0.0,0.0,0.0,0.0,0.0,0.0,0.0,0.0,0.0,0.0,-1.954,-2.208,0.0,0.0,0.0,0.0,-2.3363,-2.3428,-2.3813,-2.4647,-2.5417,-2.638,-2.7581,-2.8407,-2.9792,-3.1914,-3.3183,-3.4867,-3.7015,-3.8227,-3.9183,-3.9843,-3.9343,-3.8978,-3.8827,-3.8262,-3.7998,-3.7853,-3.6218,-3.5208,-3.4559,-3.2959,-3.2358,-3.231,-3.187,-3.2845,-3.4267,0.0,0.0,0.0,0.0,0.0,0.0,0.0,0.0,-2.0497,-2.0684,-2.1296,-2.1704,-2.1703,-2.1779,-2.1916,-2.2313,-2.2326,-2.2259,-2.2041,-2.1108,-2.0527,-2.0308,-1.9448,-1.9209,-1.9709,-2.0665,-2.1704,-2.2919,-2.5042,-2.6541,-2.7454,-2.8822,-2.9424,-2.9419,-2.9702,-2.9654,-2.9302,-2.7431,-2.5824,-2.4393,-2.2874,-2.1707,0.0,0.0,0.0,0.0,0.0,0.0,0.0,0.0,0.0,0.0,0.0,0.0,0.0,0.0,0.0,0.0,0.0,0.0,0.0,0.0,0.0,0.0,0.0,0.0,0.0,0.0,0.0,0.0,0.0,0.0,0.0,0.0,0.0,0.0,0.0,0.0,0.0,-2.2116,-2.3978,0.0,-2.3208,-2.3712,-2.44,-2.5051,-2.5582,-2.6353,-2.7426,-2.7994,-2.8608,-2.9314,-2.9855,-3.0878,-3.2632,-3.3831,-3.5346,-3.7082,-3.8643,-3.9294,-3.9403,-3.9794,-3.9702,-3.9296,-3.8755,-3.8515,-3.8455,-3.7517,-3.6423,-3.528,-3.4727,-3.3885,-3.316,-3.4244,-3.5479,-3.6704,0.0,0.0,0.0,0.0,0.0,0.0,0.0,0.0,-2.0454,-2.0595,-2.1156,-2.1735,-2.2125,-2.2075,-2.2207,-2.2895,-2.275,-2.2287,-2.1506,-2.063,-1.9811,-1.9158,-1.9081,-1.9352,-2.0033,-2.1632,-2.2839,-2.3756,-2.6151,-2.7457,-2.777,-2.8872,-2.9443,-2.9521,-2.9443,-2.9745,-3.0281,-2.9352,-2.7896,-2.6101,-2.4782,-2.3703,-2.2711,0.0,0.0,0.0,0.0,0.0,0.0,0.0,0.0,0.0,0.0,0.0,0.0,0.0,0.0,0.0,0.0,0.0,0.0,0.0,0.0,0.0,0.0,0.0,0.0,0.0,0.0,0.0,0.0,0.0,0.0,0.0,0.0,0.0,0.0,-2.307,-2.4253,-2.3996,-2.5867,-2.6646,-2.5307,-2.5793,-2.6472,-2.7123,-2.7682,-2.8397,-2.9342,-2.9773,-3.0112,-3.0387,-3.1276,-3.2277,-3.3351,-3.4672,-3.6027,-3.7537,-3.8733,-3.9249,-3.9253,-3.9666,-3.9669,-3.9308,-3.8767,-3.8539,-3.8503,-3.813,-3.7264,-3.6134,-3.5954,-3.5256,-3.4474,-3.5448,-3.6671,-3.8043,0.0,0.0,0.0,0.0,0.0,0.0,0.0,-1.9599,-2.03,-2.0055,-2.1047,-2.2032,-2.2751,-2.2804,-2.2869,-2.3171,-2.2675,-2.1851,-2.0588,-1.9321,-1.8388,-1.7835,-1.8963,-1.9969,-2.068,-2.3195,-2.4255,-2.3676,-2.6807,-2.7989,-2.737,-2.8119,-2.8937,-2.9792,-2.8961,-2.9052,-2.9854,-3.0407,-3.0018,-2.8888,-2.7205,-2.6176,-2.541,0.0,0.0,0.0,0.0,0.0,0.0,0.0,0.0,0.0,0.0,0.0,0.0,0.0,0.0,0.0,0.0,0.0,0.0,0.0,0.0,0.0,0.0,0.0,0.0,0.0,0.0,0.0,0.0,0.0,0.0,0.0,0.0,0.0,-2.1823,-2.4235,-2.5729,-2.5005,-2.7682,-2.8984,-2.7435,-2.8342,-2.9195,-2.9599,-2.9617,-2.9791,-3.0222,-3.0598,-3.0809,-3.0809,-3.2419,-3.3789,-3.4562,-3.5875,-3.7294,-3.8671,-3.8659,-3.8994,-3.9537,-3.9044,-3.8815,-3.8767,-3.8214,-3.7986,-3.7986,-3.7986,-3.7661,-3.7144,-3.6627,-3.6411,-3.6254,-3.5232,-3.6143,-3.8082,0.0,0.0,0.0,0.0,0.0,0.0,0.0,-1.967,-2.03,-2.0055,-2.0863,-2.1835,-2.2698,-2.2431,-2.2512,-2.3398,-2.2631,-2.1614,-2.0662,-1.9446,-1.872,-1.8554,-1.9689,-2.1054,-2.2517,-2.4049,-2.5135,-2.5828,-2.7238,-2.8064,-2.8218,-2.8608,-2.9148,-2.9792,-2.9546,-2.977,-3.0432,-3.0947,-3.1223,-3.1122,-2.9076,-2.767,-2.6628,0.0,0.0,0.0,0.0,0.0,0.0,0.0,0.0,0.0,0.0,0.0,0.0,0.0,0.0,0.0,0.0,0.0,0.0,0.0,0.0,0.0,0.0,0.0,0.0,0.0,0.0,0.0,0.0,0.0,0.0,0.0,-2.1979,-2.3263,-2.3859,-2.5619,-2.7086,-2.7746,-2.9131,-2.9965,-2.981,-2.9837,-3.0149,-3.0827,-3.0616,-3.0635,-3.1029,-3.1157,-3.1222,-3.1222,-3.1698,-3.2942,-3.518,-3.4758,-3.6009,-3.8706,-3.8307,-3.8247,-3.8443,-3.8695,-3.8599,-3.8202,-3.8046,-3.7986,-3.7986,-3.7986,-3.7661,-3.718,-3.7036,-3.6507,-3.5897,-3.6272,-3.7484,-3.91,0.0,0.0,0.0,0.0,0.0,0.0,0.0,-2.0185,-2.0664,-2.0429,-2.106,-2.1884,-2.2698,-2.2375,-2.2389,-2.3217,-2.2179,-2.108,-2.004,-1.9014,-1.8571,-1.8762,-2.0249,-2.1862,-2.3579,-2.4756,-2.5652,-2.6263,-2.7311,-2.7656,-2.732,-2.7472,-2.8005,-2.8954,-2.8553,-2.9106,-3.0306,-3.0834,-3.1373,-3.1775,-3.0721,-2.9917,-2.9101,-2.6741,-2.5573,-2.5006,-2.334,-2.2877,-2.2687,-2.1116,0.0,0.0,0.0,0.0,0.0,0.0,0.0,0.0,0.0,0.0,0.0,0.0,0.0,0.0,0.0,0.0,0.0,0.0,0.0,0.0,0.0,0.0,0.0,0.0,-2.3382,-2.4959,-2.6133,-2.7242,-2.8379,-2.9589,-3.0461,-3.1047,-3.1277,-3.1093,-3.1148,-3.1607,-3.1267,-3.1139,-3.1368,-3.1377,-3.1377,-3.1377,-3.1842,-3.2902,-3.4675,-3.4536,-3.5588,-3.7828,-3.7622,-3.7642,-3.7797,-3.8215,-3.8286,-3.7986,-3.7986,-3.7986,-3.7962,-3.7745,-3.7469,0.0,0.0,0.0,0.0,0.0,-3.7885,-3.8832,0.0,0.0,0.0,0.0,0.0,0.0,0.0,-2.0978,-2.1212,-2.0986,-2.142,-2.2054,-2.271,-2.242,-2.2336,-2.2764,-2.1616,-2.0393,-1.9192,-1.849,-1.8437,-1.9024,-2.0882,-2.2615,-2.4159,-2.5399,-2.6005,-2.5874,-2.7115,-2.7039,-2.5784,-2.5784,-2.647,-2.7823,-2.6968,-2.7746,-2.9661,-3.0303,-3.0871,-3.1336,-3.1838,-3.2064,-3.18,-2.8863,-2.7934,-2.7934,-2.5697,-2.4814,-2.4566,-2.315,0.0,0.0,0.0,0.0,0.0,0.0,0.0,0.0,0.0,0.0,0.0,0.0,0.0,0.0,0.0,0.0,0.0,0.0,0.0,0.0,0.0,0.0,0.0,0.0,-2.4904,-2.6729,-2.837,-2.8938,-2.9599,-3.0717,-3.1533,-3.2047,-3.2139,-3.2056,-3.2019,-3.2074,-3.1643,-3.1377,-3.1377,-3.1332,0.0,0.0,0.0,-3.294,-3.3824,-3.456,-3.558,-3.6793,-3.6951,-3.7251,-3.7596,-3.7892,-3.7986,-3.7986,-3.7986,-3.795,-3.7853,-3.7385,-3.712,-3.6976,-3.6507,-3.609,-3.5855,-3.7156,-3.7808,-3.816,0.0,0.0,0.0,0.0,0.0,0.0,0.0,-2.1245,-2.1271,-2.1226,-2.156,-2.2035,-2.2643,-2.1774,-2.1602,-2.2629,-2.1164,-1.9876,-1.9139,-1.941,-1.9922,-2.0717,-2.2506,-2.4176,-2.5497,-2.6359,-2.6872,-2.6984,-2.7251,-2.7217,-2.6989,-2.6627,-2.7077,-2.8154,-2.7681,-2.7981,-2.8785,-2.988,-3.0418,-3.0518,-3.0939,-3.1322,-3.1486,-3.0834,-2.9829,-2.8587,-2.7578,-2.7395,-2.7458,-2.5606,-2.5141,-2.5109,-2.3455,-2.1781,0.0,0.0,0.0,0.0,0.0,0.0,0.0,0.0,0.0,0.0,0.0,0.0,0.0,0.0,0.0,0.0,0.0,0.0,0.0,-2.5005,-2.6527,-2.7985,-2.9626,-3.0195,-3.0644,-3.1194,-3.1698,-3.2267,-3.2918,-3.2395,-3.2139,-3.2459,-3.1799,-3.1377,-3.1377,-3.1075,-3.1047,-3.1368,-3.0599,-3.1629,-3.4397,-3.358,-3.4495,-3.7351,0.0,0.0,-3.7596,-3.7892,-3.7986,-3.7986,-3.7986,-3.7733,-3.7336,-3.7228,-3.6687,-3.5905,-3.5809,-3.5917,-3.6185,-3.6452,-3.7586,-3.8944,0.0,0.0,0.0,0.0,0.0,0.0,0.0,-2.1766,-2.1766,-2.1766,-2.1895,-2.206,-2.2235,-2.1541,-2.1282,-2.1766,-2.0559,-1.9666,-1.9369,-2.028,-2.1298,-2.2337,-2.3591,-2.4871,-2.6037,-2.6233,-2.6509,-2.6866,-2.6739,-2.6586,-2.642,-2.5973,-2.6378,-2.7448,-2.7162,-2.7589,-2.8522,-2.9505,-3.0002,-3.0356,-3.0754,-3.0998,-3.112,-3.0775,-3.0244,-2.9626,-2.8758,-2.8645,-2.863,-2.7174,-2.6674,-2.6456,-2.5278,-2.378,-2.2255,0.0,0.0,0.0,0.0,0.0,0.0,0.0,0.0,0.0,0.0,0.0,0.0,0.0,0.0,-2.0576,-2.1805,0.0,-2.4445,-2.627,-2.7477,-2.8692,-3.003,-3.0418,-3.0893,-3.1625,-3.1882,-3.2249,-3.2854,-3.2359,-3.2084,-3.2285,-3.1726,-3.1295,-3.1093,-3.1084,-3.0992,-3.08,-3.0195,-3.1169,-3.3871,-3.3078,-3.4108,-3.6887,-3.6936,-3.7024,-3.737,-3.7691,-3.7892,-3.7974,-3.7709,-3.7433,-3.7156,-3.6627,-3.5942,-3.522,-3.522,-3.5345,-3.5571,-3.6131,-3.723,-3.8599,0.0,0.0,0.0,0.0,0.0,0.0,0.0,-2.2324,-2.2231,-2.2231,-2.2231,-2.2137,-2.1902,-2.1447,-2.096,-2.0487,-2.0049,-1.9824,-1.9963,-2.1314,-2.2668,-2.3844,-2.4722,-2.5482,-2.6245,-2.6013,-2.6123,-2.6602,-2.6258,-2.6025,-2.5861,-2.5394,-2.5702,-2.6673,-2.6589,-2.7193,-2.8498,-2.9118,-2.9679,-3.0261,-3.0669,-3.0826,-3.0696,-3.011,-3.0068,-3.0315,-2.9448,-2.8934,-2.8537,-2.7835,-2.7212,-2.6731,-2.649,-2.5468,-2.4073,-2.2775,-2.1924,0.0,0.0,0.0,0.0,0.0,0.0,0.0,0.0,-1.9127,-1.9622,-2.0759,-2.1365,-2.2153,-2.3523,-2.4729,-2.5888,-2.7103,-2.8084,-2.8967,-2.9979,-3.0239,-3.0773,-3.1556,-3.1824,-3.2166,-3.256,-3.2239,-3.201,-3.201,-3.1616,-3.124,-3.0919,-3.1066,-3.0928,-3.0442,-3.013,-3.1064,-3.3334,-3.2892,-3.3866,-3.6266,-3.6592,-3.6808,-3.7131,-3.7477,-3.7737,-3.7793,-3.7168,-3.6892,-3.6807,-3.5857,-3.5208,-3.4823,-3.4823,-3.4823,-3.492,-3.5667,-3.6696,-3.7612,0.0,0.0,0.0,0.0,0.0,0.0,0.0,0.0,-2.237,-2.237,-2.2278,-2.2184,-2.2184,-2.1173,-2.0049,-1.8885,-1.978,-2.0642,-2.125,-2.2967,-2.4284,-2.4992,-2.6399,-2.6966,-2.6427,-2.6663,-2.6879,-2.6943,-2.6875,-2.6875,-2.6807,-2.6343,-2.6444,-2.701,-2.6691,-2.7137,-2.8247,-2.8858,-2.9521,-3.0061,-3.0547,-3.0636,-3.0458,-3.0177,-2.9972,-2.9802,-2.939,-2.8272,-2.7041,-2.7025,-2.6647,-2.6346,-2.726,-2.7064,-2.6294,-2.4873,-2.3041,-2.0997,-1.9243,-1.8242,-1.7937,-1.9056,-1.8976,-1.921,0.0,-2.1621,-2.164,-2.2502,-2.3281,-2.4088,-2.4669,-2.5423,-2.6388,-2.7579,-2.8537,-2.9217,-2.9671,-3.0338,-3.0723,-3.0562,-3.1398,-3.2166,-3.256,-3.2239,-3.201,-3.201,-3.1616,-3.1359,-3.1313,-3.069,-3.0616,-3.1231,-2.9865,-3.0596,-3.3669,-3.2932,-3.3866,-3.6266,-3.6592,-3.6808,-3.7131,-3.7477,-3.744,-3.7228,-3.623,-3.5797,-3.5749,-3.516,-3.4883,-3.4823,-3.4823,-3.4823,-3.4823,-3.492,-3.5571,-3.6602,0.0,0.0,0.0,0.0,0.0,0.0,0.0,0.0,0.0,-2.2509,-2.2463,-2.2417,-2.2417,-2.1636,-2.0585,-1.9364,-2.0142,-2.1169,-2.2202,-2.3794,-2.5136,-2.6142,-2.7253,-2.7484,-2.6782,-2.6943,-2.7024,-2.7024,-2.6794,-2.7028,-2.7649,-2.6809,-2.6902,-2.7685,-2.7147,-2.7417,-2.8247,-2.8858,-2.9297,-2.958,-3.0405,-3.034,-2.9843,-2.9287,-2.8747,-2.815,-2.7581,-2.6485,0.0,-2.48,-2.4687,-2.4867,-2.5624,-2.5649,-2.5183,-2.4224,-2.3247,-2.222,-2.1018,-1.9959,-1.9307,-1.9947,-2.0495,-2.108,-2.2098,-2.2566,-2.2994,-2.3827,-2.4519,-2.5076,-2.5667,-2.6322,-2.6951,-2.7553,-2.8112,-2.873,-2.8959,-2.944,-2.9589,-2.9376,-2.9941,-3.06,-3.1256,-3.1267,-3.1295,-3.1295,-3.135,-3.1176,-3.0717,-3.0818,-3.0607,-3.0002,-2.9791,-3.0787,-3.3076,-3.2809,-3.3866,-3.6266,-3.6075,-3.627,-3.6697,-3.6484,-3.6371,-3.6242,-3.5809,-3.5437,-3.5148,-3.4919,-3.4823,-3.4799,-3.4487,-3.4366,-3.4402,-3.4715,-3.5488,-3.6414,0.0,0.0,0.0,0.0,0.0,0.0,0.0,0.0,0.0,0.0,-2.2615,-2.2543,-2.2326,-2.1898,-2.1126,-1.9924,-2.0505,-2.1411,-2.251,-2.4104,-2.5621,-2.6903,-2.7699,-2.7853,-2.7403,-2.7214,-2.7146,-2.7146,-2.685,-2.7267,-2.8343,-2.7505,-2.7742,-2.8737,-2.8155,-2.8235,-2.8858,-2.9238,-2.949,-2.9779,-3.0517,-3.0274,-2.9385,-2.8571,-2.7384,-2.6121,-2.5506,-2.46,-2.3499,-2.273,-2.2735,-2.3155,-2.3747,-2.399,-2.3914,-2.3411,-2.3039,-2.2564,-2.1447,-2.0991,-2.0719,-2.0709,-2.1668,-2.2628,-2.2848,-2.3441,-2.419,-2.4756,-2.5236,-2.5581,-2.5785,-2.6376,-2.6804,-2.7186,-2.7572,-2.7992,-2.8456,-2.8464,-2.8508,-2.8254,-2.8482,-2.895,-2.9359,-3.0049,-3.05,-3.0626,-3.0892,-3.08,-3.0231,-3.0635,-3.0396,-2.9351,-3.0027,-3.1156,-3.2695,-3.3027,-3.4213,-3.6266,-3.5898,-3.5989,-3.6367,-3.5892,-3.5574,-3.5605,-3.5461,-3.51,-3.4607,-3.4607,-3.4535,-3.4366,-3.3982,-3.3837,-3.3873,-3.4258,-3.4868,-3.56,0.0,0.0,0.0,0.0,0.0,0.0,0.0,0.0,0.0,0.0,0.0,0.0,0.0,-2.1597,-2.1126,-1.9924,-2.0518,-2.1293,-2.1975,-2.4005,-2.577,-2.7058,-2.7869,-2.8263,-2.8274,-2.7789,-2.7469,-2.7469,-2.7456,-2.7958,-2.8958,-2.8877,-2.9353,-3.0204,-2.9821,-2.9922,-3.0532,-3.0101,-3.0343,-3.096,-3.0986,-3.041,-2.9407,-2.8305,-2.6232,-2.3879,-2.3652,-2.2825,-2.175,-2.1368,-2.126,-2.1451,-2.2285,-2.2881,-2.3282,-2.3092,-2.2354,-2.1242,-1.9733,-2.043,-2.1482,-2.1359,-2.2408,-2.3615,-2.4097,-2.4799,-2.5326,-2.505,-2.5358,-2.5415,-2.4814,-2.5011,-2.5508,-2.6275,-2.6822,-2.734,-2.8062,-2.8131,-2.7878,-2.7254,-2.7362,-2.7379,-2.716,-2.8656,-2.9822,-3.0213,-3.0231,-3.0231,-3.0204,-2.9837,-2.9791,-3.0149,-3.0586,-3.1503,-3.3179,-3.4011,-3.5035,-3.6266,-3.6254,-3.6325,-3.6367,-3.5819,-3.5629,-3.5581,-3.5076,-3.4547,-3.4066,-3.4066,-3.3777,-3.3332,-3.332,-3.3308,-3.3308,-3.3332,-3.3332,-3.3506,0.0,0.0,0.0,0.0,0.0,0.0,0.0,0.0,0.0,0.0,0.0,0.0,0.0,0.0,0.0,0.0,-2.2116,-2.2438,-2.2204,-2.4236,-2.5467,-2.5443,-2.6859,-2.7633,-2.7659,-2.757,-2.7782,-2.8262,-2.8262,-2.8623,-2.9255,-2.8818,-2.9005,-2.9652,-2.9087,-2.9455,-3.0346,-2.9977,-3.0151,-3.0738,-3.0151,-2.9295,-2.8203,-2.6385,-2.457,-2.2849,0.0,-2.022,-1.9269,-1.872,-1.8946,-1.9589,-2.024,-2.0698,-2.1039,-2.0992,-2.1587,-2.2184,-2.1727,-2.2279,-2.3345,-2.47,-2.4594,-2.457,-2.5909,-2.5637,-2.5058,-2.4465,-2.431,-2.3861,-2.3106,-2.3774,-2.4529,-2.4939,-2.5973,-2.6816,-2.7331,-2.7383,-2.7142,-2.6396,-2.6658,-2.6646,-2.6275,-2.7614,-2.8724,-2.9388,-2.9669,-2.9782,-2.9782,-2.991,-2.981,-2.9406,-2.985,-3.0472,-3.161,-3.2706,-3.3888,-3.5146,-3.5588,-3.5654,-3.5321,-3.5115,-3.4907,-3.4559,-3.4378,-3.4018,-3.3549,-3.3549,-3.344,-3.326,-3.2899,-3.2767,-3.2719,-3.2346,-3.2214,-3.2478,0.0,0.0,0.0,0.0,0.0,0.0,0.0,0.0,0.0,0.0,0.0,0.0,0.0,0.0,0.0,0.0,0.0,-2.2974,-2.2515,-2.4073,-2.506,-2.511,-2.6096,-2.6731,-2.6974,-2.6749,-2.6857,-2.7311,-2.7453,-2.7922,-2.862,-2.8716,-2.9094,-2.9752,-2.9429,-2.9733,-3.0472,-2.975,-2.9566,-2.9704,-2.872,-2.7673,-2.6501,-2.4502,-2.2959,0.0,-1.9777,-1.8648,-1.7993,-1.7571,-1.7918,-1.8654,-1.9083,-1.9622,-2.0125,-2.0537,-2.1453,-2.2573,-2.343,-2.4006,-2.4666,-2.6104,-2.5952,-2.5627,-2.6282,-2.5718,-2.4686,-2.4079,-2.3375,-2.2619,-2.1758,-2.2486,-2.3194,-2.3365,-2.4581,-2.5711,-2.6371,-2.6465,-2.6388,-2.6165,-2.6225,-2.6274,-2.616,-2.6778,-2.758,-2.8607,-2.9158,-2.936,-2.936,-2.9617,-2.9525,-2.9003,-2.9692,-3.0287,-3.082,-3.2405,-3.3802,-3.4879,-3.5269,-3.5242,-3.4792,-3.4671,-3.4438,-3.4042,-3.4042,-3.3645,-3.3008,-3.3008,-3.2887,-3.2671,-3.2334,-3.2202,-3.2154,-3.1793,-3.1661,-3.1846,0.0,0.0,0.0,0.0,0.0,0.0,0.0,0.0,0.0,0.0,0.0,0.0,0.0,0.0,0.0,0.0,0.0,0.0,-2.2903,-2.3591,-2.4587,-2.5819,-2.5546,-2.5681,-2.6328,-2.5425,-2.4921,-2.4948,-2.5517,-2.6249,-2.7179,-2.8367,-2.94,-3.0241,-3.0502,-3.0646,-3.0551,-2.9295,-2.8439,-2.7946,-2.6791,-2.5574,-2.4282,-2.2883,-2.1456,-2.0126,-1.8861,-1.8178,-1.7831,-1.7831,-1.8207,-1.8717,-1.8987,-1.9734,-2.0733,-2.1778,-2.2076,-2.2583,-2.4647,-2.5399,-2.5599,-2.5576,-2.6181,-2.6617,-2.5498,-2.4889,-2.4322,-2.3615,-2.26,-2.1578,-2.0924,-2.1105,-2.1516,-2.1927,-2.298,-2.4145,-2.5266,-2.5446,-2.5711,-2.6405,-2.6174,-2.6097,-2.6422,-2.6062,-2.6408,-2.7723,-2.8473,-2.8938,-2.8984,-2.8984,-2.8984,-2.8984,-3.0138,-3.0713,-3.0713,-3.3109,-3.4791,-3.5508,-3.5341,-3.5037,-3.4792,-3.4548,-3.4221,-3.4042,-3.4006,-3.344,-3.2539,-3.2515,-3.219,-3.1709,-3.1673,-3.1661,-3.1661,-3.1661,-3.1661,-3.1661,0.0,0.0,0.0,0.0,0.0,0.0,0.0,0.0,0.0,0.0,0.0,0.0,0.0,0.0,0.0,0.0,0.0,0.0,-2.2985,-2.3716,-2.4147,-2.4158,-2.4492,-2.5014,-2.5808,-2.5392,-2.5469,-2.5948,-2.5993,-2.6202,-2.6537,-2.6341,-2.639,-2.6643,-2.6707,-2.6845,-2.6925,-2.6729,-2.6727,-2.6716,-2.5205,-2.427,-2.3726,-2.1825,-2.074,-2.0079,-1.9182,-1.8742,-1.8543,-1.8372,-1.9062,-2.0107,-2.0871,-2.1594,-2.2363,-2.3752,-2.4728,-2.5396,-2.5883,-2.6218,-2.6566,-2.7163,-2.6597,-2.5809,-2.5683,-2.4563,-2.3207,-2.1874,-2.064,-1.972,-1.9239,-2.018,-2.1225,-2.1893,-2.3648,-2.5232,-2.608,-2.6456,-2.6602,-2.6499,-2.6405,-2.6277,-2.6097,-2.639,-2.6997,-2.7534,-2.7732,-2.8119,-2.8948,-2.8984,-2.8984,-2.8984,-2.9331,-2.944,-2.944,-3.1832,-3.3863,-3.5508,-3.5341,-3.5037,-3.4781,-3.4193,-3.3887,-3.4018,-3.3645,-3.3332,-3.3056,-3.2659,-3.2418,-3.225,-3.1829,-3.1661,-3.1661,-3.1661,-3.1661,-3.1661,0.0,0.0,0.0,0.0,0.0,0.0,0.0,0.0,0.0,0.0,0.0,0.0,0.0,0.0,0.0,0.0,0.0,0.0,0.0,-2.3994,-2.4164,-2.398,-2.399,-2.4239,-2.4792,-2.4588,-2.4661,-2.5097,-2.528,-2.5408,-2.5422,-2.5306,-2.5202,-2.5202,-2.5439,-2.5563,-2.551,-2.5252,-2.497,0.0,0.0,-2.2403,-2.1848,-2.0598,-1.9982,-1.9678,-1.9107,-1.9083,-1.9336,-1.961,-2.0303,-2.1296,-2.2536,-2.3259,-2.3959,-2.5486,-2.6154,-2.6668,-2.7445,-2.7232,-2.6894,-2.758,-2.6741,-2.5678,-2.5152,-2.4125,-2.2939,-2.1318,-2.014,-1.9173,-1.8714,-1.9427,-2.0377,-2.1122,-2.2869,-2.4513,-2.56,-2.6234,-2.6619,-2.673,-2.6747,-2.6662,-2.6456,-2.6592,-2.7033,-2.7428,-2.7732,-2.8156,-2.8957,-2.8984,-2.8902,-2.8728,-2.8893,-2.9558,-3.0577,-3.1937,-3.3422,-3.5198,-3.5039,-3.4818,-3.4263,-3.3997,-3.3898,-3.3851,0.0,-3.3356,-3.2923,-3.2623,-3.2358,-3.2106,-3.1793,-3.1661,-3.1661,-3.1661,-3.1661,-3.1661,0.0,0.0,0.0,0.0,0.0,0.0,0.0,0.0,0.0,0.0,0.0,0.0,0.0,0.0,0.0,0.0,0.0,0.0,0.0,0.0,-2.4426,-2.463,-2.3879,-2.3595,-2.3882,-2.3593,-2.3416,-2.3416,-2.3989,-2.4226,-2.4141,-2.4566,-2.4667,-2.4577,-2.511,-2.5133,-2.4819,-2.4055,-2.3218,-2.234,-2.1367,-2.05,-1.9747,0.0,-1.9328,-1.9117,-1.8851,-1.9206,-1.9923,-2.1014,-2.1709,-2.2409,-2.3994,-2.4832,-2.5532,-2.7151,-2.7296,-2.7305,-2.902,-2.8253,-2.7063,-2.7408,-2.684,-2.5777,-2.4307,-2.3749,-2.2997,-2.1275,-2.0162,-1.9244,-1.8594,-1.887,-1.9453,-2.03,-2.1627,-2.3109,-2.4735,-2.5532,-2.6217,-2.6987,-2.7073,-2.7073,-2.7073,-2.6765,-2.6815,-2.7495,-2.7975,-2.8582,-2.8856,-2.8938,-2.8718,-2.8324,-2.8753,-3.018,-3.2437,-3.255,-3.3364,-3.4693,-3.4693,-3.4404,-3.3779,-3.3836,-3.3859,-3.3768,-3.3803,-3.3368,-3.2599,-3.2527,-3.2214,-3.1769,-3.1697,-3.1661,-3.1661,-3.1661,-3.1661,-3.1661,0.0,0.0,0.0,0.0,0.0,0.0,0.0,0.0,0.0,0.0,-2.5712,-2.4982,0.0,0.0,0.0,0.0,0.0,0.0,0.0,0.0,0.0,-2.4926,-2.423,-2.3937,-2.4219,-2.3437,-2.3016,-2.3016,-2.3054,-2.308,-2.3034,-2.2586,-2.2325,-2.2179,-2.2289,-2.202,-2.1453,-2.1776,-2.1482,-2.0848,-2.0476,-2.0156,-1.9747,-1.9512,0.0,0.0,-1.8637,-1.8751,-1.9437,-2.1652,-2.2754,-2.3523,-2.5463,-2.6416,-2.7208,-2.9125,-2.9566,-2.9602,-2.9951,-2.9298,-2.8284,-2.753,-2.6684,-2.5606,-2.3984,-2.329,-2.2388,-2.0198,-1.9462,-1.8852,-1.8215,-1.8708,-1.9624,-2.0994,-2.1961,-2.3297,-2.5446,-2.5857,-2.6217,-2.6987,-2.7073,-2.7073,-2.7073,-2.7013,-2.7116,-2.7513,-2.7599,-2.7928,-2.8498,-2.8555,-2.8306,-2.7884,-2.8823,-3.0073,-3.1495,-3.237,-3.3303,-3.4142,-3.4142,-3.4136,-3.404,-3.3194,-3.3173,-3.3899,-3.314,0.0,-3.3116,-3.2683,-3.2442,-3.231,-3.1841,-3.1661,-3.1661,-3.1661,-3.1661,-3.1661,0.0,0.0,0.0,0.0,0.0,0.0,0.0,-2.8299,-2.8176,-2.7854,-2.6887,-2.5999,-2.5323,-2.4955,-2.466,0.0,0.0,0.0,0.0,0.0,0.0,0.0,-2.5078,-2.4773,-2.4768,-2.4517,-2.4413,-2.4413,0.0,-2.3727,-2.3679,-2.2927,-2.2518,-2.2387,-2.2572,-2.2233,-2.1536,-2.1536,-2.1075,-2.022,-2.0359,-2.021,-1.9879,0.0,0.0,0.0,-1.8768,-1.8975,-1.9574,-2.1307,-2.2409,-2.3534,-2.6358,-2.7426,-2.7824,-2.9035,-2.9557,-2.9802,-2.9742,-2.9194,-2.8489,-2.8141,-2.7062,-2.5661,-2.4423,-2.3683,-2.2679,-2.0263,-1.958,-1.9292,-1.8674,-1.8742,-1.9316,-2.0797,-2.1457,-2.2398,-2.4461,-2.5104,-2.5711,-2.6653,-2.6953,-2.7073,-2.7073,-2.7073,-2.7194,-2.7297,-2.7309,-2.765,-2.8192,-2.798,-2.7765,-2.7765,-2.8659,-2.9839,-3.1257,-3.2351,-3.3304,-3.4004,-3.4004,-3.3942,-3.3854,-3.318,-3.3256,-3.3827,-3.3155,-3.2899,-3.2851,-3.2611,-3.2334,-3.2034,-3.1769,-3.1661,-3.1661,-3.1661,-3.1661,-3.1661,0.0,0.0,0.0,0.0,0.0,0.0,0.0,-2.8411,-2.8411,-2.8411,-2.7982,-2.7164,-2.5731,-2.541,-2.5041,0.0,0.0,0.0,0.0,0.0,0.0,0.0,0.0,0.0,-2.5444,0.0,0.0,-2.5524,-2.4947,0.0,0.0,0.0,0.0,0.0,-2.3474,-2.319,-2.2434,-2.2008,-2.1264,0.0,0.0,-2.0471,-2.0084,0.0,0.0,0.0,0.0,-1.9379,-1.973,-2.0888,-2.1793,-2.2971,-2.5903,-2.7136,-2.7599,-2.8152,-2.8834,-2.9399,-2.9503,-2.9042,-2.8584,-2.8679,-2.7472,-2.5894,-2.4824,-2.4018,-2.2848,-2.0378,-1.9904,-1.9668,-1.8913,-1.876,-1.9103,-2.0385,-2.0645,-2.1345,-2.3383,-2.4256,-2.5112,-2.6234,-2.6782,-2.7073,-2.7073,-2.7073,-2.7039,-2.6961,-2.7116,-2.7311,-2.7767,-2.7404,-2.7279,-2.7508,-2.8277,-2.9332,-3.0632,-3.1945,-3.2944,-3.3515,-3.373,-3.385,-3.3656,-3.3332,-3.3231,-3.3494,-3.3131,-3.2707,-3.2322,-3.2322,-3.2058,-3.1661,-3.1661,-3.1661,-3.1661,-3.1661,-3.1661,-3.1661,0.0,0.0,0.0,0.0,0.0,0.0,0.0,-2.8411,-2.8411,-2.8411,-2.8511,-2.8093,-2.6738,-2.579,-2.5041,0.0,0.0,0.0,0.0,0.0,0.0,0.0,0.0,0.0,0.0,0.0,0.0,-2.4725,-2.4667,0.0,0.0,0.0,0.0,0.0,0.0,-2.3305,-2.2738,-2.2403,0.0,0.0,0.0,0.0,0.0,0.0,0.0,0.0,0.0,-1.9442,-1.9381,-2.0879,-2.143,-2.1722,-2.2661,-2.4358,-2.6158,-2.6794,-2.8184,-2.9524,-2.9974,-3.0019,-2.9732,-2.8814,-2.7579,-2.6187,-2.479,-2.3406,-2.1876,-2.0241,-1.9904,-1.9511,-1.8353,-1.8549,-1.9224,-2.0179,-2.0018,-2.0737,-2.3306,-2.4025,-2.471,-2.5848,-2.6628,-2.7073,-2.7073,-2.7073,-2.6927,-2.6568,-2.6469,-2.6623,-2.7176,-2.7215,-2.7031,-2.671,-2.7695,-2.8301,-2.8447,-3.0652,-3.1786,-3.1845,-3.2914,-3.3527,-3.3645,-3.2957,-3.27,-3.2923,-3.2172,-3.1793,0.0,-3.1745,-3.1709,-3.1661,-3.1661,-3.1661,-3.1661,-3.1661,-3.1661,-3.1661,0.0,0.0,0.0,0.0,0.0,0.0,-2.8826,-2.8573,-2.855,-2.8965,-2.874,-2.8324,-2.7798,-2.6641,-2.5531,-2.456,0.0,0.0,0.0,0.0,0.0,0.0,0.0,0.0,0.0,0.0,-2.5687,-2.5621,-2.5197,0.0,0.0,0.0,0.0,0.0,0.0,-2.3712,-2.3186,-2.2549,0.0,0.0,0.0,0.0,0.0,0.0,0.0,0.0,0.0,0.0,-1.9397,-1.9982,-2.0357,-2.061,-2.0378,-2.1539,-2.3167,-2.4594,-2.6109,-2.7532,-2.8547,-2.9168,-2.9555,-2.9073,-2.779,-2.6289,-2.5202,-2.3565,-2.2009,-2.0742,-2.0459,-2.0226,-1.9283,-1.9063,-1.9201,-1.9715,-1.9392,-1.9735,-2.1713,-2.2304,-2.3211,-2.5052,-2.5729,-2.6225,-2.6679,-2.6722,-2.6592,-2.6088,-2.6232,-2.6408,-2.649,-2.671,-2.6747,-2.6591,-2.7609,-2.8105,-2.7851,-3.0011,-3.1007,-3.0734,-3.1841,-3.2609,-3.3157,-3.2241,-3.223,-3.2852,-3.186,-3.1572,0.0,-3.1661,-3.1661,-3.1661,-3.1661,-3.1661,-3.1661,-3.1661,-3.1661,-3.1661,0.0,0.0,0.0,0.0,0.0,-2.9257,-2.912,-2.8826,-2.8759,-2.9058,-2.8737,-2.84,-2.8199,-2.7303,-2.6298,-2.5321,-2.4901,0.0,0.0,0.0,0.0,0.0,0.0,0.0,0.0,0.0,-2.6233,-2.6111,-2.5618,-2.518,0.0,0.0,-2.4491,-2.416,0.0,0.0,0.0,0.0,0.0,0.0,0.0,0.0,0.0,0.0,0.0,0.0,0.0,0.0,0.0,0.0,0.0,-1.9825,-1.9041,-1.9624,-2.0854,-2.2336,-2.4101,-2.5788,-2.6993,-2.809,-2.8866,-2.8731,-2.7521,-2.6092,-2.5068,-2.336,-2.1718,-2.1033,-2.0702,-2.0459,-1.9982,-1.9687,-1.9519,-1.9498,-1.9256,-1.947,-2.0523,-2.1216,-2.2218,-2.3939,-2.4581,-2.5172,-2.5917,-2.6088,-2.6059,-2.5979,-2.5957,-2.5985,-2.6254,-2.6354,-2.6463,-2.6582,-2.7305,-2.7506,-2.7084,-2.8922,-2.9606,-2.925,-3.0641,-3.1519,-3.2128,-3.1669,-3.1855,-3.2521,-3.1788,-3.1484,0.0,-3.1661,-3.1661,-3.1661,-3.1661,-3.1661,-3.1661,-3.1661,-3.1661,-3.1661,0.0,0.0,0.0,0.0,0.0,0.0,-2.9166,-2.909,-2.892,-2.846,-2.8573,-2.842,-2.7796,-2.7703,-2.7437,-2.6738,-2.6053,0.0,0.0,0.0,0.0,0.0,0.0,0.0,0.0,0.0,-2.6111,-2.5729,-2.5729,-2.5439,-2.4991,-2.5005,-2.4765,-2.4279,0.0,0.0,0.0,0.0,0.0,0.0,0.0,0.0,0.0,0.0,0.0,0.0,0.0,0.0,0.0,0.0,0.0,0.0,0.0,-1.8973,-1.974,-2.0253,-2.2397,-2.4747,-2.5658,-2.69,-2.7831,-2.7396,-2.6579,-2.5533,-2.4198,-2.2237,-2.0656,-2.0868,-2.0382,-1.9904,-1.9904,-2.0459,-2.0605,-1.9652,-1.982,-2.011,-2.0279,-2.1276,-2.2133,-2.2526,-2.3254,-2.4016,-2.477,-2.5172,-2.5613,-2.6291,-2.5572,-2.5514,-2.6564,-2.6197,-2.616,-2.6573,-2.6591,-2.638,-2.6074,-2.7084,-2.7476,-2.7025,-2.9151,-3.0263,-3.0252,-3.1285,-3.1725,-3.1701,-3.1711,-3.1661,0.0,-3.1661,-3.1661,-3.1661,-3.1661,-3.1661,-3.1661,-3.1661,-3.1661,-3.1661,0.0,0.0,0.0,0.0,0.0,0.0,0.0,-2.9777,-2.9569,-2.9548,-2.9203,-2.8967,-2.8881,-2.8029,-2.7396,-2.718,-2.6547,0.0,0.0,0.0,0.0,0.0,0.0,0.0,0.0,0.0,-2.5853,-2.5536,-2.5536,-2.5244,-2.4637,-2.458,-2.4363,-2.3982,-2.3662,-2.3365,0.0,0.0,0.0,0.0,0.0,0.0,-2.0816,0.0,0.0,0.0,0.0,0.0,0.0,0.0,0.0,0.0,0.0,0.0,0.0,-1.9484,-2.0783,-2.2542,-2.4084,-2.5047,-2.5647,-2.5834,-2.5181,-2.4312,-2.3577,-2.2359,-2.1423,-2.1522,-2.1328,-2.1088,-2.0624,-2.0779,-2.0703,-2.0034,-2.0009,-2.0119,-2.0279,-2.0831,-2.1662,-2.28,-2.4068,-2.4932,-2.5172,-2.5078,-2.5104,-2.5532,-2.5286,-2.5388,-2.6227,-2.5815,-2.5738,-2.6151,-2.616,-2.583,-2.5161,-2.6241,-2.6514,-2.6084,-2.7528,-2.8657,-2.9748,-2.9642,-3.0445,-3.1689,-3.1364,-3.1407,-3.1661,-3.1661,-3.1661,-3.1661,-3.1661,-3.1661,-3.1661,-3.1661,-3.1661,-3.1661,0.0,0.0,0.0,0.0,0.0,0.0,0.0,-3.0267,-2.9983,-2.9752,-2.9343,-2.9077,-2.903,-2.8288,-2.778,-2.778,-2.7396,0.0,0.0,0.0,0.0,0.0,0.0,0.0,-2.6864,-2.615,-2.5592,-2.5313,-2.5363,-2.4993,-2.4247,-2.4295,-2.4046,-2.3582,-2.3258,-2.3017,0.0,0.0,0.0,0.0,0.0,0.0,-2.0366,0.0,0.0,0.0,0.0,0.0,0.0,0.0,0.0,0.0,0.0,0.0,0.0,0.0,-1.9675,-2.0752,-2.2594,-2.3557,-2.4146,-2.4602,-2.4167,-2.3494,-2.3029,-2.2189,-2.1492,-2.1731,-2.1645,-2.1415,-2.1262,-2.1252,-2.0957,-2.0125,-2.031,-2.0355,-1.9981,-2.0566,-2.1533,-2.2758,-2.3982,-2.4727,-2.4727,-2.4778,-2.4863,-2.5029,-2.4887,-2.5103,-2.5667,-2.5395,-2.5262,-2.5509,-2.5656,-2.5427,-2.4785,-2.5456,-2.5528,-2.5118,-2.6157,-2.7164,-2.8094,-2.8271,-2.9331,-3.0824,-3.0717,-3.1038,0.0,-3.1444,-3.148,-3.1637,-3.1444,-3.1492,-3.1661,-3.1661,-3.1661,-3.1637,0.0,0.0,0.0,0.0,0.0,0.0,0.0,-3.0559,-3.0208,-2.9303,-2.9166,-2.8951,-2.8493,-2.8396,-2.8411,-2.8411,0.0,0.0,0.0,0.0,0.0,0.0,0.0,0.0,-2.6457,-2.5798,-2.5313,-2.4948,-2.501,-2.4655,-2.3903,-2.4166,-2.3885,-2.3078,-2.3078,-2.2775,-2.2359,-2.1874,-2.1549,-2.1388,-2.1221,-2.0694,0.0,0.0,0.0,0.0,0.0,0.0,0.0,0.0,0.0,0.0,0.0,0.0,0.0,0.0,0.0,0.0,0.0,-2.2315,-2.307,-2.3598,-2.3381,-2.2936,-2.2542,-2.171,0.0,-2.1645,-2.1339,-2.1098,-2.1731,-2.1807,-2.1415,-2.0177,-2.0652,-2.0698,-1.9462,-2.0615,-2.1844,-2.2567,-2.3254,-2.3725,-2.3674,-2.4342,-2.4743,-2.4715,-2.45,-2.4595,-2.4945,-2.4866,-2.4748,-2.4785,-2.5106,-2.5115,-2.4739,-2.4739,-2.4537,-2.4251,-2.5118,-2.5596,-2.579,-2.7179,-2.8369,0.0,-3.0056,-3.0777,0.0,-3.106,-3.1168,-3.1553,-3.1023,-3.1144,-3.1601,-3.1565,-3.1553,-3.148,0.0,0.0,0.0,0.0,0.0,0.0,0.0,0.0,0.0,0.0,-2.9881,-2.9454,-2.8997,-2.8621,-2.8411,0.0,0.0,0.0,0.0,0.0,0.0,0.0,0.0,0.0,-2.5837,-2.5328,-2.4948,-2.4637,-2.454,-2.4275,-2.3891,-2.3577,-2.3324,-2.3065,-2.2714,-2.2359,-2.1987,-2.16,-2.1463,-2.1388,-2.1221,-2.076,0.0,0.0,0.0,0.0,-1.9041,-1.9038,0.0,0.0,0.0,0.0,0.0,0.0,0.0,0.0,-1.9075,-1.9313,-2.0441,0.0,-2.0845,-2.2004,-2.1942,-2.1662,0.0,-2.1803,-2.1655,-2.1807,-2.1721,-2.1645,-2.1797,-2.1807,-2.145,-2.0509,-2.125,-2.1547,-2.0598,-2.1977,-2.2918,-2.2627,-2.3734,-2.4316,-2.3717,-2.4093,-2.445,-2.4689,-2.4254,-2.431,-2.4936,-2.4592,-2.4445,-2.4776,-2.4556,-2.44,-2.4299,-2.4299,-2.4253,-2.4152,-2.4449,-2.4922,-2.579,-2.7105,-2.8114,-2.8869,-3.038,-3.0842,-3.0482,-3.0759,-3.0951,-3.1011,-3.0482,-3.0591,-3.1011,-3.0603,-3.0458,-3.0446,0.0,0.0,0.0,0.0,0.0,0.0,0.0,0.0,0.0,0.0,0.0,0.0,0.0,0.0,0.0,0.0,0.0,0.0,0.0,0.0,0.0,0.0,0.0,-2.6336,-2.5756,-2.5034,-2.4593,-2.4408,-2.4275,-2.412,-2.3892,-2.3527,-2.3269,-2.3146,-2.2468,-2.2061,-2.1812,-2.1526,-2.1336,-2.1273,-2.1019,0.0,0.0,0.0,0.0,0.0,-1.894,-1.901,0.0,-1.9075,-1.9075,-1.9075,0.0,0.0,0.0,0.0,-1.9075,-1.922,-1.9934,-2.0255,-2.0607,-2.1569,-2.1776,-2.1756,-2.1797,-2.1807,-2.1807,-2.1807,-2.1807,-2.1807,-2.1807,-2.1807,-2.1635,-2.1033,-2.1562,-2.2123,-2.2082,-2.2878,-2.3546,-2.3586,-2.4158,-2.4321,-2.3931,-2.3956,-2.4012,-2.4166,-2.3973,-2.4052,-2.4395,-2.429,-2.4262,-2.4491,-2.4088,-2.3877,-2.3877,-2.3877,-2.3785,-2.3602,-2.3785,-2.4244,-2.5107,-2.6054,-2.7186,-2.8365,-2.9466,0.0,-3.0086,-3.0134,-3.029,-3.0458,-2.9929,-3.005,-3.0482,-3.0194,-3.0086,-3.005,0.0,0.0,0.0,0.0,0.0,0.0,0.0,0.0,0.0,0.0,0.0,0.0,0.0,0.0,0.0,0.0,0.0,0.0,0.0,0.0,0.0,0.0,-2.6774,-2.619,-2.5619,-2.4788,-2.4379,-2.4308,-2.4307,-2.423,-2.4029,-2.3853,-2.355,-2.3071,-2.2226,-2.1812,-2.1624,-2.1474,-2.1273,-2.1158,-2.0839,0.0,0.0,0.0,0.0,0.0,0.0,0.0,0.0,-1.9131,-1.9131,-1.9131,-1.9131,0.0,0.0,0.0,0.0,0.0,-1.9702,-2.0472,-2.13,-2.1621,-2.1994,-2.2201,-2.188,-2.1807,-2.1807,-2.1807,-2.1807,-2.1807,-2.1807,-2.1807,-2.1712,-2.1511,-2.1997,-2.2683,-2.3547,-2.3776,-2.4075,-2.4597,-2.4503,-2.4423,-2.434,-2.3937,-2.3757,-2.365,-2.3776,-2.3803,-2.3764,-2.4053,-2.4125,-2.406,-2.373,-2.3483,-2.3354,-2.3419,-2.329,-2.2866,-2.329,-2.3644,-2.4137,-2.4952,-2.6154,-2.7687,0.0,0.0,-2.9821,-2.9448,-2.9556,-2.9917,-2.9388,-2.9508,-2.9953,-2.9881,-2.9845,-2.9785,0.0,0.0,0.0,0.0,0.0,0.0,0.0,0.0,0.0,0.0,0.0,0.0,0.0,0.0,0.0,0.0,0.0,0.0,0.0,0.0,0.0,-2.7401,-2.6534,-2.5494,-2.4229,-2.4476,-2.4529,-2.4394,-2.4722,-2.481,-2.4695,-2.436,-2.3725,-2.275,-2.2048,-2.1612,-2.1463,-2.1285,-2.1221,-2.1158,-2.1158,0.0,0.0,0.0,0.0,0.0,0.0,0.0,0.0,-1.9407,-1.9341,-1.9142,-1.9407,0.0,0.0,0.0,0.0,0.0,-1.9702,-2.071,-2.1621,-2.13,-2.1269,-2.1414,-2.1735,-2.1807,-2.1807,-2.1807,-2.1807,-2.1807,-2.1807,-2.1807,-2.1712,-2.1511,-2.2585,-2.3632,-2.4451,-2.5124,-2.5257,-2.4485,-2.5142,-2.5507,-2.4836,-2.4436,-2.4275,-2.4527,-2.3916,-2.3609,-2.3755,-2.4053,-2.3996,-2.3648,-2.3574,-2.3208,-2.252,-2.2868,-2.2921,-2.2857,-2.2921,-2.31,-2.3514,-2.4638,-2.5668,-2.6487,0.0,-2.8724,-2.8775,-2.9148,-2.9352,-2.9364,-2.8835,-2.8955,-2.9364,-2.8919,-2.8751,-2.8739,0.0,0.0,0.0,0.0,0.0,0.0,0.0,0.0,0.0,0.0,0.0,0.0,0.0,0.0,0.0,0.0,0.0,0.0,0.0,0.0,-2.7653,-2.6877,-2.6736,-2.6155,-2.5177,-2.4935,-2.481,-2.4734,-2.4734,-2.4828,-2.493,-2.4303,-2.355,-2.2686,-2.1985,-2.1624,-2.1388,-2.1285,-2.1221,-2.1158,0.0,0.0,0.0,0.0,0.0,0.0,0.0,0.0,0.0,0.0,-1.9407,-1.9131,-1.9274,0.0,0.0,0.0,0.0,0.0,-1.9323,-2.0203,-2.1073,-2.1104,-2.1683,-2.2221,-2.219,-2.1983,-2.1807,-2.1807,-2.1807,-2.1807,-2.1807,-2.2014,-2.2329,-2.2696,-2.3744,-2.4608,-2.4925,-2.5533,-2.5668,-2.4964,-2.5373,-2.5467,-2.4913,-2.4187,-2.3863,-2.4381,-2.3547,-2.3144,-2.343,-2.3724,-2.3639,-2.314,-2.2997,-2.2703,-2.2327,-2.2309,-2.2208,-2.2208,-2.2511,-2.2769,-2.3271,-2.4645,-2.5641,-2.64,0.0,-2.8444,-2.8522,-2.8775,-2.8871,-2.8847,-2.8607,-2.8655,-2.8847,-2.8595,-2.851,-2.851,0.0,0.0,0.0,0.0,0.0,0.0,0.0,0.0,0.0,0.0,0.0,0.0,0.0,0.0,0.0,0.0,0.0,0.0,0.0,-2.7935,-2.7708,-2.7004,-2.6945,-2.6557,-2.5945,-2.5444,-2.519,-2.5126,-2.5003,-2.5012,-2.5203,-2.4207,-2.3412,-2.2799,-2.1969,-2.1549,-2.1336,-2.1221,-2.1221,-2.1158,0.0,0.0,0.0,0.0,0.0,0.0,0.0,0.0,0.0,0.0,0.0,0.0,0.0,0.0,0.0,-1.9264,-1.9208,-1.9208,-1.9142,-1.981,-2.0669,-2.1031,-2.1994,-2.2832,-2.2687,-2.2304,-2.2004,-2.2108,-2.2128,-2.2097,-2.1983,-2.2346,-2.2894,-2.3598,-2.4571,-2.5233,-2.5233,-2.5606,-2.5828,-2.5445,-2.5475,-2.5407,-2.5064,-2.4134,-2.379,-2.4309,-2.3381,-2.2919,-2.3199,-2.3295,-2.3121,-2.2729,-2.2492,-2.2282,-2.219,-2.1887,-2.1741,-2.1741,-2.2043,-2.2376,-2.294,-2.4317,-2.5391,-2.6318,-2.7406,-2.8087,-2.851,-2.851,-2.851,-2.851,-2.851,-2.851,-2.851,-2.851,-2.851,-2.8498,0.0,0.0,0.0,0.0,0.0,0.0,0.0,0.0,0.0,0.0,0.0,0.0,0.0,0.0,0.0,0.0,0.0,0.0,0.0,-2.7581,-2.772,-2.8691,-2.6987,-2.5733,-2.5116,-2.5612,-2.576,-2.5536,-2.5884,-2.5881,-2.5533,-2.4162,-2.3404,-2.3211,-2.1981,-2.1336,-2.1221,-2.1221,-2.1221,-2.1221,-2.1158,0.0,0.0,0.0,0.0,0.0,0.0,0.0,0.0,0.0,0.0,0.0,0.0,0.0,-1.9977,-1.9671,-1.9539,-1.9473,-1.9208,-2.0048,-2.1073,-2.1104,-2.1507,-2.2118,-2.2946,-2.278,-2.2573,-2.2998,-2.3091,-2.2956,-2.2532,-2.2822,-2.3163,-2.3225,-2.4364,-2.5233,-2.5233,-2.5606,-2.5885,-2.5836,-2.5836,-2.5846,-2.5786,-2.5117,-2.474,-2.4973,-2.372,-2.3045,-2.3514,-2.296,-2.2608,-2.2382,-2.2346,-2.2144,-2.1786,-2.175,-2.1741,-2.1741,-2.1768,-2.1848,-2.2185,-2.3144,-2.4337,-2.5652,-2.6483,-2.7487,-2.851,-2.851,-2.851,-2.851,-2.851,-2.851,-2.851,-2.851,-2.851,-2.8438,0.0,0.0,0.0,0.0,0.0,0.0,0.0,0.0,0.0,0.0,0.0,0.0,0.0,0.0,0.0,0.0,0.0,0.0,0.0,-2.8545,-2.8484,-2.7664,-2.7544,-2.6828,-2.5428,-2.5984,-2.6138,-2.5946,-2.5869,-2.5688,-2.537,-2.4106,-2.3593,-2.3638,-2.2122,-2.1522,-2.1617,-2.1296,-2.1221,-2.1221,-2.1221,-2.1221,0.0,0.0,0.0,0.0,0.0,0.0,0.0,0.0,-2.0366,-2.0107,-2.0237,-2.0172,-2.0042,-1.9671,-1.9605,-1.9539,-1.9208,-2.0069,-2.1114,-2.1114,-2.1683,-2.2397,-2.3039,-2.2832,-2.2542,-2.2718,-2.2987,-2.3132,-2.2956,-2.3308,-2.3619,-2.3619,-2.4529,-2.5233,-2.5233,-2.5606,-2.5782,-2.5513,-2.572,-2.5771,-2.5502,-2.4826,-2.4485,-2.4854,-2.3794,-2.3091,-2.2999,-2.2917,-2.2547,-2.197,-2.1961,-2.1887,-2.1741,-2.1741,-2.1603,-2.1346,-2.1346,-2.1346,-2.1521,-2.2715,-2.3875,-2.4949,-2.6431,-2.7592,-2.851,-2.851,-2.851,-2.851,-2.851,-2.851,-2.8474,-2.8138,-2.8017,-2.7993,0.0,0.0,0.0,0.0,0.0,0.0,0.0,0.0,0.0,0.0,0.0,0.0,0.0,0.0,0.0,0.0,0.0,0.0,-2.8272,-2.8612,-2.8519,-2.7746,-2.7615,-2.7092,-2.6117,-2.6319,-2.6339,-2.6213,-2.5828,-2.5535,-2.5288,-2.4205,-2.3854,-2.392,-2.2554,-2.1862,-2.1904,-2.1548,-2.1307,-2.1221,-2.1221,-2.1221,0.0,0.0,0.0,0.0,0.0,0.0,0.0,0.0,-2.0635,-2.0431,-2.0431,-2.0431,-2.0366,-1.9987,-1.9933,-1.9802,-1.9407,-2.0104,-2.1053,-2.0897,-2.1704,-2.2615,-2.308,-2.2946,-2.2801,-2.308,-2.3163,-2.3236,-2.3381,-2.3546,-2.3712,-2.3857,-2.4519,-2.5016,-2.5016,-2.5275,-2.5347,-2.5047,-2.5275,-2.5337,-2.5047,-2.4425,-2.4253,-2.4606,-2.3791,-2.325,-2.3178,-2.3188,-2.2739,-2.1979,-2.2092,-2.1868,-2.1355,-2.1475,-2.1328,-2.0924,-2.0796,-2.0805,-2.0924,-2.2266,-2.3247,-2.3956,-2.5544,-2.6875,-2.7838,-2.7672,-2.777,-2.8029,-2.8198,-2.8162,-2.7969,-2.7609,-2.7476,-2.7476,0.0,0.0,0.0,0.0,0.0,0.0,0.0,0.0,0.0,0.0,0.0,0.0,0.0,0.0,0.0,0.0,0.0,0.0,-2.8637,-2.7471,-2.7577,-2.949,-2.7039,-2.6117,-2.7149,-2.6521,-2.6201,-2.6201,-2.5758,-2.5535,-2.53,-2.4644,-2.4198,-2.3967,-2.3314,-2.2611,-2.1939,-2.1927,-2.1629,-2.1233,-2.1221,-2.1221,-2.1233,0.0,0.0,0.0,0.0,0.0,0.0,0.0,-2.1221,-2.1221,-2.1221,-2.1221,-2.1094,-2.0711,-2.0582,-2.0453,-1.9813,-2.0318,-2.0889,-2.0512,-2.1476,-2.2615,-2.308,-2.3184,-2.3443,-2.4353,-2.3826,-2.3329,-2.3795,-2.3505,-2.335,-2.3805,-2.425,-2.454,-2.454,-2.454,-2.454,-2.4444,-2.4444,-2.4444,-2.4529,-2.4136,-2.4053,-2.4498,-2.3418,-2.3263,-2.4457,-2.378,-2.314,-2.248,-2.2871,-2.2256,-2.0521,-2.0906,-2.0906,-2.0512,-2.0118,-2.0136,-2.0512,-2.1661,-2.2299,-2.2595,-2.3663,-2.507,-2.6461,-2.5954,-2.6142,-2.6983,-2.7512,-2.7392,-2.6935,-2.6923,-2.6923,-2.6923,0.0,0.0,0.0,0.0,0.0,0.0,0.0,0.0,0.0,0.0,0.0,0.0,0.0,0.0,0.0,0.0,0.0,0.0,-2.8663,-2.9135,-2.8895,-2.7642,-2.76,-2.7092,-2.5862,-2.584,-2.5758,-2.5758,-2.5535,-2.5382,-2.53,-2.4644,-2.44,-2.4519,-2.3489,-2.3004,-2.288,-2.2226,-2.1835,-2.1663,-2.1307,-2.1376,-2.1663,0.0,0.0,0.0,0.0,0.0,0.0,0.0,0.0,0.0,-2.1221,-2.1221,-2.1174,-2.1192,-2.1151,-2.1097,-2.0694,-2.103,-2.1426,-2.098,-2.1714,-2.2615,-2.308,-2.3184,-2.336,-2.395,-2.3857,-2.3712,-2.3857,-2.4022,-2.4084,-2.3908,-2.425,-2.454,-2.454,-2.454,-2.4426,-2.4115,-2.4074,-2.395,-2.3619,-2.3463,-2.3453,-2.3577,-2.3299,-2.3104,-2.3061,-2.3144,-2.299,-2.2446,-2.2212,-2.1894,-2.131,-2.0875,-2.0493,-2.0099,-1.9989,-1.9989,-2.0108,-2.0592,-2.1296,-2.2159,-2.2956,-2.4181,-2.5605,-2.6018,-2.6469,-2.6947,-2.7103,-2.7079,-2.6887,-2.649,-2.6346,-2.6406,0.0,0.0,0.0,0.0,0.0,0.0,0.0,0.0,0.0,0.0,-3.05,0.0,0.0,0.0,0.0,0.0,0.0,0.0,0.0,-2.9167,-2.8664,-2.7338,-2.7407,-2.6835,-2.5475,-2.5436,-2.5465,-2.5465,-2.5382,-2.5312,-2.53,-2.4917,-2.4755,-2.4897,-2.4189,-2.3572,-2.3179,-2.2557,-2.2177,-2.1904,-2.1594,-2.1652,-2.1893,0.0,0.0,0.0,0.0,0.0,0.0,0.0,0.0,0.0,-2.1221,-2.1221,-2.1227,-2.1331,-2.1345,-2.1316,-2.1202,-2.1474,-2.1797,-2.166,-2.2318,-2.3133,-2.3431,-2.3598,-2.3805,-2.4084,-2.4002,-2.3929,-2.4105,-2.4219,-2.425,-2.4157,-2.4364,-2.4478,-2.4302,-2.4281,-2.4105,-2.366,-2.3598,-2.3494,-2.3215,-2.3018,-2.2987,-2.3174,-2.3018,-2.2987,-2.2991,-2.3234,-2.314,-2.2713,-2.2534,-2.2029,-2.0956,-2.0828,-2.047,-1.9897,-1.9756,-1.9839,-2.016,-2.0089,-2.0391,-2.1174,-2.2259,-2.3223,-2.3975,-2.5475,-2.6012,-2.5843,-2.6366,-2.6466,-2.625,-2.5913,-2.5781,-2.5865,0.0,0.0,0.0,0.0,0.0,0.0,0.0,0.0,0.0,0.0,-3.0134,-2.9276,0.0,0.0,0.0,0.0,0.0,0.0,0.0,-2.8324,-2.7746,-2.809,-2.6688,-2.5828,-2.5676,-2.5453,-2.5312,-2.5312,-2.5312,-2.53,-2.5382,-2.536,-2.5289,-2.5182,-2.5171,-2.4401,-2.3094,-2.3047,-2.2587,-2.1927,-2.1927,-2.1927,-2.1939,-2.1973,0.0,0.0,0.0,0.0,0.0,0.0,0.0,0.0,-2.1227,-2.1227,-2.1238,-2.1348,-2.136,-2.1346,-2.1508,-2.1902,-2.2277,-2.2456,-2.3112,-2.3847,-2.3919,-2.425,-2.4529,-2.4488,-2.4188,-2.4064,-2.4467,-2.4209,-2.4053,-2.4416,-2.4478,-2.4322,-2.3877,-2.3815,-2.365,-2.3184,-2.3122,-2.3111,-2.307,-2.2677,-2.2594,-2.2967,-2.2604,-2.2699,-2.3493,-2.3583,-2.347,-2.3033,-2.3349,-2.2372,-2.0048,-2.0596,-2.0596,-1.9814,-1.9425,-1.964,-2.0333,-1.9844,-1.9715,-1.997,-2.1805,-2.2366,-2.2132,-2.4567,-2.509,-2.4311,-2.5527,-2.5733,-2.5312,-2.5312,-2.5312,-2.5384,0.0,0.0,0.0,0.0,0.0,0.0,0.0,0.0,0.0,0.0,0.0,0.0,0.0,0.0,0.0,0.0,0.0,0.0,0.0,0.0,-2.8955,-2.7351,-2.622,-2.5943,-2.6471,-2.5721,-2.5312,-2.5312,-2.5312,-2.5594,-2.6151,-2.6019,-2.5911,-2.5873,-2.5757,-2.4861,-2.3502,-2.3187,-2.2587,-2.1927,-2.1927,-2.1927,-2.1973,-2.2363,-2.2455,0.0,0.0,0.0,0.0,0.0,0.0,0.0,-2.1766,-2.1766,-2.1847,-2.2237,-2.2352,-2.2399,-2.2486,-2.3028,-2.3395,-2.3015,-2.344,-2.393,-2.4291,-2.4478,-2.4447,-2.4095,-2.4219,-2.4426,-2.4519,-2.4467,-2.4322,-2.4064,-2.4022,-2.3857,-2.3401,-2.3339,-2.3163,-2.2697,-2.2646,-2.2501,-2.2139,-2.2014,-2.1849,-2.158,-2.1466,-2.1455,-2.1699,-2.1988,-2.2242,-2.2377,-2.2147,-2.1796,-2.1137,-2.0169,-1.9506,0.0,-1.9013,-1.8911,-1.9075,-1.9243,-1.9548,-1.996,-2.1716,-2.2587,-2.2852,-2.4337,-2.4989,-2.5087,-2.5361,-2.5408,-2.5312,-2.5312,-2.5312,-2.5384,0.0,0.0,0.0,0.0,0.0,0.0,0.0,0.0,0.0,0.0,0.0,0.0,0.0,0.0,0.0,0.0,0.0,0.0,0.0,0.0,-2.8712,-2.6824,-2.6552,-2.6333,-2.6057,-2.6264,-2.6195,-2.5791,-2.6457,-2.6666,-2.6427,-2.6967,-2.6997,-2.6677,-2.6881,-2.5917,-2.4013,-2.3819,-2.3096,-2.2059,-2.2059,-2.1993,-2.1984,-2.249,-2.2375,-2.2019,-2.2501,0.0,0.0,0.0,0.0,0.0,0.0,0.0,-2.234,-2.2604,-2.2865,-2.3047,-2.311,-2.3767,-2.4389,-2.4191,-2.4621,-2.5153,-2.5136,-2.5094,-2.5031,-2.4881,-2.4618,-2.454,-2.454,-2.4364,-2.4146,-2.3919,-2.3691,-2.3391,-2.2925,-2.2853,-2.2687,-2.2221,-2.2159,-2.2066,-2.1828,-2.1611,-2.1373,-2.1135,-2.0907,-2.0783,-2.0783,-2.1209,-2.1605,-2.1882,-2.1873,-2.1635,-2.121,-2.0579,-2.0225,-2.0009,-1.9311,-1.8892,-1.8724,-1.9362,-1.9932,-2.0557,-2.1639,-2.2442,-2.3054,-2.4039,-2.458,-2.4779,-2.5158,-2.5312,-2.5312,-2.5312,-2.5312,-2.5348,0.0,0.0,0.0,0.0,0.0,0.0,0.0,0.0,0.0,0.0,0.0,0.0,0.0,0.0,0.0,0.0,0.0,0.0,0.0,0.0,0.0,-2.7224,-2.7359,-2.7007,-2.6054,-2.6952,-2.7224,-2.6759,-2.7962,-2.8069,-2.7118,-2.8222,-2.8373,-2.7793,-2.827,-2.7036,-2.4494,-2.4591,-2.3612,-2.215,-2.2325,-2.2205,-2.2073,-2.2753,-2.243,-2.174,-2.2604,-2.2673,-2.2363,-2.2696,0.0,0.0,0.0,0.0,-2.2811,-2.2811,-2.3129,-2.3522,-2.3522,-2.4382,-2.5317,-2.5518,-2.6098,-2.6487,-2.6141,-2.6069,-2.6047,-2.5876,-2.5126,-2.4519,-2.4436,-2.4126,-2.3826,-2.366,-2.3318,-2.2904,-2.2439,-2.2377,-2.2232,-2.1849,-2.1807,-2.1776,-2.1694,-2.1342,-2.1052,-2.0897,-2.0524,-2.0307,-2.0307,-2.0669,-2.0999,-2.1333,-2.1762,-2.1603,-2.0841,-2.1101,-2.1101,-2.0764,-1.9646,-1.9017,-1.8842,-1.9563,-2.0246,-2.0914,-2.169,-2.236,-2.3032,-2.3829,-2.4192,-2.4337,-2.5004,-2.5312,-2.5312,-2.5312,-2.5312,-2.5312,0.0,0.0,0.0,0.0,0.0,0.0,0.0,0.0,0.0,0.0,-2.8627,-2.8712,0.0,0.0,0.0,0.0,0.0,0.0,0.0,0.0,0.0,-3.0155,-2.8284,-2.7734,-2.8893,-2.7803,-2.7538,-2.8147,-2.8973,-2.9511,-2.9875,-2.9892,-2.9905,-2.9982,-2.9359,-2.767,-2.5324,-2.4775,-2.3469,-2.1811,-2.269,-2.2784,-2.2549,-2.3758,-2.3909,-2.3398,-2.3847,-2.3948,-2.3833,-2.3465,-2.3339,0.0,0.0,0.0,-2.3339,-2.3339,-2.3339,-2.3537,-2.4023,-2.4991,-2.6082,-2.7029,-2.7043,-2.6906,-2.7198,-2.7302,-2.7094,-2.6348,-2.5319,-2.4416,-2.4033,-2.3919,-2.3619,-2.2811,-2.2625,-2.2428,-2.1963,-2.1901,-2.188,-2.1818,-2.1807,-2.1652,-2.1248,-2.1155,-2.0793,-1.9996,-1.9952,-1.9851,-1.9851,-1.9913,-2.0121,-2.0482,-2.0798,-2.0896,-2.0671,-2.0402,-2.026,-2.0194,-1.9191,-1.8874,-1.9126,-1.9531,-1.9814,-2.0167,-2.1852,-2.2756,-2.3032,-2.3829,-2.4492,-2.5158,-2.5241,-2.5312,-2.5312,-2.5312,-2.5312,-2.5312,0.0,0.0,0.0,0.0,0.0,0.0,0.0,0.0,0.0,0.0,0.0,-2.9383,0.0,0.0,0.0,0.0,0.0,0.0,0.0,0.0,0.0,-2.9495,-2.9238,-2.8866,-2.8399,-2.8853,-2.8839,-2.8438,-2.9884,-3.0779,-3.1057,-3.1652,-3.155,-3.0825,-3.0624,-2.9226,-2.7082,-2.6192,-2.4885,-2.3296,-2.3389,-2.3071,-2.2615,-2.3792,-2.3688,-2.3138,-2.4178,-2.4376,-2.4131,-2.4141,-2.4413,-2.4671,-2.4141,0.0,0.0,0.0,-2.4543,-2.4891,-2.5485,-2.5747,-2.5943,-2.6532,-2.7091,-2.756,-2.7849,-2.8131,-2.8287,-2.798,-2.699,-2.5777,-2.4384,-2.4175,-2.3892,-2.2683,-2.2273,-2.2035,-2.1838,-2.1807,-2.1807,-2.1807,-2.158,-2.1342,-2.1135,-2.0659,-2.0193,-1.9858,-1.9588,-1.9443,-1.9443,-1.9692,-1.985,-1.9924,-2.0495,-2.0731,-2.0582,-2.07,-2.0495,-2.0107,-1.9906,-1.9483,-1.8916,-1.9859,-2.0318,-2.0528,-2.2006,-2.3112,-2.3849,-2.4214,-2.4743,-2.5312,-2.5312,-2.5312,-2.5312,-2.5312,-2.5312,-2.5312,0.0,0.0,0.0,0.0,0.0,0.0,0.0,0.0,0.0,0.0,0.0,0.0,0.0,0.0,0.0,0.0,0.0,0.0,0.0,0.0,0.0,-2.8722,-2.9656,-2.9567,-2.8305,-2.9539,-2.9813,-2.8995,-3.0661,-3.1569,-3.1738,-3.282,-3.2708,-3.1732,-3.1553,-3.0429,-2.8637,-2.7525,-2.6237,-2.4912,-2.4558,-2.4076,-2.3632,-2.434,-2.4092,-2.3639,-2.4687,-2.4855,-2.4578,-2.5131,-2.5639,-2.5951,-2.5288,-2.5475,0.0,0.0,0.0,-2.6164,-2.6557,-2.6374,-2.613,-2.6101,-2.7087,-2.8104,-2.8126,-2.8761,-2.9185,-2.8835,-2.8366,-2.7313,-2.5057,-2.4526,-2.4057,-2.2787,-2.2178,-2.1807,-2.1807,-2.1807,-2.1807,-2.1807,-2.1497,-2.1197,-2.0969,-2.0327,-1.9831,-1.9671,-1.9328,-1.9075,-1.9075,-1.9396,-1.9562,-1.9483,-2.0135,-2.0478,-2.0442,-2.0967,-2.0892,-2.0366,-2.0522,-2.0016,-1.9022,-2.0121,-2.0674,-2.0859,-2.182,-2.2914,-2.4041,-2.4041,-2.442,-2.5107,-2.5107,-2.5192,-2.5312,-2.5312,-2.5312,-2.5312,0.0,0.0,0.0,0.0,0.0,0.0,0.0,0.0,0.0,0.0,0.0,0.0,-2.9602,-2.9602,-2.9602,-2.9602,-2.9602,0.0,0.0,0.0,0.0,-2.9413,-2.9414,0.0,-3.0345,-2.9693,-2.9693,-3.0409,-3.1148,-3.178,-3.237,-3.3016,-3.3227,-3.3143,-3.2019,-3.0776,-2.9465,-2.8211,-2.6934,-2.5874,-2.6334,-2.653,-2.6466,-2.6259,-2.6168,-2.6064,-2.601,-2.5945,-2.6008,-2.6557,-2.6815,-2.6815,-2.6815,-2.6815,-2.6748,0.0,0.0,0.0,-2.6478,-2.6921,-2.73,-2.6778,-2.7509,-2.8369,-2.8131,-2.8983,-2.9387,-2.8164,-2.866,-2.8596,-2.6005,-2.4981,-2.4182,-2.3112,-2.2338,-2.1807,-2.1807,-2.1807,-2.1807,-2.1807,-2.1787,-2.1424,-2.0545,-2.042,-2.0027,-1.9168,-1.9085,-1.9075,-1.9075,-1.9096,-1.9162,-1.9142,-1.9494,-1.9823,-2.0107,-2.0828,-2.1158,-2.1158,-2.0464,-2.0074,-2.0009,-2.0303,-2.0497,-2.0649,-2.1112,-2.1815,-2.2685,-2.2685,-2.3395,-2.4554,-2.4554,-2.4867,-2.5312,-2.5312,-2.5312,-2.5312,0.0,0.0,0.0,0.0,0.0,0.0,0.0,0.0,0.0,0.0,0.0,0.0,0.0,-2.9741,-2.9665,-2.9699,-2.9665,0.0,0.0,0.0,0.0,-2.9595,-2.9905,-2.9998,-2.994,-3.0048,-2.9984,-2.994,-3.0558,-3.0979,-3.1204,-3.185,-3.2356,-3.2707,-3.1864,-3.1226,-3.0679,-2.9039,-2.8044,-2.7538,-2.7327,-2.7083,-2.6686,-2.6466,-2.6466,-2.6544,-2.6388,-2.6622,-2.6985,-2.718,-2.7577,-2.7828,-2.7298,-2.7445,-2.7723,-2.7324,-2.755,-2.7788,-2.7063,-2.7128,-2.7182,-2.6791,-2.7262,-2.7837,-2.7702,-2.8599,-2.9197,-2.8321,-2.8744,-2.8774,-2.7411,-2.5935,-2.4698,-2.3807,-2.3054,-2.2767,-2.318,-2.3254,-2.3254,-2.3254,-2.305,-2.2595,-2.1682,-2.1091,-2.0392,-1.9609,-1.9241,-1.9075,-1.9075,-1.9075,-1.9075,-1.9075,-1.966,-2.0237,-2.0828,-2.1094,-2.1221,-2.1221,-2.0955,-2.056,-2.0096,-2.0366,-2.0549,-2.0613,-2.0971,-2.1793,-2.2852,-2.2852,-2.3482,-2.4518,-2.4518,-2.4843,-2.5312,-2.5312,-2.5312,-2.5312,0.0,0.0,0.0,0.0,0.0,0.0,0.0,0.0,-3.0777,-3.0372,0.0,0.0,0.0,0.0,-3.0015,-2.9837,-2.9651,-2.9477,-2.9261,-2.9512,-2.9588,-2.9338,-2.9996,-3.015,-2.9803,-3.0136,-3.015,-2.9803,-3.0348,-3.0658,-3.0594,-3.1242,-3.1763,-3.2075,-3.1443,-3.1288,-3.1373,-2.9701,-2.8962,-2.8812,-2.8428,-2.8026,-2.7669,-2.7327,-2.731,-2.7337,-2.7247,-2.7501,-2.794,-2.8141,-2.8532,-2.8776,-2.8182,-2.8274,-2.856,-2.8403,-2.843,-2.8505,-2.7958,-2.7786,-2.7554,-2.715,-2.7367,-2.7564,-2.717,-2.8061,-2.8765,-2.7968,-2.8369,-2.8594,-2.7941,-2.659,-2.5313,-2.4743,-2.3913,-2.3559,-2.412,-2.4108,-2.4108,-2.4108,-2.3821,-2.3427,-2.276,-2.1931,-2.1116,-2.0239,-1.9727,0.0,-1.9131,-1.9075,-1.9075,-1.9075,-1.9781,-2.0366,-2.0828,-2.1094,-2.1221,-2.1221,-2.1221,-2.0955,-2.0495,-2.07,-2.0892,-2.1008,-2.121,-2.1863,-2.2714,-2.2714,-2.3328,-2.4266,-2.4266,-2.4699,-2.5312,-2.5312,-2.5312,-2.5312,0.0,0.0,0.0,0.0,0.0,0.0,0.0,0.0,-3.0312,-3.0312,0.0,0.0,0.0,0.0,0.0,-2.9893,-2.9727,-2.9324,-2.8556,-2.9345,-2.9498,-2.8867,0.0,0.0,-3.014,-3.014,-3.014,-3.014,-3.0725,-3.0885,-3.0772,-3.1381,-3.1613,-3.1429,-3.0783,-3.0853,-3.1387,-3.0136,-2.9602,-2.9602,-2.9602,-2.9602,-2.9532,-2.8928,-2.8703,-2.8717,-2.8703,-2.8703,-2.8816,-2.9406,-2.9602,-2.9602,-2.9602,-2.9352,-2.9162,-2.9477,-2.9162,-2.8716,0.0,0.0,0.0,-2.7903,-2.7884,-2.7773,-2.6587,-2.7393,-2.8101,-2.6948,-2.7536,-2.8164,-2.7387,-2.6637,-2.5995,-2.5844,-2.4874,-2.4264,-2.448,-2.4337,-2.4181,-2.4181,-2.4181,-2.3996,-2.349,-2.2972,-2.2196,-2.1073,-2.0446,-1.9846,-1.9152,-1.9152,-1.9152,-1.9131,-1.9781,-2.0096,-2.0096,-2.0828,-2.1221,-2.1221,-2.1221,-2.1221,-2.1221,-2.1221,-2.1371,-2.1698,-2.1698,-2.1886,-2.2197,-2.2197,-2.2811,-2.3749,-2.3749,-2.4374,-2.5288,-2.5288,-2.53,-2.5312,0.0,0.0,0.0,0.0,0.0,-3.268,-3.1879,-3.1422,-3.1029,0.0,0.0,0.0,-3.1401,-3.1291,-3.1045,-3.0594,-3.0182,-2.9851,-2.9651,-2.9898,-2.9913,-2.9727,-3.0415,-3.0797,-3.0797,-3.0797,-3.0797,-3.0797,-3.0511,-3.0306,-3.0321,-3.0492,-3.0679,-3.0962,-3.0298,-3.0319,-3.074,-2.994,-2.9602,-2.9602,-2.9602,-2.9602,-2.9532,-2.8928,-2.897,-2.9293,-2.8858,-2.897,-2.9378,-2.9546,-2.9602,-2.9602,-2.9602,-2.954,-2.9477,-2.954,-2.9477,-2.9289,-2.9162,0.0,0.0,0.0,0.0,0.0,-2.7471,-2.7769,-2.7855,-2.6661,-2.6828,-2.6974,-2.6335,-2.5884,-2.5678,-2.582,-2.5524,-2.5545,-2.622,-2.622,-2.6139,-2.5988,-2.6,-2.5648,-2.4873,-2.397,-2.3097,0.0,-2.0886,-2.0194,-2.0342,-1.9902,-1.9676,-1.9791,-1.9977,-2.0366,-2.0892,-2.1094,-2.1221,-2.1221,-2.1221,-2.1221,-2.1221,-2.1273,-2.1474,-2.1698,-2.1812,-2.1999,-2.2197,-2.2197,-2.2582,-2.3195,-2.3195,-2.3833,-2.4735,-2.4735,-2.4975,-2.5312,0.0,0.0,0.0,0.0,0.0,-3.337,-3.2418,-3.1825,-3.147,0.0,0.0,0.0,-3.2309,-3.198,-3.1631,-3.144,-3.0625,-3.034,-3.0868,-3.0459,-3.0287,-3.0559,-3.0783,-3.1017,-3.1277,-3.1291,-3.1291,-3.1291,-3.0855,-3.0539,-3.0158,-3.0158,-3.0297,-3.0515,-2.9992,-2.9959,-3.0158,-2.9757,-2.9602,-2.9602,-2.9602,-2.9602,-2.956,-2.9209,-2.9293,-2.956,-2.9195,-2.9307,-2.9602,-2.9602,-2.9602,-2.9645,-2.9912,-2.9813,-2.9659,-2.9912,-2.9813,-2.954,-2.9352,-2.9289,-2.9289,-2.9099,0.0,0.0,-2.7735,-2.7696,-2.7551,-2.6188,-2.6339,-2.6519,-2.5876,-2.5811,-2.5798,-2.5824,-2.5767,-2.5924,-2.6294,-2.6716,-2.6764,-2.6212,-2.6286,-2.6223,-2.5667,-2.4821,-2.4074,-2.3585,-2.2391,-2.1551,-2.1384,-2.0403,-1.9975,-2.0424,-2.0216,-2.0366,-2.0967,-2.1094,-2.1221,-2.1221,-2.1221,-2.1221,-2.1221,-2.1273,-2.1486,-2.1698,-2.1749,-2.1937,-2.2197,-2.2197,-2.251,-2.3003,-2.3232,-2.3809,-2.4542,-2.4771,-2.5035,-2.5312,0.0,0.0,-3.5088,-3.5117,-3.4683,-3.4133,-3.333,-3.2318,-3.1806,0.0,-3.2571,-3.2861,-3.3499,-3.2862,-3.2421,-3.2421,-3.1137,-3.0859,-3.1976,-3.1113,-3.0773,-3.1291,-3.1,-3.1018,-3.1511,-3.1598,-3.1598,-3.1526,-3.1526,-3.113,-3.0312,-3.0398,-3.0337,-3.0111,-3.0031,-2.9879,-2.9808,-2.9651,-2.9602,-2.9602,-2.9602,-2.9602,-2.9602,-2.9602,-2.9602,-2.9602,-2.9602,-2.9602,-2.9602,-2.9602,-2.9602,-2.9701,-3.0249,-3.0052,-2.9715,-3.0263,-3.0038,-2.9602,-2.9602,-2.9602,-2.9602,-2.9602,-2.9352,0.0,-2.7825,-2.7687,-2.7385,-2.5975,-2.627,-2.662,-2.6011,-2.6184,-2.6246,-2.5949,-2.5887,-2.5749,-2.5547,-2.6309,-2.6447,-2.5422,-2.5794,-2.6114,-2.605,-2.5472,-2.5059,-2.4969,-2.4293,-2.3439,-2.2309,-2.087,-2.036,-2.0928,-2.0435,-2.0302,-2.0635,-2.1031,-2.1221,-2.1221,-2.1221,-2.1221,-2.1221,-2.1221,-2.136,-2.1698,-2.1698,-2.1886,-2.2197,-2.2197,-2.2474,-2.2943,-2.3472,-2.3989,-2.4506,-2.5023,-2.5264,-2.5312,0.0,-3.4716,-3.4336,-3.4478,-3.4399,-3.3933,-3.2747,-3.2437,-3.233,-3.2489,-3.2962,-3.3463,-3.3936,-3.3527,-3.3216,-3.3005,-3.2457,-3.2124,-3.237,-3.2202,-3.1884,-3.1478,-3.1917,-3.1946,-3.1526,-3.2048,-3.2063,-3.1526,-3.1526,-3.1192,-3.0522,-3.1029,-3.0939,-3.028,-3.0812,-3.0568,-2.9808,-2.9747,-2.9713,-2.9602,-2.9602,-2.9602,-2.9602,-2.9602,-2.9602,-2.9602,-2.9602,-2.9602,-2.9602,-2.9602,-2.9602,-2.9631,-2.9757,-2.9701,-2.9631,-2.9757,-2.9701,-2.9602,-2.9602,-2.9602,-2.9602,-2.9602,-2.954,0.0,-2.9232,-2.8962,-2.8573,-2.7831,-2.7592,-2.7352,-2.6783,-2.6749,-2.6749,-2.6688,-2.643,-2.6122,-2.5749,-2.5894,-2.5882,-2.551,-2.6,-2.6103,-2.5512,-2.5794,-2.5793,-2.5281,-2.4959,-2.4066,-2.2503,-2.2116,-2.1699,-2.1319,-2.0763,-2.07,-2.1094,-2.1158,-2.1221,-2.1221,-2.1221,-2.1221,-2.1221,-2.1221,-2.136,-2.1698,-2.1698,-2.1886,-2.2197,-2.2197,-2.2258,-2.2402,-2.2931,-2.346,-2.3977,-2.4494,-2.4939,-2.5382,-3.5525,-3.5137,-3.4872,-3.5652,-3.5538,-3.4949,-3.3979,-3.3607,-3.3468,-3.3402,-3.3725,-3.4066,-3.4235,-3.3781,-3.3587,-3.3772,-3.2695,-3.2425,-3.3398,-3.2556,-3.2164,-3.2483,-3.2193,-3.2019,-3.2019,-3.2019,-3.1859,-3.1526,-3.1526,-3.1192,-3.0582,-3.0901,-3.0812,-3.0462,-3.0672,-3.0506,-3.0068,-2.987,-2.9761,-2.9713,-2.9602,-2.9602,-2.9602,-2.9602,-2.9602,-2.9602,-2.9602,-2.9602,-2.9602,-2.9602,-2.9602,-2.9659,-2.9968,-2.9855,-2.9673,-2.9968,-2.9855,-2.9602,-2.9602,-2.9602,-2.9602,-2.9602,-2.9602,0.0,0.0,-2.903,-2.8566,-2.7502,-2.7571,-2.7478,-2.659,-2.6772,-2.7051,-2.6944,-2.6431,-2.6156,-2.6342,-2.6011,-2.554,-2.4905,-2.5348,-2.5595,-2.5172,-2.5355,-2.5396,-2.5307,-2.5128,-2.4565,-2.3623,-2.2833,-2.2253,-2.2026,-2.1395,-2.1088,-2.1233,-2.1221,-2.1221,-2.1221,-2.1221,-2.1221,-2.1221,-2.1285,-2.1423,-2.1698,-2.1761,-2.1937,-2.2197,-2.2197,-2.2197,-2.2246,-2.2775,-2.3304,-2.3833,-2.4338,-2.4855,-2.5346,-3.6044,-3.5704,-3.5639,-3.7064,-3.6646,-3.5903,-3.5394,-3.4647,-3.4117,-3.3787,-3.4046,-3.424,-3.424,-3.3775,-3.3717,-3.4356,-3.2759,-3.2425,-3.4124,-3.2643,-3.2121,-3.305,-3.2077,-3.1714,-3.2135,-3.1729,-3.1453,-3.1337,-3.1453,-3.1192,-3.0568,-3.0698,-3.0684,-3.0582,-3.0563,-3.0427,-3.0251,-3.0007,-2.9884,-2.9822,-2.9727,-2.9665,-2.9602,-2.9602,-2.9602,-2.9602,-2.9602,-2.9602,-2.9602,-2.9602,-2.9602,-2.9701,-3.0193,-3.001,-2.9715,-3.0193,-2.9996,-2.9602,-2.9602,-2.9602,-2.9602,-2.9602,-2.9602,-2.9476,0.0,0.0,0.0,-2.7259,-2.7645,-2.7855,-2.6795,-2.7216,-2.764,-2.7303,-2.6745,-2.6481,-2.6936,-2.6444,-2.5669,-2.4734,-2.4872,-2.5082,-2.5082,-2.4957,-2.5019,-2.5395,-2.5325,-2.5227,-2.4902,-2.3506,-2.2753,-2.3016,-2.2025,-2.1447,-2.1319,-2.1279,-2.1221,-2.1221,-2.1221,-2.1221,-2.1221,-2.1336,-2.1537,-2.1698,-2.1812,-2.1999,-2.2197,-2.2197,-2.2197,-2.2246,-2.2775,-2.3244,-2.3676,-2.4194,-2.4638,-2.5021,-3.6141,-3.5704,-3.5639,-3.7064,-3.6201,-3.5326,-3.5308,-3.4265,-3.312,-3.1962,-3.2867,-3.3572,-3.3572,-3.3514,-3.3717,-3.4356,-3.318,-3.273,-3.3529,-3.2846,-3.2208,-3.1758,-3.1598,-3.1293,-3.08,-3.1279,-3.125,-3.0684,-3.125,-3.1192,-3.0582,-3.1148,-3.1105,-3.0597,-3.1163,-3.0968,-3.0312,-3.0251,-3.0144,-3.005,-3.005,-2.9865,-2.9602,-2.9602,-2.9602,-2.9602,-2.9602,-2.9602,-2.9602,-2.9602,-2.9602,-2.9617,-2.9687,-2.9673,-2.9617,-2.9687,-2.9659,-2.9602,-2.9602,-2.9602,-2.9602,-2.9602,-2.9602,-2.9588,-2.9518,0.0,-2.9462,-2.926,0.0,-2.9378,-2.9184,0.0,0.0,-2.8615,-2.8191,-2.7787,-2.7317,-2.6977,-2.6708,-2.6573,-2.5842,-2.5369,-2.5428,-2.5603,-2.5696,-2.5749,-2.6219,-2.6258,-2.5706,-2.4575,-2.405,-2.4091,-2.2622,-2.1827,-2.1847,-2.1388,-2.1221,-2.1221,-2.1221,-2.1221,-2.1221,-2.1336,-2.1537,-2.1698,-2.1812,-2.1999,-2.2197,-2.2197,-2.2197,-2.2246,-2.2775,-2.3015,-2.3135,-2.3664,-2.4014,-2.4183,-3.6157,-3.606,-3.6141,-3.7145,-3.6497,-3.5732,-3.5305,-3.481,-3.4182,-3.3261,-3.3642,-3.3982,-3.3997,-3.3703,-3.3717,-3.4356,-3.3253,-3.2788,-3.3493,-3.2513,-3.215,-3.2629,-3.1917,-3.1584,-3.17,-3.1221,-3.0843,-3.0568,-3.0843,-3.0843,-3.0582,-3.0843,-3.0829,-3.0582,-3.0843,-3.0814,-3.0447,-3.0326,-3.0266,-3.0219,-3.0111,-2.9988,-2.9865,-2.9775,-2.9651,-2.9602,-2.9602,-2.9602,-2.9602,-2.9602,-2.9602,-2.9602,-2.9602,-2.9602,-2.9602,-2.9602,-2.9602,-2.9602,-2.9602,-2.9651,-2.9713,-2.9602,-2.9651,-2.9713,-2.9602,-2.9602,-2.9504,-2.9153,0.0,0.0,0.0,0.0,0.0,0.0,-2.8792,-2.8521,-2.8619,-2.7913,-2.7304,-2.6944,-2.6532,0.0,-2.5514,-2.5656,-2.555,-2.4883,-2.5667,-2.5909,-2.5394,-2.4908,-2.4563,-2.4324,-2.3635,-2.2849,-2.1939,-2.1709,-2.1456,-2.1221,-2.1221,-2.1221,-2.1336,-2.1486,-2.1675,-2.1812,-2.1999,-2.2123,-2.2197,-2.2197,-2.2197,-2.2209,-2.2438,-2.2714,-2.3067,-2.3349,-2.368,-2.3964,-3.5849,-3.5995,-3.627,-3.7161,-3.6416,-3.5457,-3.4736,-3.4861,-3.4745,-3.3875,-3.3984,-3.4104,-3.405,-3.3829,-3.3901,-3.4356,-3.3412,-3.2904,-3.3195,-3.215,-3.1859,-3.2643,-3.1758,-3.1482,-3.1975,-3.1061,-3.0568,-3.0568,-3.0568,-3.0568,-3.0568,-3.0568,-3.0568,-3.0568,-3.0568,-3.0568,-3.0568,-3.0447,-3.0387,-3.0387,-3.028,-3.0233,-3.0097,-2.9884,-2.9699,-2.9602,-2.9602,-2.9602,-2.9602,-2.9602,-2.9602,0.0,-2.9651,-2.9665,-2.9741,-2.9741,-2.9741,-2.9741,-2.9665,-2.9775,-2.9837,-2.9665,-2.9713,-2.9822,-2.9713,-2.9727,-2.9614,-2.9087,-2.9417,0.0,0.0,0.0,-2.9608,-2.9515,0.0,-2.9102,-2.9445,-2.8852,-2.8208,-2.7726,-2.7393,-2.687,0.0,-2.614,-2.581,-2.4662,-2.5432,-2.5683,-2.5152,-2.4899,-2.4641,-2.4518,-2.4198,-2.343,-2.2145,-2.1996,-2.1663,-2.1221,-2.1221,-2.1336,-2.1388,-2.1675,-2.1812,-2.1925,-2.2123,-2.2197,-2.2197,-2.2197,-2.2197,-2.2197,-2.2197,-2.2488,-2.2826,-2.2941,-2.3311,-2.3643,-3.5072,-3.5218,-3.5655,-3.708,-3.5574,-3.3982,-3.3351,-3.3846,-3.3866,-3.2662,-3.2957,-3.3371,-3.3395,-3.3898,-3.4312,-3.4423,-3.3819,-3.318,-3.2585,-3.1903,-3.1264,-3.0698,-3.0626,-3.0611,-3.064,-3.0597,-3.0568,-3.0568,-3.0568,-3.0568,-3.0568,-3.0568,-3.0568,-3.0568,-3.0568,-3.0568,-3.0568,-3.0568,-3.0568,-3.0568,-3.0582,-3.0447,-3.0266,-2.9931,-2.9699,-2.9602,-2.9602,-2.9602,0.0,-2.9602,-2.9713,0.0,0.0,0.0,-3.005,-3.005,-3.005,-3.0036,-2.9822,-2.996,-2.9988,-2.9665,-2.9865,-3.0036,-2.9822,-2.996,-3.0036,-2.9794,-2.9946,-3.0036,-2.9794,-2.9794,-2.97,-2.9311,-2.9547,0.0,0.0,-2.9697,-2.987,-2.9546,-2.8677,-2.7837,-2.6971,-2.7298,-2.7135,-2.5955,-2.6143,-2.5993,-2.5435,-2.4583,-2.4418,-2.4982,-2.399,-2.319,-2.2662,-2.2168,-2.1663,-2.1221,-2.1336,-2.1388,-2.1388,-2.1726,-2.1925,-2.1925,-2.2123,-2.2197,-2.2197,-2.2197,-2.2197,-2.2197,-2.2197,-2.2321,-2.2445,-2.2445,-2.2641,-2.2958,-3.4424,-3.4473,-3.4764,-3.5736,-3.5299,-3.4762,-3.4575,-3.4748,-3.5273,-3.6222,-3.6184,-3.646,-3.7359,-3.723,-3.714,-3.7137,-3.6152,-3.541,-3.5182,-3.3709,-3.2894,-3.3087,-3.2299,-3.1859,-3.1859,-3.1424,-3.0988,-3.0568,-3.0568,-3.0568,-3.0568,-3.0568,-3.0568,-3.0568,-3.0568,-3.0568,-3.0568,-3.0568,-3.0568,-3.0568,-3.0568,-3.0507,-3.0266,-3.0097,-2.9974,-2.9927,-2.9927,-2.9927,0.0,-2.9927,-2.9974,-2.9974,-2.9974,-3.005,-3.0111,-3.0111,-3.0111,0.0,0.0,0.0,-3.0144,-2.9988,0.0,-3.0205,-3.0036,-3.0036,-3.0111,-3.0036,-3.0036,-3.0111,-3.0036,-2.9974,-2.9964,-2.984,-2.9907,-2.9964,0.0,-2.9983,-2.9893,-2.933,-2.8652,-2.8063,-2.7823,-2.7373,-2.6742,-2.5955,-2.5959,-2.5867,-2.5442,-2.5471,-2.5396,-2.5038,-2.5063,-2.4281,-2.2696,-2.2513,-2.2062,-2.1336,-2.1388,-2.1526,-2.1726,-2.1862,-2.1987,-2.2123,-2.2185,-2.2197,-2.2197,-2.2197,-2.2197,-2.2197,-2.2197,-2.2371,-2.2616,-2.2616,-2.2739,-2.2958,-3.425,-3.4201,-3.4378,-3.5056,-3.5606,-3.5768,-3.5266,-3.5833,-3.6724,-3.7873,-3.7914,-3.8141,-3.9043,-3.8968,-3.8774,-3.8546,-3.7895,-3.7169,-3.6196,-3.5155,-3.4408,-3.41,-3.354,-3.3104,-3.282,-3.2429,-3.1792,-3.0911,-3.0921,-3.08,-3.0628,-3.0807,-3.0911,-3.0911,-3.0911,-3.0911,-3.0925,-3.0687,-3.0568,-3.0568,-3.0568,-3.0507,-3.0387,-3.028,-3.0172,-3.0111,0.0,-3.0111,-3.0111,-3.0111,-3.0111,-3.0158,-3.0158,-3.0219,-3.0294,-3.0294,-3.0294,-3.028,-3.0158,-3.028,0.0,-3.0172,-3.028,0.0,-3.0219,-3.0233,-3.0294,-3.0158,-3.0233,-3.0222,-2.9872,-3.0015,-3.0086,-2.9932,-3.0076,-3.0233,0.0,-3.0233,-3.0001,-2.9571,-2.9092,-2.8689,-2.8479,-2.8055,-2.7349,-2.6318,-2.6311,-2.614,-2.5441,0.0,-2.5866,-2.5325,-2.5661,-2.5046,-2.3258,-2.3001,-2.2434,-2.1537,-2.1537,-2.1663,-2.1925,-2.1987,-2.2061,-2.2197,-2.2197,-2.2197,-2.2197,-2.2197,-2.2197,-2.2197,-2.2247,-2.2432,-2.269,-2.269,-2.2923,-2.3354,-3.4497,-3.4431,-3.4577,-3.5107,-3.6287,-3.674,-3.5477,-3.6999,-3.8116,-3.7598,-3.8132,-3.8599,-3.8708,-3.928,-3.9377,-3.8722,-3.9214,-3.8473,-3.5903,-3.6228,-3.5707,-3.3773,-3.4239,-3.4268,-3.3517,-3.3546,-3.2871,-3.1582,-3.1542,-3.1285,-3.0687,-3.1263,-3.1537,-3.1537,-3.1537,-3.1552,-3.148,-3.0866,-3.0642,-3.0568,-3.0568,-3.0568,-3.0568,-3.0568,-3.0401,-3.0111,-3.0111,-3.0111,-3.0111,-3.0111,-3.0219,-3.0312,-3.0312,-3.0447,-3.0568,-3.0568,-3.0568,-3.0568,-3.0387,-3.0447,-3.0507,-3.0233,0.0,0.0,0.0,0.0,-3.0568,-3.0326,-3.0447,-3.0393,-2.9593,-2.9923,-3.0185,-2.9711,-2.9997,-3.0372,-3.0524,-3.0418,-3.0312,-3.0283,-2.995,-2.9539,-2.8987,-2.9318,-2.8774,-2.6989,-2.7109,-2.6726,-2.5564,-2.5807,-2.5906,-2.5844,-2.5829,-2.5271,-2.4279,-2.349,-2.2674,-2.1698,-2.1812,-2.1937,-2.1937,-2.2123,-2.2197,-2.2197,-2.2197,-2.2197,-2.2197,-2.2197,-2.2197,-2.2197,-2.2359,-2.2543,-2.2678,-2.2739,-2.3257,-2.3879,-3.4611,-3.4939,-3.5315,-3.546,-3.5194,-3.5347,-3.6578,-3.6896,-3.7806,-4.0215,-4.0761,-4.1286,-4.2283,-4.2494,-4.2109,-4.0924,-4.0446,-3.9729,-3.8571,-3.7626,-3.6946,-3.6406,-3.6059,-3.5613,-3.4919,-3.445,-3.375,-3.2936,-3.2403,-3.2103,-3.1936,-3.2104,-3.216,-3.216,-3.216,-3.1936,-3.148,-3.1306,-3.1029,-3.0568,-3.0568,-3.0568,-3.0568,0.0,-3.0582,-3.0462,-3.0462,-3.0462,-3.0462,-3.0462,-3.0507,-3.0507,-3.0507,-3.0568,-3.0568,-3.0568,-3.0568,-3.0568,-3.0507,-3.0568,-3.0568,-3.0522,-3.0522,-3.0568,0.0,0.0,0.0,0.0,0.0,0.0,0.0,-3.0406,-3.0464,-3.035,-3.0466,-3.0348,-2.9929,-3.0218,-3.0334,-2.9856,-2.9621,-2.9557,-2.9765,-2.8976,-2.8191,-2.7711,-2.6793,-2.6022,-2.5508,0.0,0.0,-2.5192,-2.5608,-2.5115,-2.3525,-2.2881,-2.2374,-2.1874,-2.1874,-2.1999,-2.2123,-2.2197,-2.2197,-2.2197,-2.2197,-2.2197,-2.2197,-2.2197,-2.2197,-2.2197,-2.2359,-2.2604,-2.2848,-2.2969,-2.3117,-2.3339,-3.5268,-3.5712,-3.627,-3.6495,-3.6097,-3.6238,-3.7698,-3.7932,-3.873,-4.094,-4.1569,-4.1943,-4.2385,-4.2694,-4.2496,-4.1314,-4.0843,-4.013,-3.914,-3.859,-3.8089,-3.7519,-3.7385,-3.6911,-3.59,-3.5561,-3.4701,-3.3294,-3.2996,-3.2715,-3.2398,-3.2641,-3.2749,-3.2749,-3.2749,-3.2571,-3.2226,-3.1694,-3.1146,-3.0568,-3.0568,-3.0568,0.0,-3.0568,-3.0568,-3.0568,-3.0568,-3.0568,-3.0568,-3.0568,-3.0568,-3.0568,-3.0568,-3.0568,-3.0568,-3.0568,-3.0568,-3.0568,-3.0568,-3.0568,-3.0568,-3.0568,-3.0568,-3.0568,-3.0568,-3.0568,-3.0568,0.0,-3.0568,-3.0495,0.0,0.0,-3.0568,-3.0568,-3.0568,-3.0451,-3.0089,-3.0103,-3.0132,-3.0045,-2.9725,-2.9593,-2.9834,-2.8738,-2.7981,-2.8024,-2.7216,-2.654,0.0,0.0,0.0,-2.6219,-2.6735,-2.6181,-2.4369,-2.3737,-2.2959,-2.2061,-2.2061,-2.2061,-2.2197,-2.2197,-2.2197,-2.2197,-2.2197,-2.2197,-2.2197,-2.2197,-2.2247,-2.2309,-2.2543,-2.2787,-2.3017,-2.3078,-2.3301,-2.3477,-3.6158,-3.6637,-3.7244,-3.7781,-3.799,-3.8351,-3.904,-3.96,-4.0172,-4.0906,-4.1591,-4.1738,-4.0945,-4.1537,-4.1629,-4.0652,-4.0587,-4.0043,-3.8607,-3.9065,-3.8892,-3.7812,-3.8303,-3.7981,-3.6698,-3.6754,-3.5719,-3.3498,-3.3654,-3.3333,-3.2656,-3.3108,-3.3303,-3.3303,-3.3303,-3.3251,-3.313,-3.2074,-3.1321,-3.0807,-3.0747,-3.0687,-3.0687,-3.0628,-3.0568,-3.0568,-3.0568,-3.0568,-3.0568,-3.0568,-3.0568,-3.0568,-3.0568,-3.0568,-3.0568,-3.0568,-3.0568,-3.0568,-3.0568,-3.0568,-3.0568,-3.0568,-3.0568,-3.0568,-3.0568,-3.0568,-3.0568,-3.0568,-3.0568,-3.0408,0.0,0.0,-3.048,-3.0568,-3.051,-3.0451,-3.0451,-2.9972,-2.9798,-3.0263,-2.9842,0.0,-2.9493,-2.8684,-2.8138,-2.8082,-2.7937,-2.7553,0.0,0.0,0.0,-2.7673,-2.7989,-2.748,-2.6015,0.0,-2.384,-2.2406,-2.2283,-2.2197,-2.2197,-2.2197,-2.2197,-2.2197,-2.2197,-2.2197,-2.2197,-2.2185,-2.2309,-2.2482,-2.2787,-2.2969,-2.3078,-2.3078,-2.3452,-2.3816,-3.7036,-3.7448,-3.8011,-3.8127,-3.9152,-4.0178,-4.0816,-4.1007,-4.1198,-4.1802,-4.2627,-4.2775,-4.1841,-4.1933,-4.1491,-4.014,-4.0026,-3.9658,-3.8811,-3.889,-3.8825,-3.8623,-3.8694,-3.8357,-3.749,-3.7567,-3.6759,-3.501,-3.5037,-3.4626,-3.3781,-3.3882,-3.3933,-3.3933,-3.3933,-3.3646,-3.3145,-3.2532,-3.216,-3.2048,-3.1537,-3.1364,-3.1321,-3.0807,-3.0568,-3.0568,-3.0568,-3.0568,-3.0568,-3.0568,-3.0568,-3.0568,-3.0568,-3.0568,-3.0568,-3.0568,-3.0568,-3.0568,-3.0568,-3.0568,-3.0568,-3.0568,-3.0568,-3.0568,-3.0568,-3.0568,-3.0568,-3.0568,-3.0568,-3.0539,-3.0437,0.0,0.0,-3.0495,-3.0132,-2.9798,-2.9798,-2.9697,-2.9479,-2.9058,-2.8913,-2.884,-2.884,-2.9045,-2.8943,-2.8426,-2.814,-2.7697,0.0,0.0,0.0,0.0,-2.653,0.0,0.0,0.0,-2.3502,-2.3642,-2.2689,-2.2197,-2.2197,-2.2197,-2.2197,-2.2197,-2.2197,-2.2197,-2.2197,-2.2309,-2.2543,-2.2787,-2.2848,-2.2969,-2.3078,-2.3078,-2.3201,-2.3215,-3.7748,-3.8261,-3.8891,-3.9272,-4.0216,-4.116,-4.1872,-4.1947,-4.1964,-4.2193,-4.2268,-4.1955,-4.1116,-4.1091,-4.072,-3.9539,-3.944,-3.9237,-3.8821,-3.8805,-3.886,-3.8914,-3.8569,-3.8044,-3.7305,-3.6979,-3.622,-3.4821,-3.4921,-3.4642,-3.4101,-3.4101,-3.4101,-3.4101,-3.4101,-3.3748,-3.3198,-3.2933,0.0,-3.2382,-3.2048,-3.1992,-3.1879,-3.1321,-3.1087,-3.1029,-3.0687,-3.0568,-3.0568,-3.0568,-3.0568,-3.0568,-3.0568,-3.0568,-3.0568,-3.0568,-3.0568,-3.0568,-3.0568,-3.0568,-3.0568,-3.0568,-3.0568,-3.0568,-3.0568,-3.0568,-3.0568,-3.0568,-3.0568,-3.0568,-3.0568,-3.0321,0.0,0.0,0.0,-3.0118,-3.0236,-2.961,-2.9202,-2.9289,-2.865,-2.8187,-2.8187,-2.8697,-2.8886,-2.8469,-2.8197,-2.7812,-2.7074,0.0,0.0,0.0,0.0,0.0,0.0,0.0,0.0,-2.3538,-2.2653,-2.2197,-2.2197,-2.2197,-2.2197,-2.2197,-2.2197,-2.2197,-2.2185,-2.2432,-2.2665,-2.2909,-2.2969,-2.3017,-2.3078,-2.3078,-2.3305,-2.3603,-3.8642,-3.9123,-3.9736,-4.0481,-4.1177,-4.1789,-4.222,-4.2419,-4.246,-4.2343,-4.17,-4.0974,-4.0265,-4.0326,-4.0029,-3.9143,-3.9077,-3.9023,-3.8914,-3.8914,-3.8903,-3.8809,-3.8335,-3.7626,-3.6735,-3.6406,-3.5646,-3.4399,-3.4661,-3.4546,-3.4151,-3.4151,-3.407,-3.389,-3.4036,0.0,0.0,0.0,-3.3161,-3.2765,-3.2602,-3.2586,-3.2492,-3.1936,-3.1595,-3.1437,-3.097,-3.0687,-3.0568,-3.0568,-3.0568,-3.0568,-3.0568,-3.0568,-3.0568,-3.0568,-3.0568,-3.0568,-3.0568,-3.0568,-3.0568,-3.0568,-3.0568,-3.0568,-3.0568,-3.0568,-3.0568,-3.0568,-3.0568,-3.0568,-3.0568,-3.0466,0.0,0.0,0.0,-3.0454,-3.0382,-2.9551,-2.9041,-2.9256,-2.8618,-2.7969,-2.7563,-2.8347,-2.8711,-2.8253,-2.8254,-2.7983,-2.7371,-2.8223,-2.8477,0.0,0.0,-2.7502,-2.7234,0.0,-2.4557,-2.3671,-2.2812,-2.242,-2.242,-2.2247,-2.2197,-2.2197,-2.2197,-2.2259,-2.2321,-2.2726,-2.2969,-2.2969,-2.3198,-2.3258,-2.3078,-2.3078,-2.3543,-2.4105,-4.0034,-4.0233,-4.0498,-4.1193,-4.1922,-4.2204,-4.1607,-4.2088,-4.2518,-4.246,-4.1815,-4.1143,-4.0464,-4.0382,-4.0083,-3.9338,-3.9272,-3.9272,-3.9272,-3.9272,-3.8974,-3.8275,-3.8193,-3.7498,-3.6125,-3.6688,-3.6208,-3.4643,-3.5366,-3.5202,-3.43,-3.43,-3.3876,-3.321,0.0,0.0,0.0,-3.3775,-3.4,-3.3882,-3.3371,-3.3145,-3.3093,-3.2532,-3.1992,-3.148,-3.1437,-3.1087,-3.0568,-3.0568,-3.0568,-3.0568,-3.0568,-3.0568,-3.0568,-3.0568,-3.0568,-3.0568,-3.0568,-3.0568,-3.0568,-3.0568,-3.0568,-3.0568,-3.0568,-3.0568,-3.0568,-3.0568,-3.0568,-3.0568,-3.0568,-3.0103,-2.99,0.0,0.0,-2.9753,-2.9168,-2.949,-2.9154,-2.7471,-2.8533,-2.8768,-2.7041,-2.8492,-2.9001,-2.7842,-2.8179,-2.8354,-2.8353,-2.8283,-2.8167,-2.8009,0.0,-2.7626,-2.8531,-2.6161,-2.5189,-2.5635,-2.3855,-2.3027,-2.2967,-2.2482,-2.2197,-2.2197,-2.2197,-2.2371,-2.2739,-2.3412,-2.3471,-2.3125,-2.3767,-2.3662,-2.3078,-2.3078,-2.3543,-2.4097,-4.0315,-4.0382,-4.0597,-4.1293,-4.1309,-4.1276,-4.1392,-4.1309,-4.1243,-4.1243,-4.0978,-4.0696,-4.0415,-3.9984,-3.9587,-3.9305,-3.9272,-3.9272,-3.9272,-3.8874,-3.851,-3.8228,-3.7367,-3.6605,-3.6009,-3.586,-3.543,-3.4691,-3.5004,-3.489,-3.4382,-3.3958,-3.3598,0.0,0.0,-3.4203,-3.3958,-3.4235,-3.4349,-3.43,-3.3968,-3.385,-3.3799,-3.3108,-3.2718,-3.2501,-3.216,-3.1879,-3.1652,-3.1652,-3.1422,-3.1146,-3.1146,-3.1146,-3.1146,-3.1146,-3.0851,-3.0568,-3.0568,-3.0568,-3.0568,-3.0568,-3.0568,-3.0568,-3.0568,-3.0568,-3.0568,-3.0568,-3.0642,-3.0702,-3.0628,-3.0438,-3.0396,0.0,0.0,0.0,-2.9648,-2.9148,-2.8532,-2.7806,-2.791,-2.7729,-2.6852,-2.7824,-2.8434,-2.8303,-2.8827,-2.8785,-2.7907,-2.8238,0.0,-2.8111,0.0,-2.72,-2.8408,-2.6214,-2.5256,-2.5474,-2.4242,-2.361,-2.361,-2.3386,-2.3352,-2.3471,-2.3564,-2.3669,-2.3904,-2.4239,-2.431,-2.4239,-2.4066,-2.4146,-2.4168,-2.3769,-2.4359,-2.5205,-4.0332,-4.0382,-4.0597,-4.1293,-4.1011,-4.0779,-4.1061,-4.0696,-4.0299,-4.0083,-4.005,-4.005,-4.005,-3.9587,-3.9272,-3.9272,-3.9272,-3.9272,-3.9272,-3.8609,-3.8112,-3.7897,-3.6671,-3.5909,-3.5678,-3.5164,-3.4851,-3.4739,-3.4739,-3.4691,0.0,0.0,0.0,0.0,-3.4169,-3.4382,-3.4186,-3.4415,-3.4497,-3.4497,-3.4399,-3.4349,-3.4234,-3.3748,-3.3407,-3.3198,-3.2841,-3.2586,-3.2422,-3.2422,-3.2241,-3.2018,-3.1595,-3.148,-3.148,-3.1321,-3.0911,-3.0568,-3.0568,-3.0568,-3.0568,-3.0568,-3.0568,-3.0568,-3.0568,-3.0568,-3.0628,-3.0642,-3.0702,-3.0702,-3.0702,-3.0762,-3.0762,-3.0702,0.0,0.0,-2.9849,-2.9064,-2.8399,-2.8275,-2.7988,-2.7637,-2.7205,-2.781,-2.8318,-2.839,-2.8985,-2.89,-2.7891,0.0,0.0,0.0,0.0,0.0,0.0,-2.661,-2.5703,-2.5522,-2.4768,-2.4425,-2.4425,-2.4253,-2.4195,-2.4394,-2.4469,-2.4627,-2.4741,-2.4993,-2.505,-2.4966,-2.4668,-2.4764,-2.4939,-2.4244,-2.4722,-2.5562,-4.0233,-4.0382,-4.0597,-4.1293,-4.1409,-4.1177,-4.0498,-4.0382,-4.0117,-3.9388,-3.9288,-3.9288,-3.9288,-3.9342,-3.9272,-3.9272,-3.9272,-3.9272,-3.9272,-3.8609,-3.788,-3.7152,-3.6406,-3.5661,-3.4932,-3.4899,-3.4899,-3.4899,-3.4899,0.0,-3.4691,0.0,-3.4104,-3.3432,-3.4169,-3.4104,-3.3465,-3.4186,-3.4497,-3.4497,-3.4497,-3.4399,-3.43,-3.43,-3.3901,-3.3391,-3.3391,-3.3008,-3.247,-3.247,-3.2902,-3.3182,-3.1921,-3.148,-3.1364,-3.0807,-3.0628,-3.0568,-3.0568,-3.0568,-3.0568,-3.0568,-3.0568,-3.0568,-3.0568,-3.0568,-3.0642,-3.0762,-3.0702,-3.0642,-3.0762,-3.0821,-3.0821,-3.0821,0.0,0.0,0.0,-2.9277,-2.908,-2.8441,-2.9204,-2.93,-2.8125,-2.8926,-2.9087,-2.7839,0.0,0.0,0.0,0.0,0.0,-2.8354,-2.8425,0.0,-2.8197,-2.7569,-2.6954,-2.6286,-2.5687,-2.5398,-2.5342,-2.4754,-2.4526,-2.4526,-2.4627,-2.4684,-2.4741,-2.5536,-2.5536,-2.5077,-2.5646,-2.5536,-2.4939,-2.4244,-2.4393,-2.4755,-4.0332,-4.0382,-4.0448,-4.0663,-4.0282,-3.9885,-3.9653,-3.962,-3.9537,-3.9305,-3.9272,-3.9272,-3.9272,-3.9272,-3.9272,-3.9272,-3.9272,-3.9073,0.0,-3.7864,-3.7119,-3.639,-3.5644,-3.5131,-3.4899,-3.4899,-3.4899,-3.4899,0.0,0.0,0.0,-3.4556,-3.4407,-3.3713,-3.4457,-3.4624,-3.4457,-3.464,-3.4787,-3.4739,-3.4691,-3.4594,-3.4546,-3.4448,-3.4333,-3.4168,-3.4168,-3.4002,-3.3834,-3.3834,-3.4002,-3.4002,-3.3077,-3.281,-3.2648,-3.2033,-3.1823,-3.1709,-3.1321,-3.1204,-3.1146,-3.0821,-3.0308,-2.9929,-3.0105,-2.9783,-2.971,-3.0778,-3.0646,-3.0527,-3.0925,-3.1058,-3.1117,-3.1014,-3.0201,0.0,-2.9307,-2.8613,-2.8025,-2.7728,-2.7965,-2.8001,0.0,-2.8042,0.0,0.0,0.0,0.0,0.0,0.0,0.0,0.0,-2.8624,0.0,-2.8553,-2.7821,-2.7118,-2.6418,-2.615,-2.5988,-2.5988,-2.5906,-2.5877,-2.5877,-2.6068,-2.6136,-2.6136,-2.6379,-2.6394,-2.6187,-2.55,-2.5363,-2.5422,-2.4419,-2.4503,-2.4979,-3.9967,-3.9967,-3.9967,-3.9967,-3.964,-3.9272,-3.9272,-3.9272,-3.9272,-3.9272,-3.9272,-3.9272,-3.9272,-3.9272,0.0,-3.9272,-3.9272,-3.9073,-3.8642,-3.7665,-3.6903,-3.6439,-3.5446,-3.4899,-3.4899,-3.4899,0.0,-3.4899,-3.4899,-3.4651,-3.422,-3.4667,-3.4651,-3.422,-3.4684,-3.4899,-3.4899,-3.4899,-3.4899,-3.4899,-3.4804,-3.4739,-3.4691,-3.4594,-3.4594,-3.4594,-3.4594,-3.4594,-3.4594,-3.4594,-3.4594,-3.4431,-3.3716,-3.3665,-3.3716,-3.2734,-3.2437,-3.2272,-3.1709,-3.1595,-3.1362,-3.0558,-3.0221,-3.0032,-2.9914,-2.9415,-2.9251,-3.0231,-3.0332,-3.0332,-3.0746,-3.1071,-3.1292,-3.119,-3.0208,-2.9401,-2.9401,-2.836,-2.7664,-2.7846,0.0,0.0,0.0,-2.7851,-2.7861,0.0,0.0,0.0,0.0,0.0,0.0,-2.8681,-2.8913,0.0,-2.8681,-2.8219,-2.7527,-2.6592,-2.6553,-2.65,-2.65,-2.6592,-2.663,-2.6645,-2.6727,-2.6779,-2.6779,-2.6779,-2.6634,-2.6329,-2.5581,-2.5558,-2.5762,-2.4872,-2.482,-2.5103,-3.9272,-3.9272,-3.9272,0.0,-3.9272,0.0,-3.9272,-3.9272,-3.9272,-3.9272,-3.9272,-3.9272,-3.9272,-3.9272,-3.9272,-3.9272,0.0,0.0,0.0,-3.7864,-3.7052,-3.6953,-3.5628,-3.4899,-3.4899,-3.4899,-3.4899,-3.4899,-3.4849,-3.4849,-3.4899,-3.4899,-3.4899,-3.4899,-3.4899,-3.4899,-3.4899,-3.4899,-3.4899,-3.4899,-3.4899,-3.4851,-3.4691,-3.4691,-3.4691,-3.4691,-3.4691,-3.4691,-3.4691,-3.4691,-3.4658,-3.4512,-3.3838,-3.4071,-3.4366,-3.2939,-3.2516,-3.2382,-3.1921,-3.1762,-3.1426,-3.0147,-3.0353,-3.0617,-2.9941,-2.9407,-2.9104,-2.9302,-2.9681,-3.0054,-3.0297,-3.0802,-3.1261,-3.1261,-3.0347,-2.9564,-2.952,-2.8397,-2.7829,0.0,0.0,0.0,0.0,-2.8246,-2.7859,0.0,0.0,0.0,0.0,0.0,-2.8724,-2.8681,-2.9334,-2.9363,-2.8695,-2.8681,-2.8042,-2.6779,-2.6779,-2.6779,-2.6779,-2.6779,-2.6779,-2.6779,-2.6736,-2.6721,-2.6707,-2.6663,-2.6286,-2.577,-2.5885,-2.5935,-2.5912,-2.5379,-2.5191,-2.5165,0.0,0.0,-3.9272,-3.9272,-3.9272,-3.9272,-3.9272,-3.9272,-3.9272,-3.9272,-3.9272,-3.9272,-3.9272,-3.9272,-3.9272,-3.9272,-3.9272,-3.8808,-3.7682,-3.7301,-3.6605,-3.5462,-3.5081,-3.4899,-3.4899,-3.4899,-3.4899,-3.4899,-3.4336,-3.4336,-3.4899,-3.4899,-3.4899,-3.4899,-3.4899,-3.4899,-3.4899,-3.4899,-3.4899,-3.4899,-3.4899,-3.4899,-3.4851,-3.4851,-3.4851,-3.4851,-3.4851,-3.4851,-3.4851,-3.4851,-3.4471,-3.3945,-3.3693,-3.374,-3.3712,-3.2935,-3.3018,-3.3261,-3.268,-3.2129,-3.1766,-3.2106,-3.155,-3.0716,-2.9971,-2.9057,-2.8652,-2.984,-2.9493,-2.9262,-3.0272,-3.0586,-3.069,-3.069,-3.0088,-2.94,-2.8906,-2.8098,-2.7829,0.0,-2.854,-2.854,-2.854,-2.8434,-2.8047,0.0,0.0,0.0,0.0,-2.8448,-2.9189,-2.8695,-2.9769,-2.9813,-2.8695,-2.8681,-2.8042,-2.6779,-2.6779,-2.6779,-2.6779,-2.6779,-2.6779,-2.675,-2.6242,-2.6025,-2.5981,-2.5487,-2.5261,-2.5214,-2.5277,-2.536,-2.5364,-2.5361,-2.5349,-2.526,-3.9272,-3.9272,-3.9272,-3.9272,-3.9272,-3.9272,-3.9272,-3.9272,-3.9272,-3.9272,-3.9272,-3.9272,-3.9272,-3.899,-3.8791,-3.8791,-3.8791,-3.846,-3.7665,-3.6986,-3.6241,-3.5446,-3.475,-3.4386,-3.4386,-3.4054,-3.4054,-3.4386,-3.3988,-3.417,-3.4899,-3.4899,-3.4899,-3.4899,-3.4899,-3.4899,-3.4899,-3.4899,-3.4899,-3.4899,-3.4899,-3.4899,-3.4899,-3.4899,-3.4899,-3.4849,-3.4518,-3.4386,-3.4336,-3.4005,-3.3624,-3.3342,-3.3581,-3.3466,-3.3132,-3.2958,-3.3233,-3.345,-3.2895,-3.2234,-3.1741,-3.195,-3.1228,-3.0284,-2.963,-2.883,-2.8373,-2.8936,-2.8815,-2.8906,-2.9894,-3.0088,-3.0178,-3.0462,-2.9729,-2.9011,-2.8652,-2.8008,0.0,-2.8083,-2.8128,-2.8128,-2.8128,-2.8077,-2.7861,-2.7401,-2.7543,0.0,-2.7003,-2.8137,-2.8781,-2.8681,-2.9624,-2.9668,-2.8695,-2.81,-2.7461,-2.6779,-2.6779,-2.6779,-2.6779,-2.6779,-2.6779,-2.6765,-2.6402,-2.6119,-2.5864,-2.5515,-2.5082,-2.4637,-2.4732,-2.484,-2.4887,-2.5012,-2.5012,-2.5058,-3.9272,-3.9272,-3.9272,-3.9272,-3.9272,-3.9272,-3.9272,-3.9189,-3.9156,-3.9309,-3.9172,-3.9156,-3.9309,-3.8742,-3.8377,-3.8377,-3.8179,-3.7996,-3.7897,-3.6704,-3.5909,-3.5678,-3.4568,-3.3856,-3.3624,-3.2895,-3.2895,-3.3624,-3.3508,-3.3839,-3.4568,-3.4667,-3.4717,-3.4733,-3.4849,-3.4899,-3.4883,-3.4767,-3.4717,-3.4717,-3.4717,-3.4717,-3.475,-3.4849,-3.4899,-3.4816,-3.4187,-3.3955,-3.3839,-3.3094,-3.2779,-3.2779,-3.3309,-3.3027,-3.2574,-3.2882,-3.3028,-3.3074,-3.2821,-3.2402,-3.1822,-3.0973,-3.0465,-3.0022,-2.9412,-2.8898,-2.84,-2.7894,-2.8318,-2.8892,-2.9514,-2.9579,-2.9789,-3.0402,-2.943,-2.8607,-2.8607,0.0,-2.7655,-2.7724,-2.7724,-2.7724,-2.7724,-2.7724,-2.7679,-2.759,-2.7437,-2.735,-2.7233,-2.7665,-2.8119,-2.8633,-2.916,-2.9174,-2.855,-2.7374,-2.6779,-2.6779,-2.6779,-2.6779,-2.6779,-2.6779,-2.6779,-2.6779,-2.673,-2.636,-2.5848,-2.5745,-2.5096,-2.4101,-2.4356,-2.4461,-2.4536,-2.4701,-2.4731,-2.4837,-3.9272,-3.9272,-3.9272,-3.9272,-3.9272,-3.9272,-3.9272,-3.8758,-3.8593,-3.9206,-3.8758,-3.8609,-3.9206,-3.9172,-3.9106,-3.9106,-3.798,-3.7019,-3.639,-3.6125,-3.5446,-3.4187,-3.4518,-3.4137,-3.2895,-3.215,-3.2133,-3.2862,-3.2266,-3.2332,-3.3044,-3.3673,-3.3955,-3.3988,-3.4618,-3.4899,-3.4849,-3.4237,-3.3955,-3.3955,-3.3955,-3.3955,-3.4038,-3.4651,-3.4899,-3.4883,-3.4767,-3.4717,-3.4618,-3.3872,-3.321,-3.2597,-3.2116,-3.1885,-3.1891,-3.2557,-3.2342,-3.2039,-3.2788,-3.3223,-3.2978,-3.103,-3.0948,-3.1161,-3.0451,-2.9918,-2.9422,-2.8982,-2.902,-2.9276,-2.9567,-2.9579,-2.9789,-3.0402,-2.943,-2.8607,-2.8607,0.0,-2.7784,-2.8368,-2.8442,-2.8442,-2.8442,-2.8442,-2.8151,-2.7482,-2.7401,-2.735,-2.7233,-2.7733,-2.813,-2.8179,-2.8604,-2.8521,-2.7882,-2.7142,-2.6779,-2.6779,-2.6779,-2.6779,-2.6779,-2.6779,-2.6779,-2.675,-2.6301,-2.5739,-2.5097,-2.4714,-2.4176,-2.3674,-2.4253,-2.4521,-2.4657,-2.5209,-2.545,-2.539,-3.8626,-3.8377,-3.8228,-3.8626,-3.8377,-3.8112,-3.8112,-3.7831,-3.7731,-3.8063,-3.8162,-3.8344,-3.8676,-3.8709,-3.8543,-3.8146,-3.7135,-3.6191,-3.5462,-3.5413,-3.4932,-3.3839,-3.374,-3.3011,-3.1553,-3.1189,-3.1388,-3.2116,-3.1785,-3.1984,-3.2696,-3.3027,-3.3193,-3.321,-3.3557,-3.3707,-3.3673,-3.3342,-3.3425,-3.3789,-3.3789,-3.4038,-3.4386,-3.4319,-3.4303,-3.4203,-3.3408,-3.3127,-3.3027,-3.2282,-3.1802,-3.152,-3.1603,-3.1312,-3.1172,-3.1901,-3.215,-3.2122,-3.1741,-3.2138,-3.2282,-3.0874,-3.1031,-3.1335,-3.0363,-2.975,-2.9303,-2.8779,-2.8824,-2.9033,-2.9514,-2.928,-2.9265,-2.9909,-2.8906,0.0,0.0,-2.7784,-2.7679,-2.8008,-2.8053,-2.8053,-2.8053,-2.8053,-2.7919,-2.7554,-2.7488,-2.7437,-2.7284,-2.7565,-2.7676,-2.7623,-2.8027,-2.7963,-2.7229,-2.6992,-2.6899,-2.6779,-2.6899,-2.6899,-2.6899,-2.6899,-2.6937,-2.6997,-2.6388,-2.5791,-2.5177,-2.4574,-2.4268,-2.4075,-2.403,-2.4268,-2.4567,-2.4552,-2.4762,-2.5091,-3.7899,-3.7551,-3.7352,-3.7864,-3.7483,-3.7102,-3.7102,-3.6953,-3.692,-3.7085,-3.745,-3.7765,-3.7947,-3.7947,-3.7731,-3.7152,-3.6439,-3.576,-3.5197,-3.4833,-3.4319,-3.3574,-3.2663,-3.1735,-3.0791,-3.0609,-3.0808,-3.1328,-3.1328,-3.1653,-3.2183,-3.2348,-3.2431,-3.2448,-3.2613,-3.268,-3.268,-3.2514,-3.2762,-3.3292,-3.3292,-3.3723,-3.4319,-3.3756,-3.364,-3.3624,-3.2332,-3.1868,-3.1752,-3.0981,-3.0775,-3.0799,-3.1196,-3.0974,-3.0659,-3.1361,-3.2017,-3.2199,-3.1073,-3.1146,-3.1394,-3.0667,-3.0957,-3.1077,-3.0141,-2.9617,-2.9166,-2.8717,-2.8931,-2.9355,-2.9871,-2.9553,-2.9431,-3.0046,0.0,0.0,0.0,-2.8035,-2.7894,-2.776,-2.776,-2.771,-2.761,-2.7625,-2.7625,-2.7625,-2.7625,-2.7575,-2.7437,-2.7437,-2.7386,-2.7233,-2.7548,-2.7471,-2.6884,-2.7003,-2.6989,-2.6884,-2.6842,-2.6821,-2.6821,-2.6674,-2.6637,-2.6695,-2.6243,-2.5701,-2.5144,-2.4639,-2.4432,-2.4343,-2.3804,-2.3924,-2.4343,-2.3969,-2.4178,-2.4686,-3.7386,-3.7303,-3.7286,-3.7185,-3.7152,-3.7102,-3.7102,-3.6522,-3.634,-3.7019,-3.6555,-3.6423,-3.7119,-3.7185,-3.7168,-3.7102,-3.6439,-3.5976,-3.5926,-3.4634,-3.3541,-3.2796,-3.1421,-3.0957,-3.1494,-3.0874,-3.0543,-3.0593,-3.0593,-3.0626,-3.0692,-3.1388,-3.1702,-3.1735,-3.2398,-3.268,-3.2646,-3.1984,-3.1735,-3.1742,-3.1742,-3.2216,-3.2845,-3.2779,-3.3193,-3.369,-3.2895,-3.2613,-3.2497,-3.1785,-3.1494,-3.1394,-3.0808,-3.0518,-3.0659,-3.1361,-3.1626,-3.1686,-3.1527,-3.1543,-3.1394,-3.0667,-3.0518,-3.0551,-3.0485,-3.007,-2.975,-2.9705,-3.0354,-3.095,-3.0998,-3.0966,-3.1121,-3.1793,0.0,0.0,-2.9753,-2.936,-2.8795,-2.8304,-2.8255,-2.8076,-2.761,-2.7625,-2.7625,-2.7625,-2.7625,-2.7575,-2.7575,-2.7575,-2.7524,-2.7401,-2.7277,-2.7225,-2.7181,-2.7181,-2.7181,-2.7167,-2.6577,-2.6232,-2.6267,-2.5614,-2.5349,-2.5335,-2.542,-2.5052,-2.4505,-2.4552,-2.4209,-2.367,-2.3625,-2.3625,-2.3744,-2.4343,-2.4537,-2.4686,-3.6651,-3.6367,-3.6334,-3.7186,-3.6969,-3.6652,-3.6554,-3.6704,-3.6705,-3.6439,-3.6572,-3.6787,-3.7069,-3.7102,-3.692,-3.6456,-3.6158,-3.581,-3.5346,-3.4369,-3.3259,-3.2083,-3.1056,-3.0642,-3.0924,-3.0659,-3.0526,-3.0526,-3.0526,-3.0526,-3.0526,-3.0808,-3.0898,-3.0957,-3.1222,-3.1338,-3.1321,-3.1056,-3.1205,-3.1576,-3.1576,-3.205,-3.263,-3.2199,-3.2199,-3.2348,-3.1603,-3.1338,-3.1305,-3.1023,-3.0898,-3.0891,-3.0609,-3.0526,-3.0576,-3.0858,-3.0898,-3.0898,-3.0898,-3.0898,-3.0874,-3.0593,-3.0526,-3.0526,-3.0526,-3.0113,-2.9793,-2.9793,-3.0128,-3.04,-3.04,-3.04,-3.0495,-3.0763,0.0,-2.9169,-2.9422,-2.9232,-2.9028,-2.8826,-2.8496,-2.8255,-2.8076,-2.776,-2.7625,-2.7625,-2.7625,-2.7625,-2.7625,-2.7625,-2.7575,-2.7539,-2.7473,-2.7372,-2.7181,-2.7284,-2.7284,-2.7167,-2.6618,-2.653,-2.6885,-2.5804,-2.5808,-2.6619,-2.5431,-2.4999,-2.5073,-2.4283,-2.4088,-2.4193,-2.3759,-2.3864,-2.4268,-2.4492,-2.4836,-2.533,-3.6343,-3.5857,-3.5656,-3.663,-3.6563,-3.6363,-3.6267,-3.6701,-3.6802,-3.6205,-3.6339,-3.6439,-3.6206,-3.619,-3.5974,-3.5476,-3.5426,-3.5309,-3.5058,-3.408,-3.294,-3.1686,-3.0865,-3.0526,-3.0526,-3.0526,-3.0526,-3.0526,-3.0526,-3.0526,-3.0526,-3.0526,-3.0526,-3.0526,-3.0526,-3.0526,-3.0526,-3.0526,-3.0766,-3.1229,-3.1229,-3.1702,-3.2266,-3.1553,-3.1378,-3.1477,-3.0733,-3.0526,-3.0526,-3.0526,-3.0526,-3.0526,-3.0526,-3.0526,-3.0526,-3.0526,-3.0526,-3.0526,-3.0526,-3.0526,-3.0526,-3.0526,-3.0526,-3.0526,-3.0526,-3.0113,-2.9837,-2.9984,-3.0164,-3.0306,-3.0493,-3.0493,-3.0493,-3.0493,-2.9977,-2.9528,-2.9528,-2.9393,-2.9257,-2.912,-2.8638,-2.8255,-2.811,-2.7795,-2.7625,-2.7625,-2.7625,-2.7625,-2.7625,-2.7625,-2.7625,-2.7625,-2.7625,-2.7524,-2.7321,-2.7437,-2.7437,-2.7321,-2.6733,-2.6693,-2.7095,-2.5964,-2.5998,-2.6886,-2.5525,-2.5076,-2.5226,-2.4298,-2.4073,-2.4253,-2.3789,-2.4029,-2.4612,-2.4821,-2.5226,-2.5704,-3.6632,-3.5996,-3.5463,-3.5354,-3.5911,-3.6427,-3.641,-3.6427,-3.6427,-3.641,-3.5743,-3.5023,-3.4303,-3.422,-3.422,-3.4203,-3.4175,-3.4521,-3.5224,-3.3779,-3.2497,-3.1653,-3.0865,-3.0526,-3.0526,-3.0526,-3.0526,-3.0526,-3.0526,-3.0526,-3.0526,-3.0526,-3.0526,-3.0526,-3.0526,-3.0526,-3.0526,-3.0526,-3.0526,-3.0526,-3.0526,-3.0957,-3.1494,-3.0808,-3.0931,-3.152,-3.0733,-3.0526,-3.0526,-3.0526,-3.0526,-3.0526,-3.0526,-3.0526,-3.0526,-3.0526,-3.0526,-3.0526,-3.0526,-3.0526,-3.0526,-3.0526,-3.0526,-3.0526,-3.0526,-3.0156,-2.9941,-3.0384,-3.0686,-3.1059,-3.1533,-3.1576,-3.1576,-3.1576,-3.1007,-3.0526,-3.0526,-3.0113,-2.9617,-2.9182,-2.8638,-2.8125,-2.766,-2.7625,-2.7625,-2.7625,-2.7625,-2.7625,-2.7625,-2.7625,-2.7625,-2.7625,-2.7625,-2.7625,-2.7625,-2.7625,-2.7625,-2.761,-2.6901,-2.6587,-2.6572,-2.5914,-2.5615,-2.563,-2.5615,-2.5241,-2.4597,-2.4597,-2.4223,-2.361,-2.361,-2.4029,-2.4657,-2.536,-2.5615,-2.5689,-3.6827,-3.6979,-3.7199,-3.7135,-3.732,-3.7239,-3.6653,-3.6975,-3.7079,-3.6463,-3.6212,-3.5777,-3.5006,-3.4459,-3.3957,-3.3389,-3.3328,-3.3323,-3.3478,-3.2552,-3.1895,-3.1636,-3.0865,-3.0526,-3.0526,-3.0526,-3.0526,-3.0526,-3.0526,-3.0526,-3.0526,-3.0526,-3.0526,-3.0526,-3.0526,-3.0526,-3.0526,-3.0526,-3.0526,-3.0526,-3.0526,-3.0642,-3.0824,-3.0593,-3.0659,-3.0824,-3.0593,-3.0526,-3.0526,-3.0526,-3.0526,-3.0526,-3.0526,-3.0526,-3.0526,-3.0526,-3.0526,-3.0526,-3.0526,-3.0526,-3.0526,-3.0526,-3.0526,-3.0526,-3.0526,-3.0384,-3.0342,-3.0468,-3.0549,-3.0672,-3.0799,-3.0858,-3.0858,-3.0858,-3.0659,-3.0526,-3.0526,-3.0384,-3.0241,-3.0113,-2.9661,-2.9287,-2.915,-2.8496,-2.8076,-2.8076,-2.7795,-2.7625,-2.7625,-2.7625,-2.7625,-2.7625,-2.7625,-2.7625,-2.7625,-2.7625,-2.7625,-2.761,-2.6901,-2.6841,-2.7245,-2.6123,-2.6108,-2.6931,-2.6019,-2.5749,-2.5974,-2.551,-2.4926,-2.4373,-2.4837,-2.4552,-2.4044,-2.5196,-2.5315,-2.497,-3.7263,-3.711,-3.7094,-3.7415,-3.7212,-3.6793,-3.6291,-3.6359,-3.6245,-3.5715,-3.5396,-3.4925,-3.4152,-3.3698,-3.3261,-3.2774,-3.294,-3.2904,-3.2484,-3.2067,-3.1658,-3.1332,-3.0842,-3.0568,-3.0526,-3.0526,-3.0526,-3.0526,-3.0526,-3.0526,-3.0526,-3.0526,-3.0526,-3.0526,-3.0526,-3.0526,-3.0526,-3.0526,-3.0526,-3.0526,-3.0526,-3.0526,-3.0526,-3.0526,-3.0526,-3.0526,-3.0526,-3.0526,-3.0526,-3.0526,-3.0526,-3.0526,-3.0526,-3.0526,-3.0526,-3.0526,-3.0526,-3.0526,-3.0526,-3.0526,-3.0526,-3.0526,-3.0526,-3.0526,-3.0526,-3.0526,-3.0526,-3.0526,-3.0526,-3.0526,-3.0526,-3.0526,-3.0526,-3.0526,-3.0526,-3.0526,-3.0526,-3.0342,-3.0199,-3.0199,-2.981,-2.9528,-2.9528,-2.8764,-2.8207,-2.8027,-2.776,-2.7625,-2.7625,-2.7625,-2.7625,-2.7625,-2.7625,-2.7625,-2.7625,-2.7625,-2.7625,-2.7625,-2.7171,-2.7186,-2.7595,-2.6752,-2.6811,-2.7565,-2.6452,-2.6078,-2.6153,-2.5495,-2.4822,-2.4253,-2.4657,-2.4477,-2.4103,-2.4926,-2.4971,-2.4687,-3.7499,-3.6535,-3.5825,-3.6468,-3.5994,-3.5504,-3.5436,-3.4895,-3.4472,-3.4404,-3.388,-3.3186,-3.2374,-3.2313,-3.2256,-3.2188,-3.2797,-3.2832,-3.2059,-3.1991,-3.1681,-3.0945,-3.0773,-3.0651,-3.0526,-3.051,-3.0526,-3.0526,-3.0526,-3.0526,-3.0526,-3.0526,-3.0526,-3.0526,-3.0526,-3.0526,-3.0526,-3.0526,-3.0526,-3.0526,-3.0526,-3.0526,-3.0526,-3.0526,-3.0526,-3.0526,-3.0526,-3.0526,-3.0526,-3.0526,-3.0526,-3.0526,-3.0526,-3.0526,-3.0526,-3.0526,-3.0526,-3.0526,-3.0526,-3.0526,-3.0493,-3.0444,-3.0477,-3.0526,-3.0526,-3.0526,-3.0526,-3.0526,-3.0526,-3.0526,-3.0526,-3.0526,-3.0526,-3.0526,-3.0526,-3.0526,-3.0526,-3.0113,-2.9853,-2.9793,-2.9438,-2.9166,-2.912,-2.8591,-2.8125,-2.7625,-2.7625,-2.7625,-2.7625,-2.7625,-2.7625,-2.7625,-2.7625,-2.7625,-2.7625,-2.7625,-2.7625,-2.7625,-2.7625,-2.7625,-2.7625,-2.7625,-2.7595,-2.7505,-2.6856,-2.6243,-2.5644,-2.4986,-2.4343,-2.3774,-2.3774,-2.4088,-2.4537,-2.4612,-2.4597,-2.4537,-3.5436,-3.5436,-3.5487,-3.5064,-3.4844,-3.4539,-3.3981,-3.4235,-3.4286,-3.3711,-3.3998,-3.3744,-3.2425,-3.2313,-3.2053,-3.1478,-3.15,-3.1436,-3.1187,-3.1146,-3.1063,-3.0912,-3.0871,-3.0831,-3.0814,-3.0609,-3.0526,-3.0526,-3.0526,-3.0526,-3.0526,-3.0526,-3.0526,-3.0526,-3.0526,-3.0526,-3.0526,-3.0526,-3.0526,-3.0526,-3.0526,-3.0526,-3.0526,-3.0526,-3.0526,-3.0526,-3.0526,-3.0526,-3.0526,-3.0526,-3.0526,-3.0526,-3.0526,-3.0526,-3.0526,-3.0526,-3.0526,-3.0526,-3.0526,-3.0526,-3.0377,-2.9798,-3.0096,-3.0526,-3.0526,-3.0526,-3.0526,-3.0526,-3.0526,-3.0526,-3.0526,-3.0526,-3.0526,-3.0526,-3.0526,-3.0526,-3.0526,-3.0426,-3.0199,-2.9837,-2.9705,-2.9483,-2.9136,-2.8591,-2.8125,-2.7625,-2.7625,-2.7625,-2.7625,-2.7625,-2.7625,-2.7625,-2.7625,-2.7625,-2.7625,-2.7625,-2.7625,-2.7625,-2.7625,-2.7625,-2.7625,-2.7625,-2.729,-2.6797,-2.6647,-2.6512,-2.6318,-2.5674,-2.5315,-2.5181,-2.5181,-2.4627,-2.3894,-2.4522,-2.4431,-2.3964,-3.4573,-3.4539,-3.4539,-3.4506,-3.3914,-3.3305,-3.2933,-3.2899,-3.278,-3.2408,-3.2679,-3.2628,-3.185,-3.1765,-3.1613,-3.1224,-3.1151,-3.1072,-3.1032,-3.1032,-3.1032,-3.1032,-3.0992,-3.0952,-3.0952,-3.0773,-3.0692,-3.0692,-3.0692,-3.0692,-3.0692,-3.0692,-3.0692,-3.0692,-3.0692,-3.0692,-3.0692,-3.0609,-3.0651,-3.0692,-3.0568,-3.0526,-3.0609,-3.051,-3.0526,-3.0526,-3.0526,-3.0526,-3.0526,-3.0526,-3.0526,-3.0526,-3.0526,-3.0526,-3.0526,-3.0526,-3.0526,-3.0526,-3.0526,-3.0526,-3.0427,-3.0046,-3.0228,-3.0427,-3.0079,-3.0261,-3.0526,-3.0526,-3.0526,-3.0526,-3.0526,-3.0526,-3.0526,-3.0526,-3.0526,-3.0526,-3.0526,-3.0526,-3.0426,-3.0156,-3.0113,-2.9941,-2.9483,-2.8966,-2.8448,-2.7978,-2.771,-2.7625,-2.7625,-2.7625,-2.7625,-2.7625,-2.7625,-2.7625,-2.7625,-2.7625,-2.7625,-2.7625,-2.7625,-2.7625,-2.7625,-2.7625,-2.738,-2.7036,-2.6722,-2.6587,-2.6512,-2.5601,-2.5243,-2.5213,-2.4927,-2.4415,-2.3827,-2.4247,-2.4258,-2.3982,-3.3829,-3.344,-3.322,-3.3829,-3.2916,-3.2087,-3.2087,-3.1681,-3.1326,-3.1207,-3.1309,-3.1326,-3.1207,-3.119,-3.119,-3.119,-3.119,-3.119,-3.119,-3.119,-3.119,-3.119,-3.1095,-3.1015,-3.1015,-3.0992,-3.0952,-3.0912,-3.0912,-3.0912,-3.0912,-3.0912,-3.0912,-3.0912,-3.0912,-3.0912,-3.0912,-3.0773,-3.079,-3.0871,-3.0651,-3.0651,-3.0733,-3.0609,-3.0568,-3.0568,-3.0568,-3.0568,-3.0568,-3.0568,-3.0568,-3.0568,-3.0568,-3.0568,-3.051,-3.051,-3.0526,-3.0526,-3.0526,-3.0526,-3.0493,-3.0361,-3.0427,-3.0328,-2.9582,-2.998,-3.0526,-3.0526,-3.0526,-3.0526,-3.0526,-3.0526,-3.0526,-3.0526,-3.0526,-3.0518,-3.0692,-3.0593,-3.0518,-3.0549,-3.0382,-3.007,-2.9617,-2.9196,-2.8748,-2.8207,-2.7795,-2.7625,-2.7625,-2.7625,-2.7625,-2.7625,-2.7625,-2.7625,-2.7625,-2.7625,-2.7625,-2.7625,-2.7625,-2.7625,-2.7625,-2.7625,-2.7565,-2.743,-2.6876,-2.6576,-2.6429,-2.5273,-2.4822,-2.4806,-2.4212,-2.3982,-2.3982,-2.4024,-2.4124,-2.4208,-3.1749,-3.1562,-3.1529,-3.163,-3.1478,-3.1343,-3.1343,-3.1799,-3.1901,-3.1275,-3.1749,-3.1901,-3.1258,-3.119,-3.119,-3.119,-3.119,-3.119,-3.119,-3.119,-3.119,-3.119,-3.119,-3.119,-3.119,-3.1151,-3.1072,-3.0912,-3.0912,-3.0912,-3.0912,-3.0912,-3.0912,-3.0912,-3.0912,-3.0912,-3.0912,-3.0871,-3.0871,-3.0912,-3.0871,-3.0871,-3.0871,-3.0871,-3.0871,-3.0871,-3.0871,-3.0871,-3.0871,-3.0871,-3.0871,-3.0871,-3.0871,-3.079,-3.0692,-3.0692,-3.0609,-3.0526,-3.0526,-3.0526,-3.0361,-2.9731,-3.0046,-3.0328,-2.9582,-2.998,-3.0526,-3.0526,-3.0526,-3.0526,-3.0526,-3.0526,-3.0526,-3.0526,-3.0526,-3.0742,-3.1345,-3.0882,-3.0589,-3.0803,-2.9897,-2.9058,-2.8528,-2.8448,-2.8207,-2.771,-2.7625,-2.7625,-2.7625,-2.7625,-2.7625,-2.7625,-2.7625,-2.7625,-2.7625,-2.7625,-2.7625,-2.7625,-2.7625,-2.7625,-2.7625,-2.7625,-2.736,-2.6883,-2.6793,-2.6512,-2.6,-2.5288,-2.4984,-2.4908,-2.424,-2.3982,-2.4024,-2.4124,-2.4208,-2.4276,-3.1555,-3.1329,-3.119,-3.119,-3.119,-3.119,-3.119,-3.1461,-3.1562,-3.1241,-3.1461,-3.1546,-3.1241,-3.119,-3.119,-3.119,-3.119,-3.119,-3.119,-3.119,-3.119,-3.119,-3.119,-3.119,-3.119,-3.119,-3.1151,-3.1072,-3.1072,-3.1072,-3.1072,-3.1072,-3.1072,-3.1072,-3.1072,-3.1072,-3.1072,-3.0992,-3.0992,-3.1072,-3.0952,-3.0912,-3.0952,-3.0912,-3.0912,-3.0912,-3.0912,-3.0912,-3.0912,-3.0912,-3.0912,-3.0912,-3.0912,-3.0871,-3.0814,-3.0814,-3.079,-3.0733,-3.0733,-3.0651,-3.0526,-3.0211,-3.0319,-3.0385,-3.0112,-3.0278,-3.0526,-3.0526,-3.0526,-3.0526,-3.0526,-3.0526,-3.0526,-3.0526,-3.0874,-3.1064,-3.0981,-3.1047,-3.0919,-3.034,-2.981,-2.9393,-2.9134,-2.8919,-2.8779,-2.8904,-2.8654,-2.8384,-2.8222,-2.814,-2.8008,-2.774,-2.7625,-2.7625,-2.7625,-2.7625,-2.7625,-2.7625,-2.7675,-2.7675,-2.7625,-2.7675,-2.7575,-2.7353,-2.7418,-2.7349,-2.7033,-2.6077,-2.568,-2.5574,-2.4563,-2.4193,-2.4177,-2.4234,-2.4276,-2.4302]}]]